[[[{"header":{"parameterUnit":"kt","parameterCategory":2,"dx":1,"dy":1,"la1":29.285339999999998,"la2":30.599998999999997,"lo1":-89.70041500000002,"lo2":-87.6738589999976,"nx":112,"ny":82,"refTime":"2022-10-25T18:00:00:Z","depth":0,"parameterNumber":1,"parameterNumberName":"U-component_of_WINDS"},"data":[2.2296,2.2151,2.2033,2.1571,2.1505,2.1387,2.0741,2.0134,1.9607,1.9237,1.838,1.7761,1.7762,1.7293,1.7101,1.6916,1.672,1.6745,0.0,1.6781,0.0,0.0,0.0,0.0,0.0,0.0,-4.9099,-5.8657,-7.2463,-8.5481,-9.7167,-10.6524,-11.3799,-11.8639,-12.6947,-13.1259,-13.1365,-13.8962,-14.4891,-14.9071,-15.1998,-15.6929,-16.374,-16.7048,-16.9963,-17.2558,-17.5824,-17.7298,-17.7298,-17.7298,-17.827,-17.999,-18.156,-18.3131,-18.4626,-18.4626,-18.5434,-18.6718,-18.8109,-18.8182,-18.7785,-18.8226,-18.7702,-18.6791,-18.6791,-18.6411,-18.5956,-18.5956,-18.55,-18.5196,-18.5804,-18.6791,-18.7474,-18.6867,-18.7626,-18.8385,-18.8385,-18.6639,-18.4513,-18.2842,-17.9274,-17.5705,-17.2895,-17.1149,-17.0086,-17.0086,-17.0086,-17.0086,-17.0086,-17.0086,-17.1301,-17.4566,-17.4946,-17.6312,-17.9729,-18.0565,-18.064,-18.0033,-18.0033,-18.0033,-18.0033,-18.0033,-18.0261,-18.0868,-18.0337,-18.0033,-18.0185,-17.6437,-17.4113,-17.3156,-16.991,-16.8104,2.1439,2.1189,2.0978,2.0398,2.0319,2.0174,1.9409,1.8868,1.8367,1.7892,1.7339,1.693,1.693,1.693,1.6838,1.6534,1.6745,1.6681,0.0,1.5134,0.8132,0.0,0.0,0.0,0.0,-3.9562,-5.3661,-6.351,-7.7843,-9.1452,-10.3131,-11.1126,-11.7379,-12.2237,-12.8974,-13.2638,-13.2628,-14.0592,-14.6372,-14.9829,-15.3626,-15.8534,-16.4525,-16.7339,-17.0257,-17.3339,-17.6047,-17.7298,-17.7298,-17.7298,-17.7971,-17.9093,-18.0738,-18.2308,-18.3878,-18.4402,-18.5509,-18.6718,-18.7429,-18.7049,-18.6347,-18.7318,-18.6411,-18.5044,-18.5044,-18.4665,-18.4285,-18.4893,-18.4209,-18.3602,-18.4741,-18.5424,-18.5728,-18.5196,-18.588,-18.6715,-18.6715,-18.588,-18.4209,-18.1324,-17.9046,-17.6236,-17.2288,-17.0769,-17.0086,-17.0086,-17.0086,-17.0086,-17.0086,-17.0542,-17.1908,-17.4642,-17.5477,-17.692,-17.9729,-18.0033,-18.0033,-18.0033,-18.0033,-18.0033,-18.0033,-18.0033,-18.0033,-18.0033,-18.0033,-17.9198,-17.7451,-17.5407,-17.33,-17.1179,-16.8952,-16.7692,2.0569,1.9712,1.9066,1.904,1.8407,1.7774,1.7747,1.7536,1.7246,1.6956,1.6917,1.693,1.6943,1.6956,1.6877,1.66,1.6434,0.0,0.0,1.1035,0.0,0.0,-2.4167,-2.8054,-3.9163,-4.6693,-5.6525,-7.0404,-8.2541,-9.4301,-10.5552,-11.2638,-11.897,-12.5178,-12.9925,-13.3813,-13.6597,-14.2983,-14.7867,-15.1345,-15.4948,-15.9523,-16.4525,-16.7339,-17.0257,-17.3339,-17.6047,-17.7298,-17.7298,-17.7298,-17.7298,-17.7447,-17.9167,-18.0738,-18.2303,-18.3949,-18.493,-18.5499,-18.5855,-18.557,-18.5348,-18.6943,-18.6259,-18.4893,-18.4893,-18.3754,-18.2767,-18.4437,-18.2539,-18.0792,-18.4057,-18.3678,-18.2918,-18.4513,-18.4969,-18.4969,-18.4969,-18.4969,-18.3526,-17.8666,-17.7603,-17.5933,-17.1149,-17.0162,-17.0086,-17.0086,-17.0086,-17.0086,-17.0086,-17.1453,-17.3047,-17.4718,-17.6388,-17.8135,-17.9805,-17.9957,-18.0033,-18.0033,-18.0033,-18.0033,-18.0033,-18.0033,-18.0033,-18.0033,-17.9957,-17.9122,-17.7375,-17.5255,-17.3202,-17.1103,-16.8573,-16.7352,1.9171,1.8815,1.8644,1.7998,1.7668,1.7378,1.6943,1.6627,1.6403,1.6323,1.6468,0.0,0.0,0.0,1.7932,1.7866,0.0,0.6397,-0.4478,-0.8694,-1.8117,-3.7829,-3.3909,-3.3876,-4.5321,-5.5337,-6.6006,-7.8191,-8.5412,-9.5912,-11.1491,-11.4691,-11.9617,-12.7389,-12.9963,-13.3006,-13.6597,-14.431,-14.9217,-15.1345,-15.6504,-16.0808,-16.4525,-16.7339,-17.0257,-17.3339,-17.6047,-17.7298,-17.7298,-17.7298,-17.7298,-17.7447,-17.9167,-18.024,-18.095,-18.1401,-18.3389,-18.578,-18.5,-18.5457,-18.6033,-18.4433,-18.2767,-18.14,-18.14,-18.1096,-18.0792,-18.1248,-18.0716,-18.0185,-18.1172,-18.1931,-18.2311,-18.1552,-18.2311,-18.3222,-18.3222,-18.3222,-18.3146,-18.2994,-18.0033,-17.7072,-17.5705,-17.244,-17.0086,-17.0086,-17.0086,-17.0086,-17.0086,-17.1453,-17.2592,-17.3047,-17.5705,-17.7679,-17.8135,-17.9274,-18.0033,-18.0033,-18.0033,-18.0033,-18.0033,-18.0033,-18.0033,-18.0033,-17.8818,-17.7299,-17.5629,-17.3285,-17.1151,-16.9406,-16.7992,-16.6754,1.8077,1.7721,1.7616,1.6983,1.6732,1.6614,1.6508,1.6363,1.6363,1.6331,0.0,0.0,0.0,0.0,0.0,0.0,1.0045,-0.0749,-1.2689,-1.489,-2.2305,-4.1672,-4.2488,-4.3629,-4.8933,-6.3261,-7.6466,-8.6155,-9.3202,-10.2432,-11.5212,-11.6906,-12.1286,-12.9983,-13.1052,-13.4361,-14.045,-14.673,-15.1248,-15.3588,-15.7743,-16.1113,-16.3597,-16.7048,-16.989,-17.2411,-17.5749,-17.7298,-17.7298,-17.7298,-17.7298,-17.7373,-17.8345,-17.9016,-17.9396,-18.0149,-18.2067,-18.4167,-18.3447,-18.4462,-18.5532,-18.2459,-18.0792,-18.0033,-18.0033,-18.0033,-18.0033,-18.0033,-18.0033,-18.0033,-18.0033,-18.0716,-18.1248,-18.0261,-18.0792,-18.1476,-18.1476,-18.2615,-18.345,-18.2994,-18.0565,-17.8287,-17.7603,-17.3351,-17.0086,-17.0086,-17.0086,-17.0086,-17.0086,-17.206,-17.3503,-17.3503,-17.654,-17.8514,-17.8514,-17.9426,-18.0033,-18.0033,-18.0033,-18.0033,-18.0033,-17.935,-17.859,-17.7907,-17.692,-17.5473,-17.3628,-17.2019,-17.0245,-16.8436,-16.7731,-16.653,1.7115,1.6561,1.6323,1.6047,1.5849,1.5666,1.5412,0.0,1.524,1.4552,0.0,1.5892,1.5754,0.0,0.0,1.4441,0.3809,-0.7231,-1.5687,-1.5848,-2.1798,-4.0418,-5.0285,-5.4915,-5.272,-7.0105,-8.4845,-9.3344,-10.2242,-11.0393,-11.7124,-11.8774,-12.3494,-13.2016,-13.295,-13.7425,-14.5884,-14.9503,-15.3082,-15.6648,-15.884,-16.0613,-16.2312,-16.6611,-16.9376,-17.109,-17.5455,-17.7298,-17.7298,-17.7298,-17.7298,-17.7298,-17.7298,-17.7517,-17.8041,-17.9598,-18.0866,-18.1775,-18.1623,-18.2951,-18.4209,-18.102,-18.0033,-18.0033,-18.0033,-18.0033,-18.0033,-18.0033,-18.0033,-18.0033,-18.0033,-18.0033,-18.0033,-18.0033,-18.0033,-18.0033,-18.0033,-18.2539,-18.3905,-18.0868,-17.9957,-17.9274,-17.7755,-17.3503,-17.0314,-17.0086,-17.0238,-17.039,-17.0618,-17.3503,-17.5477,-17.5249,-17.8287,-18.0109,-17.9729,-17.9881,-18.0033,-18.0033,-18.0033,-17.9957,-17.9729,-17.8287,-17.6692,-17.5022,-17.4717,-17.3704,-17.1821,-17.118,-16.987,-16.8031,-16.7589,-16.653,1.5849,1.5651,1.573,1.5427,1.5836,1.48,0.0,0.0,0.0,0.1214,0.0498,0.0764,0.1061,0.1089,-0.1376,-0.8963,-1.3692,-1.9688,-2.9829,-3.5086,-4.1721,-5.2378,-5.5835,-5.9702,-6.6134,-7.3994,-8.3999,-9.7006,-10.2699,-10.8459,-11.4718,-11.9774,-12.5144,-13.0791,-13.423,-13.9166,-14.5884,-14.9503,-15.3082,-15.6648,-15.884,-16.0613,-16.2312,-16.6611,-16.9376,-17.109,-17.5455,-17.7298,-17.7298,-17.7298,-17.7298,-17.7298,-17.7298,-17.7517,-17.7941,-17.8669,-18.0173,-18.1639,-18.0689,-18.155,-18.2691,-18.064,-18.0033,-18.0033,-18.0033,-18.0033,-18.0033,-18.0033,-18.0033,-18.0033,-18.0033,-18.0033,-18.0033,-18.0033,-18.0033,-18.0033,-18.0033,-18.1628,-18.2842,-18.2159,-17.9805,-17.7831,-17.7527,-17.4414,-17.1529,-17.0314,-17.1149,-17.244,-17.3807,-17.692,-17.8514,-17.7148,-18.0033,-18.0944,-17.8211,-17.9198,-18.0033,-18.0033,-18.0033,-17.935,-17.7983,-17.7679,-17.6692,-17.5022,-17.331,-17.2245,-17.1821,-16.9756,-16.8332,-16.7529,-16.7416,-16.653,1.5216,1.5189,1.544,1.5598,1.6178,0.0,0.0,0.9476,0.4581,-0.179,-0.1057,-0.2445,-1.2343,-1.2656,-1.5154,-2.6146,-2.934,-3.4428,-4.5344,-4.9392,-5.394,-6.0311,-6.5019,-6.9482,-7.4911,-8.0844,-8.8305,-9.8868,-10.5998,-11.18,-11.6451,-12.2005,-12.7014,-13.1614,-13.5764,-14.1367,-14.8528,-15.1138,-15.4292,-15.8238,-15.9302,-16.0616,-16.2114,-16.6563,-16.9321,-17.0924,-17.5384,-17.7298,-17.7298,-17.7298,-17.7298,-17.7298,-17.7298,-17.7517,-17.7941,-17.8152,-17.922,-18.0409,-17.9819,-18.0321,-18.1096,-18.0261,-18.0033,-18.0033,-18.0033,-18.0033,-18.0033,-18.0033,-18.0033,-18.0033,-18.0033,-18.0033,-18.0033,-18.0033,-18.0033,-18.0033,-18.0033,-18.1324,-18.2539,-18.2539,-18.0489,-17.8438,-17.7603,-17.5401,-17.3427,-17.2668,-17.3199,-17.4338,-17.6009,-17.7679,-17.8742,-17.8742,-18.0261,-18.0565,-17.8894,-17.9501,-18.0033,-18.0033,-17.9198,-17.8363,-17.7527,-17.5857,-17.4566,-17.3731,-17.1612,-17.0479,-17.0252,-16.8547,-16.7574,-16.7352,-16.7352,-16.653,1.4807,1.4926,1.5308,1.5849,1.6587,0.0,1.5153,0.9287,0.2305,-0.5405,-0.4478,-0.7482,-2.3694,-2.5461,-2.7642,-3.8346,-4.16,-4.6741,-5.8567,-6.0179,-6.2264,-6.7666,-7.402,-7.8979,-8.1953,-8.8158,-9.4377,-10.0414,-10.8678,-11.5302,-11.9381,-12.4553,-12.9204,-13.3414,-13.7685,-14.352,-15.1122,-15.2892,-15.5726,-15.9757,-15.9757,-16.0483,-16.189,-16.6433,-16.9233,-17.0658,-17.5232,-17.7298,-17.7298,-17.7298,-17.7298,-17.7298,-17.7298,-17.7467,-17.7809,-17.7916,-17.8522,-17.9124,-17.9287,-17.9619,-18.0033,-18.0033,-18.0033,-18.0033,-18.0033,-18.0033,-18.0033,-18.0033,-18.0033,-18.0033,-18.0033,-18.0033,-18.0033,-18.0033,-18.0033,-18.0033,-18.0033,-18.1324,-18.2463,-18.2083,-18.0944,-17.9426,-17.7755,-17.6312,-17.5325,-17.5022,-17.5477,-17.6388,-17.7755,-17.8514,-17.935,-18.0413,-18.0489,-18.0337,-18.0033,-18.0033,-18.0033,-18.0033,-17.8438,-17.7299,-17.6996,-17.4034,-17.2288,-17.1984,-17.0341,-16.9246,-16.8758,-16.8006,-16.7515,-16.7352,-16.7352,-16.6679,1.4398,1.4768,1.5255,1.5598,1.689,0.0,0.1937,-0.1025,-0.4916,-1.9413,-2.5131,-2.8596,-3.1553,-3.572,-4.0021,-4.3934,-4.5483,-5.0719,-6.3746,-6.6307,-6.9435,-7.6981,-7.9162,-8.2777,-8.9369,-9.4678,-9.9433,-10.3099,-10.7482,-11.3328,-12.1078,-12.6895,-13.1975,-13.6152,-14.0615,-14.5797,-15.1122,-15.3263,-15.6078,-15.9757,-15.9757,-16.0483,-16.189,-16.6433,-16.9233,-17.0658,-17.5232,-17.7298,-17.7298,-17.7298,-17.7298,-17.7298,-17.7298,-17.7291,-17.7404,-17.8241,-17.8591,-17.8856,-17.9611,-17.9957,-18.0033,-18.0033,-18.0033,-18.0033,-18.0033,-18.0033,-18.0033,-18.0033,-18.0033,-18.0033,-18.0033,-18.0033,-18.0033,-18.0033,-18.0033,-18.0033,-18.0033,-18.1324,-18.2083,-18.0565,-18.0109,-17.9426,-17.7755,-17.7299,-17.6692,-17.5173,-17.7527,-17.9501,-17.9653,-18.2387,-18.3678,-18.2387,-18.2235,-18.1628,-18.0109,-18.0033,-18.0033,-18.0033,-17.8438,-17.6768,-17.5325,-17.3427,-17.1756,-17.039,-17.0162,-16.954,-16.8758,-16.8658,-16.817,-16.7352,-16.7352,-16.7278,1.428,1.4873,1.5638,1.6278,0.0,0.0,-0.0509,-0.7318,-1.3771,-2.2708,-2.9163,-3.4736,-3.9226,-4.3197,-4.7219,-5.2617,-5.7065,-6.2893,-7.0949,-7.4189,-7.7711,-8.2973,-8.8261,-9.2505,-9.5469,-9.9012,-10.2711,-10.6588,-10.9732,-11.3621,-11.8967,-12.6414,-13.2566,-13.6533,-14.1178,-14.5577,-14.9815,-15.2781,-15.5785,-15.8402,-16.0102,-16.1595,-16.2986,-16.7576,-17.0428,-17.1806,-17.5665,-17.7298,-17.7298,-17.7298,-17.7298,-17.7298,-17.7298,-17.7298,-17.7291,-17.7738,-17.7991,-17.8326,-17.8966,-17.9363,-17.9611,-17.9877,-18.0033,-18.0033,-18.0033,-18.0033,-18.0033,-18.0033,-18.0033,-18.0033,-18.0033,-18.0033,-18.0033,-18.0033,-18.0033,-18.0033,-18.0033,-18.0565,-18.0868,-18.0109,-18.0033,-17.9729,-17.9046,-17.897,-17.8666,-17.7983,-17.9957,-18.1476,-18.1476,-18.2691,-18.3298,-18.2615,-18.1628,-18.0792,-18.0033,-18.0033,-17.9577,-17.859,-17.692,-17.5249,-17.3579,-17.1908,-17.0769,-17.0086,-17.0086,-16.9638,-16.8758,-16.8758,-16.8228,-16.7352,-16.7352,-16.7352,1.4464,0.0,0.0,0.0,0.0,0.0,-0.5329,-1.3283,-2.0406,-2.6753,-3.3171,-3.9761,-4.6717,-5.0328,-5.4968,-6.2239,-6.7999,-7.3215,-7.8428,-8.1171,-8.4647,-8.9603,-9.5154,-9.883,-9.971,-10.1609,-10.4946,-10.9991,-11.1743,-11.4835,-11.9828,-12.6685,-13.2761,-13.7538,-14.1632,-14.5463,-14.8851,-15.2652,-15.5478,-15.7474,-16.0377,-16.2394,-16.3872,-16.8453,-17.121,-17.2587,-17.5877,-17.7298,-17.7298,-17.7298,-17.7298,-17.7298,-17.7298,-17.7358,-17.7467,-17.7638,-17.7914,-17.8332,-17.8885,-17.9219,-17.9505,-17.9877,-18.0033,-18.0033,-18.0033,-18.0033,-18.0033,-18.0033,-18.0033,-18.0033,-18.0033,-18.0033,-18.0033,-18.0033,-18.0033,-18.0033,-18.0033,-18.0033,-18.0033,-18.0033,-18.0033,-18.0033,-18.0033,-18.0033,-18.0185,-18.064,-18.2159,-18.307,-18.2615,-18.2918,-18.2842,-18.1931,-18.0716,-18.0033,-18.0033,-18.0033,-17.9274,-17.7603,-17.5857,-17.4186,-17.2516,-17.0921,-17.0086,-17.0086,-17.0086,-16.9638,-16.8758,-16.8758,-16.8228,-16.7352,-16.7352,-16.7352,0.0,0.0,0.0,0.8394,0.581,0.0516,-1.6404,-1.9916,-2.3236,-3.5374,-4.2128,-4.7527,-5.2868,-5.8886,-6.5278,-7.3214,-7.5065,-7.8151,-8.5947,-8.6724,-8.9603,-9.7471,-9.8315,-9.9386,-10.2448,-10.2887,-10.5598,-11.2065,-11.2752,-11.6688,-12.5867,-12.9002,-13.3601,-14.048,-14.3046,-14.5812,-14.8851,-15.297,-15.5904,-15.7474,-16.0377,-16.2394,-16.3872,-16.8453,-17.121,-17.2587,-17.5877,-17.7298,-17.7298,-17.7298,-17.7298,-17.7298,-17.7298,-17.7517,-17.7941,-17.8372,-17.8809,-17.9271,-17.979,-17.9957,-17.9957,-18.0033,-18.0033,-18.0033,-18.0033,-18.0033,-18.0033,-18.0033,-18.0033,-18.0033,-18.0033,-18.0033,-18.0033,-18.0033,-18.0033,-18.0033,-18.0033,-18.0033,-18.0033,-18.0033,-18.0033,-18.0033,-18.0033,-18.0033,-18.0565,-18.2159,-18.3905,-18.4361,-18.2767,-18.3981,-18.3678,-18.0413,-18.0033,-18.0033,-18.0033,-18.0033,-17.9274,-17.7603,-17.5857,-17.4186,-17.2516,-17.0921,-17.0086,-17.0086,-17.0086,-16.9638,-16.8758,-16.8758,-16.8228,-16.7352,-16.7352,-16.7352,0.9327,0.8858,0.7182,-0.272,-0.8149,-1.3514,-2.1359,-2.9503,-3.8047,-4.5755,-5.194,-5.7421,-6.2315,-6.8351,-7.539,-8.4316,-8.4634,-8.5973,-9.201,-9.3929,-9.5724,-9.8315,-10.0918,-10.3273,-10.586,-10.602,-10.8748,-11.537,-11.5849,-11.9081,-12.614,-12.9206,-13.2384,-13.6433,-13.918,-14.2299,-14.5961,-15.1056,-15.4334,-15.5904,-15.957,-16.2144,-16.3872,-16.934,-17.2016,-17.2587,-17.5877,-17.7298,-17.7298,-17.7298,-17.7298,-17.7298,-17.7298,-17.7349,-17.7517,-17.7991,-17.8165,-17.841,-17.9237,-17.9505,-17.9516,-17.9877,-18.0033,-18.0033,-18.0033,-18.0033,-18.0033,-18.0033,-18.0033,-18.0033,-18.0033,-18.0033,-18.0033,-18.0033,-18.0033,-18.0033,-18.0033,-18.0033,-18.0033,-18.0033,-18.0033,-18.0033,-18.0033,-18.0033,-18.0565,-18.2311,-18.2994,-18.3146,-18.2615,-18.2994,-18.2539,-18.0261,-18.0033,-18.0033,-18.0033,-18.0033,-17.8818,-17.6009,-17.5249,-17.3572,-17.0473,-16.9866,-16.9438,-16.9206,-16.9424,-16.9206,-16.8347,-16.8623,-16.8228,-16.7352,-16.7352,-16.7352,0.6871,0.5119,0.19,-1.104,-1.7775,-2.3061,-2.9829,-3.9285,-4.8088,-5.3247,-5.8987,-6.4709,-6.9506,-7.6825,-8.3866,-8.9195,-9.0402,-9.1756,-9.6108,-9.7405,-9.8784,-10.0316,-10.233,-10.4811,-10.7572,-10.7727,-11.0411,-11.7092,-11.7563,-12.0683,-12.7556,-12.9551,-13.2389,-13.597,-13.7607,-14.0565,-14.43,-14.9997,-15.3841,-15.5866,-15.9427,-16.2224,-16.4444,-16.9871,-17.2437,-17.2587,-17.5877,-17.7298,-17.7298,-17.7298,-17.7298,-17.7298,-17.7404,-17.7638,-17.783,-17.8165,-17.8485,-17.8721,-17.9271,-17.9505,-17.9526,-17.9877,-18.0033,-18.0033,-18.0033,-18.0033,-18.0033,-18.0033,-18.0033,-18.0033,-18.0033,-18.0033,-18.0033,-18.0033,-18.0033,-18.0033,-18.0033,-18.0033,-18.0033,-18.0033,-18.0033,-18.0033,-18.0033,-18.0489,-18.1476,-18.3146,-18.345,-18.345,-18.345,-18.2918,-18.1855,-18.0185,-17.9798,-17.9708,-17.9708,-17.9602,-17.8052,-17.4712,-17.4485,-17.2838,-16.926,-16.9109,-16.9015,-16.8758,-16.9109,-16.8805,-16.7897,-16.8304,-16.8076,-16.7352,-16.7352,-16.7352,0.6933,0.3718,-0.1244,-1.6644,-2.2797,-2.8517,-4.1184,-4.8113,-5.3274,-5.845,-6.415,-6.9853,-7.5099,-8.4321,-9.053,-8.908,-9.2011,-9.5735,-9.85,-9.8319,-9.9415,-10.4156,-10.396,-10.4598,-10.7983,-10.8239,-11.0911,-11.7328,-11.7798,-12.1528,-13.0156,-13.0556,-13.2968,-13.8444,-13.8793,-14.0498,-14.43,-14.9797,-15.3981,-15.7035,-15.9681,-16.2514,-16.5461,-17.0234,-17.2437,-17.2587,-17.5877,-17.7298,-17.7298,-17.7298,-17.7298,-17.7291,-17.77,-17.8197,-17.8701,-17.9083,-17.9516,-17.9957,-18.0033,-18.0033,-18.0033,-18.0033,-18.0033,-18.0033,-18.0033,-18.0033,-18.0033,-18.0033,-18.0033,-18.0033,-18.0033,-18.0033,-18.0033,-18.0033,-18.0033,-18.0033,-18.0033,-18.0033,-18.0033,-18.0033,-18.0033,-18.0033,-18.0033,-18.14,-18.3146,-18.4817,-18.4969,-18.4969,-18.5044,-18.345,-18.1779,-18.0107,-17.9505,-17.9255,-17.9237,-17.8809,-17.723,-17.3826,-17.3599,-17.2086,-16.8801,-16.8725,-16.8725,-16.8616,-16.9064,-16.865,-16.7352,-16.7897,-16.7897,-16.7352,-16.7352,-16.7352,0.1148,-0.7444,-1.5507,-2.5156,-3.2594,-3.9551,-4.7391,-5.2598,-5.8619,-6.8229,-7.1839,-7.6143,-8.4672,-8.8884,-9.2549,-9.7376,-9.828,-9.9468,-10.2535,-10.4031,-10.5448,-10.6634,-10.8956,-11.1462,-11.4889,-11.513,-11.6855,-12.1086,-12.1371,-12.4038,-13.0356,-13.0556,-13.2968,-13.8444,-14.0065,-14.1985,-14.4447,-14.7335,-15.0903,-15.5189,-15.8,-16.0908,-16.383,-16.9712,-17.2437,-17.2587,-17.5877,-17.7298,-17.7298,-17.7298,-17.7298,-17.7291,-17.77,-17.7916,-17.8197,-17.8915,-17.9287,-17.9505,-17.9877,-18.0033,-18.0033,-18.0033,-18.0033,-18.0033,-18.0033,-18.0033,-18.0033,-18.0033,-18.0033,-18.0033,-18.0033,-18.0033,-18.0033,-18.0033,-18.0033,-18.0033,-18.0033,-18.0033,-18.0033,-18.0033,-18.0033,-18.0033,-18.0033,-18.14,-18.3146,-18.4817,-18.3981,-18.3443,-18.4363,-18.2219,-18.0233,-17.9091,-17.9104,-17.9104,-17.8781,-17.8658,-17.723,-17.3826,-17.3599,-17.2024,-16.8411,-16.826,-16.8104,-16.7731,-16.817,-16.8104,-16.7352,-16.7897,-16.7897,-16.7352,-16.7352,-16.7352,0.2056,-0.9133,-2.1838,-3.3049,-4.0615,-4.6695,-5.2599,-5.9317,-6.6294,-7.2628,-7.8211,-8.3356,-8.9114,-9.3135,-9.6806,-10.0273,-10.1585,-10.2775,-10.5542,-10.6894,-10.8239,-10.971,-11.1516,-11.3975,-11.7328,-11.7563,-11.9076,-12.2391,-12.3834,-12.62,-13.0356,-13.1742,-13.4172,-13.8444,-14.0498,-14.2391,-14.4447,-14.6369,-14.9039,-15.2688,-15.61,-15.9986,-16.414,-16.9098,-17.169,-17.2587,-17.5877,-17.7298,-17.7298,-17.7298,-17.7349,-17.7562,-17.804,-17.8292,-17.8516,-17.9271,-17.9602,-17.9611,-17.9877,-18.0033,-18.0033,-18.0033,-18.0033,-18.0033,-18.0033,-18.0033,-18.0033,-18.0033,-18.0033,-18.0033,-18.0033,-18.0033,-18.0033,-18.0033,-18.0033,-18.0033,-18.0033,-18.0033,-18.0033,-18.0033,-18.0033,-17.9955,-17.9702,-18.1848,-18.3595,-18.3352,-18.3311,-18.3224,-18.2927,-18.0887,-17.92,-17.8734,-17.8658,-17.8557,-17.8292,-17.8106,-17.656,-17.3293,-17.302,-17.1442,-16.7937,-16.7787,-16.7692,-16.7352,-16.7634,-16.7634,-16.7352,-16.7634,-16.7634,-16.7352,-16.7352,-16.6979,0.2915,-0.839,-2.3925,-3.9595,-4.672,-5.1892,-5.797,-6.6433,-7.3467,-7.4872,-8.3242,-9.0431,-9.2139,-9.7579,-10.1369,-10.0876,-10.2738,-10.5038,-10.69,-10.7727,-10.9509,-11.2506,-11.3488,-11.5185,-11.8088,-11.8322,-11.9539,-12.2391,-12.497,-12.7764,-13.0356,-13.3159,-13.5787,-13.8444,-14.0828,-14.2702,-14.4447,-14.6643,-14.8572,-15.0267,-15.4272,-15.9135,-16.481,-16.81,-17.0493,-17.2288,-17.5728,-17.7298,-17.7298,-17.7358,-17.7502,-17.7941,-17.8485,-17.8966,-17.9287,-17.9795,-18.0033,-18.0033,-18.0033,-18.0033,-18.0033,-18.0033,-18.0033,-18.0033,-18.0033,-18.0033,-18.0033,-18.0033,-18.0033,-18.0033,-18.0033,-18.0033,-18.0033,-18.0033,-18.0033,-18.0033,-18.0033,-18.0033,-17.9957,-17.9879,-17.9877,-17.9708,-17.9255,-18.2162,-18.3832,-18.1749,-18.2856,-18.3208,-18.1315,-17.9616,-17.8633,-17.8486,-17.8106,-17.7839,-17.7733,-17.753,-17.5877,-17.2587,-17.2437,-17.0867,-16.7502,-16.7352,-16.7352,-16.7352,-16.7352,-16.7352,-16.7352,-16.7352,-16.7278,-16.7053,-16.7053,-16.6306,-1.191,-1.9098,-2.7676,-4.3181,-5.0504,-5.6371,-6.7167,-7.1168,-7.4539,-8.0861,-8.6663,-9.3066,-9.9871,-10.1465,-10.2278,-10.477,-10.4809,-10.4279,-10.3736,-10.829,-11.1958,-11.2752,-11.7675,-12.1143,-12.1824,-12.1824,-12.2107,-12.2615,-12.497,-12.7764,-13.0356,-13.3159,-13.5787,-13.8444,-14.2144,-14.4003,-14.4447,-14.7985,-14.9906,-15.0267,-15.3008,-15.7435,-16.3015,-16.6306,-16.8698,-17.0568,-17.5279,-17.7298,-17.7291,-17.768,-17.7787,-17.7916,-17.8809,-17.9143,-17.9287,-17.9795,-18.0033,-18.0033,-18.0033,-18.0033,-18.0033,-18.0033,-18.0033,-18.0033,-18.0033,-18.0033,-18.0033,-18.0033,-18.0033,-18.0033,-18.0033,-18.0033,-18.0033,-18.0033,-18.0033,-18.0033,-18.0033,-18.0033,-17.9877,-17.9418,-17.9392,-17.9237,-17.8781,-18.0447,-18.2113,-18.3013,-18.229,-18.1431,-18.0595,-17.939,-17.8367,-17.7577,-17.7775,-17.77,-17.7414,-17.7291,-17.5877,-17.2587,-17.2437,-17.0867,-16.7502,-16.7352,-16.7352,-16.7352,-16.7352,-16.7352,-16.7352,-16.7352,-16.6679,-16.5483,-16.5483,-16.5259,-2.3665,-3.0186,-3.4365,-4.1977,-5.1115,-6.0525,-6.9689,-7.4144,-7.7831,-8.2272,-9.0881,-9.8541,-10.1941,-10.3372,-10.4404,-10.5053,-10.5771,-10.6625,-10.7881,-11.2206,-11.5904,-11.7675,-12.0629,-12.2615,-12.2615,-12.3775,-12.4594,-12.4594,-12.8386,-13.1349,-13.2583,-13.517,-13.7185,-13.8619,-14.2458,-14.4447,-14.4447,-14.8245,-15.0267,-15.0267,-15.2148,-15.4756,-15.8122,-16.1879,-16.5857,-17.0194,-17.5129,-17.7298,-17.7291,-17.7719,-17.8013,-17.8292,-17.8939,-17.9392,-17.9619,-17.9879,-18.0033,-18.0033,-18.0033,-18.0033,-18.0033,-18.0033,-18.0033,-18.0033,-18.0033,-18.0033,-18.0033,-18.0033,-18.0033,-18.0033,-18.0033,-18.0033,-18.0033,-18.0033,-18.0033,-17.9955,-17.9619,-17.9611,-17.9494,-17.9015,-17.889,-17.8837,-17.8701,-17.9807,-18.0943,-18.1504,-18.1075,-18.0246,-17.8957,-17.8226,-17.7719,-17.7291,-17.7467,-17.7455,-17.7298,-17.7298,-17.5877,-17.2587,-17.2437,-17.0867,-16.7502,-16.7352,-16.7352,-16.7352,-16.7352,-16.6979,-16.6156,-16.6156,-16.5333,-16.3763,-16.466,-16.4586,-3.1771,-3.8033,-3.9912,-4.1999,-5.1237,-6.1703,-6.9447,-7.6316,-8.1994,-8.4888,-9.406,-10.1786,-10.3024,-10.4787,-10.5894,-10.5876,-10.7401,-10.971,-11.2259,-11.561,-11.8555,-12.1313,-12.2339,-12.3073,-12.345,-12.5641,-12.7078,-12.7408,-13.1742,-13.4548,-13.4548,-13.7185,-13.8793,-13.918,-14.2547,-14.4594,-14.5029,-14.8572,-15.0267,-15.0267,-15.1796,-15.3085,-15.4039,-15.7455,-16.2824,-16.9671,-17.498,-17.7298,-17.7291,-17.7809,-17.8284,-17.8734,-17.9219,-17.9619,-18.0033,-18.0033,-18.0033,-18.0033,-18.0033,-18.0033,-18.0033,-18.0033,-18.0033,-18.0033,-18.0033,-18.0033,-18.0033,-18.0033,-18.0033,-18.0033,-18.0033,-18.0033,-17.9957,-17.9881,-17.9803,-17.9702,-17.9237,-17.9104,-17.8939,-17.8522,-17.8448,-17.8486,-17.8367,-17.9648,-18.0459,-17.9453,-17.9528,-17.9107,-17.744,-17.7298,-17.7298,-17.7298,-17.7298,-17.7298,-17.7298,-17.7298,-17.5877,-17.2587,-17.2437,-17.0867,-16.7502,-16.7352,-16.7352,-16.7352,-16.7053,-16.6231,-16.5034,-16.466,-16.3614,-16.1968,-16.3688,-16.3763,-3.3338,-3.8303,-4.0876,-4.8491,-5.1955,-5.6765,-6.8082,-7.7704,-8.6056,-9.3331,-9.5386,-9.8752,-10.7134,-10.6757,-10.6245,-10.9948,-11.1481,-11.2506,-11.2752,-11.561,-11.7798,-11.8088,-12.1776,-12.4846,-12.6106,-12.7495,-12.8892,-13.0079,-13.2968,-13.4548,-13.4548,-13.7185,-13.9351,-14.1251,-14.3318,-14.5316,-14.705,-14.9148,-15.0267,-15.0267,-15.269,-15.3859,-15.4039,-15.5438,-16.0343,-16.7951,-17.4456,-17.7298,-17.7358,-17.8197,-17.8633,-17.869,-17.9592,-17.9957,-18.0033,-18.0033,-18.0033,-18.0033,-18.0033,-18.0033,-18.0033,-18.0033,-18.0033,-18.0033,-18.0033,-18.0033,-18.0033,-18.0033,-18.0033,-18.0033,-18.0033,-18.0033,-17.9881,-17.9426,-17.9315,-17.9143,-17.8751,-17.8734,-17.8522,-17.8013,-17.7991,-17.7862,-17.7467,-17.9969,-18.0956,-17.7971,-17.7515,-17.744,-17.7298,-17.7298,-17.7298,-17.7298,-17.7298,-17.7298,-17.7298,-17.7298,-17.5877,-17.2587,-17.2437,-17.0867,-16.7502,-16.7352,-16.7352,-16.7352,-16.6006,-16.5184,-16.5034,-16.3464,-16.1819,-16.0249,-16.1968,-16.2641,-3.2856,-4.1578,-4.2615,-3.9458,-4.5834,-5.4282,-5.9732,-6.4076,-7.1666,-8.676,-9.3563,-9.8293,-10.2808,-10.5132,-10.6438,-10.6555,-11.1558,-11.561,-11.561,-11.8611,-12.1486,-12.4036,-12.5144,-12.6886,-12.9963,-13.135,-13.2683,-13.4108,-13.6055,-13.7331,-13.8177,-13.9616,-14.0664,-14.1506,-14.4594,-14.6643,-14.7318,-14.9273,-15.0667,-15.1432,-15.2459,-15.3583,-15.4976,-15.6337,-16.0752,-16.7502,-17.0194,-17.3559,-17.7358,-17.8241,-17.8751,-17.9061,-17.9708,-18.0033,-18.0033,-18.0033,-18.0033,-18.0033,-18.0033,-18.0033,-18.0033,-18.0033,-18.0033,-18.0033,-18.0033,-18.0033,-18.0033,-18.0033,-18.0033,-18.0033,-18.0033,-18.0033,-17.9879,-17.9307,-17.924,-17.8985,-17.8332,-17.8197,-17.8013,-17.7562,-17.7517,-17.7467,-17.7291,-17.9167,-17.9915,-17.7597,-17.812,-17.842,-17.7447,-17.7298,-17.7298,-17.7298,-17.7298,-17.7298,-17.7298,-17.7298,-17.5877,-17.2587,-17.2437,-17.0867,-16.7502,-16.7352,-16.6904,-16.6006,-16.5333,-16.4062,-16.1968,-16.1295,-16.0622,-16.0024,-16.1669,-16.3015,-2.928,-3.8013,-3.9467,-3.4084,-3.9959,-4.8684,-5.4377,-5.5702,-6.1514,-8.1725,-9.1021,-9.6603,-9.9468,-10.3127,-10.5348,-10.5028,-11.2559,-11.868,-11.902,-12.1934,-12.5068,-12.8372,-12.856,-12.9779,-13.3551,-13.4557,-13.5568,-13.7143,-13.8129,-13.9362,-14.0913,-14.1364,-14.2076,-14.325,-14.5882,-14.7653,-14.8245,-14.9591,-15.0899,-15.222,-15.2561,-15.3949,-15.6263,-15.7233,-16.0922,-16.6679,-16.7203,-17.0922,-17.6855,-17.7956,-17.8721,-17.9271,-17.9795,-18.0033,-18.0033,-18.0033,-18.0033,-18.0033,-18.0033,-18.0033,-18.0033,-18.0033,-18.0033,-18.0033,-18.0033,-18.0033,-18.0033,-18.0033,-18.0033,-18.0033,-18.0033,-18.0033,-17.9874,-17.9219,-17.9061,-17.8809,-17.7891,-17.7719,-17.7622,-17.7358,-17.7298,-17.7298,-17.7298,-17.9093,-17.9766,-17.7597,-17.9093,-17.9691,-17.7522,-17.7298,-17.7298,-17.7298,-17.7298,-17.7298,-17.7298,-17.7298,-17.5877,-17.2587,-17.2437,-17.0867,-16.7502,-16.6904,-16.6156,-16.5034,-16.4062,-16.2342,-15.9949,-15.9501,-15.9501,-16.0024,-16.1669,-16.3389,-2.1911,-2.5312,-2.9791,-3.6131,-3.5821,-3.8391,-5.4458,-5.6915,-6.1507,-8.1908,-8.876,-9.284,-9.9183,-10.0615,-10.2556,-10.7617,-11.5352,-12.1161,-12.2441,-12.4812,-12.7047,-12.8526,-13.103,-13.3676,-13.6407,-13.6597,-13.7087,-13.8509,-13.8619,-13.9522,-14.1412,-14.1506,-14.325,-14.7184,-14.7318,-14.8245,-15.0148,-15.0339,-15.0899,-15.222,-15.3396,-15.5211,-15.7631,-15.7631,-16.0323,-16.5184,-16.6679,-17.0467,-17.5632,-17.7213,-17.8448,-17.9271,-17.9795,-18.0033,-18.0033,-18.0033,-18.0033,-18.0033,-18.0033,-18.0033,-18.0033,-18.0033,-18.0033,-18.0033,-18.0033,-18.0033,-18.0033,-18.0033,-18.0033,-18.0033,-18.0033,-18.0033,-17.9784,-17.8885,-17.8591,-17.8408,-17.7467,-17.7298,-17.7298,-17.7298,-17.7298,-17.7298,-17.7298,-17.999,-18.1037,-17.7747,-18.0065,-18.0962,-17.7672,-17.7298,-17.7298,-17.7298,-17.7298,-17.7298,-17.7298,-17.7298,-17.5877,-17.2587,-17.2437,-17.0867,-16.7502,-16.5857,-16.5034,-16.5034,-16.1744,-16.0024,-15.9949,-15.8454,-15.8454,-16.0024,-16.1669,-16.3389,-1.2775,-2.641,-3.8261,-3.4275,-3.5341,-4.0862,-5.4343,-5.8211,-6.1358,-6.9995,-7.8069,-8.6537,-9.5232,-10.3246,-10.8891,-11.0224,-11.621,-12.1415,-12.3757,-12.5387,-12.8825,-13.5005,-13.4609,-13.5767,-14.0509,-13.9191,-13.8522,-14.0,-14.0326,-14.123,-14.2921,-14.4552,-14.6022,-14.7318,-14.87,-14.9591,-15.0339,-15.1169,-15.2148,-15.3396,-15.4561,-15.6047,-15.7631,-15.7631,-16.0323,-16.5109,-16.6679,-17.0467,-17.5682,-17.7604,-17.8721,-17.9271,-17.9795,-18.0033,-18.0033,-18.0033,-18.0033,-18.0033,-18.0033,-18.0033,-18.0033,-18.0033,-18.0033,-18.0033,-18.0033,-18.0033,-18.0033,-18.0033,-18.0033,-18.0033,-18.0033,-17.9708,-17.9287,-17.8797,-17.8332,-17.7941,-17.7414,-17.7298,-17.7298,-17.7298,-17.7298,-17.7298,-17.7298,-17.812,-17.8494,-17.7447,-17.812,-17.842,-17.7447,-17.7298,-17.7298,-17.7298,-17.7298,-17.7298,-17.7298,-17.7298,-17.5877,-17.2587,-17.1316,-16.9222,-16.5932,-16.5259,-16.3913,-16.1595,-16.0548,-15.9426,-15.8379,-15.8977,-16.0099,-16.1744,-16.3464,-16.5109,-0.8345,-2.2136,-3.4394,-3.182,-3.2648,-3.7728,-5.1075,-5.4757,-5.7034,-6.3276,-7.0415,-7.8443,-8.8236,-9.952,-10.7563,-10.8077,-11.4137,-12.0326,-12.4188,-12.7041,-13.1191,-13.8197,-13.7344,-13.7866,-14.2384,-14.0263,-13.9296,-14.0886,-14.1297,-14.2482,-14.4852,-14.6509,-14.7653,-14.8374,-14.9591,-15.0267,-15.0267,-15.1542,-15.279,-15.3949,-15.5674,-15.6899,-15.7631,-15.823,-16.0548,-16.4212,-16.7128,-17.079,-17.5071,-17.7578,-17.8991,-17.9516,-17.9877,-18.0033,-18.0033,-18.0033,-18.0033,-18.0033,-18.0033,-18.0033,-18.0033,-18.0033,-18.0033,-18.0033,-18.0033,-18.0033,-18.0033,-18.0033,-18.0033,-18.0033,-18.0033,-17.9155,-17.8366,-17.8614,-17.7755,-17.7003,-17.7274,-17.7298,-17.7298,-17.7298,-17.7298,-17.7298,-17.7298,-17.7821,-17.8046,-17.7373,-17.7821,-17.7971,-17.7373,-17.7298,-17.7298,-17.7298,-17.7298,-17.7298,-17.7298,-17.67,-17.5204,-17.2587,-17.0194,-16.7726,-16.5184,-16.3838,-16.2118,-16.0024,-15.9426,-15.8603,-15.7631,-15.9202,-16.0847,-16.2492,-16.4212,-16.5857,-0.7708,-1.4086,-2.1066,-2.9372,-2.9483,-3.1716,-4.637,-4.8519,-5.0204,-6.0707,-6.4452,-6.9054,-7.9231,-9.0729,-9.9926,-10.3881,-11.0385,-11.7459,-12.3618,-12.8762,-13.3412,-13.8197,-13.8646,-13.9802,-14.2743,-14.0549,-13.9795,-14.1506,-14.1826,-14.3553,-14.7184,-14.7521,-14.8374,-15.0148,-15.0267,-15.0267,-15.0267,-15.1651,-15.2889,-15.4127,-15.6552,-15.7631,-15.7706,-15.9276,-16.0908,-16.284,-16.7854,-17.1415,-17.4042,-17.7372,-17.92,-18.0033,-18.0033,-18.0033,-18.0033,-18.0033,-18.0033,-18.0033,-18.0033,-18.0033,-18.0033,-18.0033,-18.0033,-18.0033,-18.0033,-18.0033,-18.0033,-18.0033,-18.0033,-17.9957,-17.9881,-17.832,-17.7056,-17.8009,-17.6731,-17.5595,-17.675,-17.6924,-17.6924,-17.6924,-17.6999,-17.7148,-17.7148,-17.8494,-17.9093,-17.7672,-17.8719,-17.9093,-17.7672,-17.7373,-17.7298,-17.7298,-17.7298,-17.7298,-17.7298,-17.5877,-17.4082,-17.2213,-16.8998,-16.6455,-16.4735,-16.1669,-15.9949,-15.98,-15.8379,-15.7706,-15.7856,-15.9426,-16.0996,-16.2716,-16.4436,-16.6006,-0.7387,-1.3567,-2.0414,-2.8244,-3.6983,-4.4721,-4.8957,-5.2217,-5.4281,-5.4427,-5.7634,-6.2532,-7.0761,-8.2027,-9.5395,-11.2377,-11.0451,-11.0687,-12.2031,-12.4815,-12.8378,-13.5446,-13.8054,-14.0724,-14.4744,-14.3835,-14.3318,-14.3704,-14.5173,-14.6299,-14.7318,-14.8826,-14.9713,-15.0267,-15.0267,-15.0267,-15.0267,-15.2386,-15.4127,-15.529,-15.6899,-15.7631,-15.7706,-15.9276,-16.1054,-16.3242,-16.8205,-17.1826,-17.4495,-17.7772,-17.9481,-18.0033,-18.0033,-18.0033,-18.0033,-18.0033,-18.0033,-18.0033,-18.0033,-18.0033,-18.0033,-18.0033,-18.0033,-18.0033,-18.0033,-18.0033,-18.0033,-18.0033,-18.0033,-17.9729,-17.8438,-17.7178,-17.5996,-17.4994,-17.3924,-17.322,-17.3476,-17.3559,-17.3559,-17.3559,-17.4531,-17.5354,-17.5354,-17.6774,-17.8195,-17.9093,-17.842,-17.8195,-17.9093,-17.8046,-17.7298,-17.7298,-17.7298,-17.7298,-17.7298,-17.6924,-17.4382,-16.8923,-16.6679,-16.4287,-16.1295,-16.0398,-15.9426,-15.823,-15.7856,-15.823,-15.9426,-16.1071,-16.2791,-16.4511,-16.6081,-16.7053,-1.1801,-1.8922,-2.5082,-2.48,-3.0779,-3.7605,-4.2,-4.5443,-4.7532,-4.8005,-5.0132,-5.553,-6.6181,-7.2709,-8.2502,-10.0588,-10.4291,-10.9064,-12.0155,-12.6124,-13.164,-13.717,-13.9943,-14.2432,-14.5584,-14.5024,-14.474,-14.5742,-14.678,-14.7784,-14.8629,-14.9713,-15.0267,-15.0267,-15.0267,-15.0622,-15.1169,-15.3085,-15.4561,-15.575,-15.703,-15.7631,-15.7706,-16.0099,-16.1842,-16.3408,-16.9149,-17.2658,-17.4624,-17.7846,-17.9562,-18.0033,-18.0033,-18.0033,-18.0033,-18.0033,-18.0033,-18.0033,-18.0033,-18.0033,-18.0033,-18.0033,-18.0033,-18.0033,-18.0033,-18.0033,-18.0033,-18.0033,-17.9426,-17.859,-17.7679,-17.5706,-17.3859,-17.3599,-17.2395,-17.1465,-17.2213,-17.2437,-17.2437,-17.2437,-17.311,-17.3933,-17.4681,-17.5503,-17.67,-17.842,-17.7896,-17.7597,-17.8494,-17.7821,-17.7298,-17.7298,-17.7298,-17.7298,-17.7298,-17.655,-17.4307,-16.997,-16.7427,-16.4287,-16.0174,-15.9276,-15.8529,-15.7631,-15.8379,-15.9127,-15.9949,-16.2492,-16.4137,-16.5109,-16.6679,-16.7352,-1.7126,-2.3941,-2.9409,-2.2686,-2.2798,-2.6691,-3.44,-3.7035,-3.9068,-4.3004,-4.4941,-5.012,-6.2717,-6.5526,-6.9841,-8.2364,-9.6281,-10.9057,-11.8366,-12.8729,-13.6561,-14.0057,-14.2668,-14.512,-14.6839,-14.6281,-14.6439,-14.8004,-14.7925,-14.8502,-15.0148,-15.0267,-15.0267,-15.0267,-15.0267,-15.0942,-15.2459,-15.3396,-15.4645,-15.6047,-15.717,-15.7631,-15.7781,-16.0996,-16.2742,-16.3453,-17.0172,-17.3558,-17.4642,-17.7983,-17.9577,-18.0033,-18.0033,-18.0033,-18.0033,-18.0033,-18.0033,-18.0033,-18.0033,-18.0033,-18.0033,-18.0033,-18.0033,-18.0033,-18.0033,-18.0033,-18.0033,-18.0033,-17.8742,-17.7375,-17.707,-17.4155,-17.1481,-17.2548,-17.109,-16.9895,-17.1316,-17.1615,-17.1615,-17.1615,-17.1839,-17.2512,-17.4157,-17.4606,-17.5428,-17.7373,-17.7447,-17.7373,-17.7597,-17.7447,-17.7298,-17.7298,-17.7298,-17.7298,-17.7298,-17.5728,-17.4082,-17.2512,-16.8998,-16.5034,-16.0548,-15.8828,-15.8005,-15.8005,-15.9276,-16.0249,-16.0772,-16.3614,-16.5184,-16.5408,-16.6754,-16.7352,-1.7128,-1.9262,-2.2584,-2.7795,-3.3627,-3.8585,-4.1059,-4.1669,-4.2461,-4.3995,-4.7263,-5.1744,-5.7402,-6.497,-7.1953,-7.6755,-9.1116,-10.5745,-11.7223,-12.4986,-13.1951,-13.8324,-14.3909,-14.8658,-15.2711,-15.2124,-15.1652,-15.197,-15.0689,-15.0027,-15.0267,-15.0267,-15.0267,-15.0267,-15.0267,-15.1432,-15.3676,-15.3859,-15.5131,-15.7371,-15.757,-15.7631,-15.7781,-16.0996,-16.2703,-16.3485,-17.059,-17.3948,-17.4642,-17.8363,-17.9957,-18.0033,-18.0033,-18.0033,-18.0033,-18.0033,-18.0033,-18.0033,-18.0033,-18.0033,-18.0033,-18.0033,-18.0033,-18.0033,-18.0033,-18.0033,-18.0033,-18.0033,-17.8742,-17.7068,-17.5319,-17.3028,-17.0885,-16.9359,-16.8313,-16.7801,-16.81,-16.8175,-16.8175,-16.8175,-16.9297,-17.0792,-17.2437,-17.3858,-17.5802,-17.8943,-17.8195,-17.7821,-17.9242,-17.8195,-17.7298,-17.7298,-17.7298,-17.7298,-17.7298,-17.5728,-17.4082,-17.2512,-16.7951,-16.4436,-16.2193,-16.0473,-15.965,-15.965,-15.9875,-16.137,-16.4287,-16.481,-16.5707,-16.7053,-16.7278,-16.7352,-1.718,-2.3159,-2.9951,-3.3634,-3.7928,-4.1137,-4.1638,-4.2853,-4.3742,-4.369,-4.5656,-5.0338,-5.9686,-6.4132,-6.8852,-7.5243,-8.423,-9.4923,-10.7349,-12.2442,-13.5022,-14.2196,-14.7195,-15.1178,-15.4053,-15.4181,-15.3692,-15.2836,-15.2051,-15.1266,-15.0339,-15.0267,-15.0267,-15.0267,-15.0267,-15.1724,-15.4812,-15.4894,-15.5825,-15.7631,-15.7631,-15.7631,-15.7781,-16.1058,-16.3389,-16.5151,-17.1152,-17.4664,-17.6236,-17.8894,-18.0033,-18.0033,-18.0033,-17.9426,-17.8742,-17.9653,-17.9426,-17.8666,-17.8666,-17.9274,-18.0033,-18.0033,-18.0033,-18.0033,-18.0033,-18.0033,-17.9805,-17.8894,-17.7451,-17.5625,-17.3549,-17.1465,-16.9565,-16.8396,-16.7806,-16.7352,-16.7352,-16.7352,-16.7352,-16.7352,-16.8025,-16.9072,-17.0792,-17.1615,-17.2961,-17.5428,-17.5877,-17.6176,-17.6999,-17.7223,-17.694,-17.6201,-17.6124,-17.6124,-17.6124,-17.3196,-17.0928,-17.0187,-16.5596,-16.2559,-16.1819,-15.9301,-15.8643,-16.0269,-16.1862,-16.3464,-16.5034,-16.5932,-16.6679,-16.7352,-16.7352,-16.7352,-2.1202,0.0,-3.9388,-3.9352,-4.0657,-4.1613,0.0,-4.2444,-4.3527,-4.2404,-4.5333,-5.1638,-6.2753,-6.4352,-6.6849,-7.5898,-8.1347,-8.8705,-10.1638,-12.0814,-13.7219,-14.6699,-15.0678,-15.3212,-15.5237,-15.5574,-15.5119,-15.3906,-15.3193,-15.2194,-15.0981,-15.0765,-15.0667,-15.0667,-15.1042,-15.259,-15.5674,-15.5674,-15.6392,-15.7631,-15.7631,-15.7631,-15.7781,-16.1507,-16.4313,-16.6318,-17.2012,-17.5617,-17.7451,-17.9274,-18.0033,-18.0033,-18.0033,-17.897,-17.7603,-17.8894,-17.8363,-17.6844,-17.6844,-17.7755,-17.8818,-17.8818,-17.9122,-17.9426,-17.9426,-17.9426,-17.9046,-17.7375,-17.5401,-17.342,-17.1593,-16.9596,-16.8018,-16.7528,-16.7334,-16.7352,-16.7352,-16.7352,-16.7352,-16.7352,-16.7352,-16.7876,-16.9596,-16.9521,-16.997,-17.2063,-17.3131,-17.3812,-17.426,-17.5458,-17.5894,-17.4753,-17.4664,-17.4664,-17.4664,-17.0526,-16.8026,-16.8324,-16.4217,-16.1577,-16.121,-15.8696,-15.845,-16.0491,-16.3243,-16.4766,-16.5034,-16.6605,-16.7352,-16.7352,-16.7352,-16.7352,0.0,-4.009,-4.3977,-4.411,-4.4191,-4.3608,-4.1587,-4.1059,0.0,-4.113,-5.0602,-6.0191,-6.4109,-6.6157,-6.9815,-7.8497,-8.6754,-9.626,-10.7844,-11.9836,-13.3319,-14.9112,-15.2906,-15.5244,-15.8177,-15.7831,-15.7242,-15.717,-15.4406,-15.2693,-15.2622,-15.2296,-15.2009,-15.2009,-15.3112,-15.4348,-15.5654,-15.5715,-15.6313,-15.7631,-15.7631,-15.7631,-15.7781,-16.305,-16.5521,-16.6091,-17.3451,-17.6764,-17.7072,-17.9122,-18.0033,-18.0033,-18.0033,-17.897,-17.7527,-17.7603,-17.6616,-17.5097,-17.5097,-17.5173,-17.5325,-17.5325,-17.6388,-17.7679,-17.7679,-17.7679,-17.7299,-17.5629,-17.2895,-17.0223,-16.9243,-16.7655,-16.6171,-16.5385,-16.6369,-16.7352,-16.7352,-16.7352,-16.7352,-16.7352,-16.7352,-16.7876,-16.9596,-16.8624,-16.8624,-17.1914,-17.136,-17.1178,-17.2735,-17.3251,-17.3439,-17.3339,-17.3266,-17.3266,-17.3266,-16.9161,-16.7014,-16.8226,-16.5244,-16.275,-16.121,-16.099,-16.0731,-16.0565,-16.2352,-16.3844,-16.5034,-16.6605,-16.7352,-16.7352,-16.7352,-16.7352,-4.0228,-4.3239,-4.4501,-4.4518,-4.4463,-4.4191,-4.333,-4.2155,-4.395,-5.3848,-5.808,-6.1053,-6.4366,-6.7176,-7.287,-8.4384,-8.9128,-9.4492,-10.4066,-11.8527,-13.2468,-14.3988,-15.1914,-15.7102,-15.916,-15.9884,-15.9366,-15.7294,-15.676,-15.5698,-15.3565,-15.3371,-15.3636,-15.4333,-15.56,-15.6482,-15.6958,-15.6958,-15.7183,-15.7631,-15.7631,-15.8155,-15.9263,-16.3649,-16.6947,-16.9443,-17.4608,-17.7603,0.0,-17.9653,-18.0033,-18.0033,-18.0033,-17.8363,-17.6009,-17.7072,-17.5705,-17.3351,-17.3351,-17.4718,-17.6312,-17.5325,-17.6844,-17.9046,-17.9046,-17.8287,-17.692,-17.4186,-17.1756,-16.9388,-16.6313,-16.5127,-16.4736,-16.4951,-16.5483,-16.6156,-16.7128,-16.7352,-16.7352,-16.7352,-16.7352,-16.7577,-16.8175,-16.7106,-16.6895,-16.9126,-16.9278,-16.9656,-17.1276,-17.251,-17.2931,-17.2037,-17.1925,-17.1586,-17.0788,-16.8178,-16.6884,-16.7347,-16.4461,-16.244,-16.1747,-15.9914,-16.0001,-16.244,-16.2087,-16.3454,-16.653,-16.7053,-16.7352,-16.7352,-16.7352,-16.6871,-4.7787,-4.9813,-5.0306,-5.0731,-5.0866,-5.0917,-5.0985,-4.9685,-5.108,-5.9337,-6.144,-6.2068,-6.3074,-6.6144,-7.1845,-8.1976,-8.7185,-9.2057,-9.7647,-11.5056,-13.1141,-14.16,-15.1137,-15.7487,-15.9288,-16.1169,-16.1367,-15.9152,-15.8847,-15.7829,-15.5638,-15.4902,-15.5068,-15.63,-15.7183,-15.7631,-15.7631,-15.7631,-15.7631,-15.7631,-15.7631,-15.8814,-16.0969,-16.4786,-16.8587,-17.2288,-17.6161,-17.8666,-18.0033,-18.0033,-18.0033,-18.0033,-18.0033,-17.7907,-17.5097,-17.6236,-17.4566,-17.1756,-17.2212,-17.3958,-17.5781,-17.5173,-17.654,-17.8514,-17.9046,-17.8363,-17.6996,-17.4642,-17.1756,-16.8325,-16.4041,-16.2934,-16.2999,-16.3378,-16.4287,-16.5333,-16.638,-16.7053,-16.7352,-16.7352,-16.7352,-16.7288,-16.6803,-16.563,-16.5226,-16.6962,-16.7051,-16.7689,-16.9807,-17.1055,-17.1586,-17.0739,-17.0617,-17.0191,-16.9238,-16.7677,-16.675,-16.675,-16.4324,-16.2683,-16.2183,-16.0473,-16.0864,-16.363,-16.2922,-16.4115,-16.7352,-16.7014,-16.6803,-16.6733,-16.6373,-16.5694,-5.6737,-6.1278,-6.297,-6.4528,-6.4973,-6.4863,-6.4957,-6.4808,-6.2738,-5.4786,-5.9408,-6.4015,-6.0736,-6.2739,-6.6232,-6.9728,-8.1253,-9.0067,-9.0221,-10.8935,-12.8504,-14.3498,-15.1201,-15.619,-15.8347,-16.1653,-16.3623,-16.3623,-16.0679,-15.8861,-15.8861,-15.6858,-15.63,-15.7631,-15.7631,-15.7631,-15.7631,-15.7631,-15.7631,-15.7631,-15.7631,-15.9412,-16.269,-16.6818,-17.0585,-17.4034,-17.8211,-18.0033,-18.0033,-18.0033,-18.0033,-18.0033,-18.0033,-17.7907,-17.4946,-17.4946,-17.2895,-17.0314,-17.1908,-17.244,-17.2744,-17.4414,-17.5022,-17.5325,-17.6996,-17.7527,-17.7527,-17.7451,-17.2744,-16.6655,-16.2476,-16.1345,-16.1111,-16.023,-16.2567,-16.5034,-16.5034,-16.6306,-16.7352,-16.7352,-16.7352,-16.6871,-16.562,-16.4127,-16.3794,-16.5707,-16.4795,-16.5026,-16.8326,-16.9004,-16.9104,-16.9104,-16.9104,-16.9104,-16.9104,-16.7677,-16.6821,-16.6821,-16.5323,-16.3824,-16.2255,-16.3313,-16.396,-16.3704,-16.4808,-16.6002,-16.7288,-16.6002,-16.5461,-16.5381,-16.419,-16.363,-5.8938,-6.3973,-6.7682,-6.6811,-6.6653,-6.6592,-6.6326,-6.5636,-6.4611,-6.2946,-6.3934,-6.5052,-6.5283,-6.9569,-7.5611,-8.2839,-8.7504,-9.3448,-10.332,-12.3339,-14.0465,-14.9955,-15.3983,-15.7158,-16.0437,-16.2536,-16.3498,-16.3277,-16.3251,-16.2126,-15.9743,-15.9044,-15.8854,-15.9263,-15.823,-15.7631,-15.7631,-15.7631,-15.8155,-15.9337,-15.9337,-16.1643,-16.6031,-16.9147,-17.2312,-17.5553,-17.8666,-18.0033,-18.0033,-18.0033,-18.0033,-18.0033,-18.0033,-17.7907,-17.4946,-17.4946,-17.2895,-17.0314,-17.1908,-17.3199,-17.449,-17.6161,-17.7527,-17.859,-17.9122,-17.9274,-17.9046,-17.7831,-17.5173,-17.1679,-16.6941,-16.263,-15.9902,-16.1429,-16.2492,-16.3913,-16.6156,-16.7053,-16.7352,-16.7352,-16.6588,-16.5926,-16.5541,-16.4521,-16.4385,-16.6069,-16.6074,-16.6614,-16.8691,-16.9085,-16.9104,-16.9104,-16.9104,-16.9104,-16.9104,-16.8676,-16.8462,-16.8462,-16.6964,-16.5893,-16.5394,-16.3694,-16.3097,-16.3852,-16.3218,-16.3534,-16.4722,-16.4371,-16.419,-16.419,-16.382,-16.363,-6.4279,-6.8905,-7.2127,-7.0684,-6.9959,-6.8961,-6.6865,-6.6189,-6.6288,-6.7792,-6.8964,-7.0501,-7.278,-7.8839,-8.5133,-9.0267,-9.3141,-10.1283,-12.0217,-13.5405,-14.7015,-15.3207,-15.6439,-15.9532,-16.2876,-16.4363,-16.5045,-16.4821,-16.496,-16.4137,-16.2118,-16.1992,-16.1394,-16.0024,-15.9052,-15.8304,-15.7631,-15.7631,-15.808,-15.9113,-15.965,-16.269,-16.7814,-17.0119,-17.3444,-17.7451,-17.9198,-18.0033,-18.0033,-18.0033,-18.0033,-18.0033,-18.0033,-17.7907,-17.4946,-17.4946,-17.3275,-17.1225,-17.2895,-17.4566,-17.6236,-17.7907,-17.9198,-18.0033,-18.0033,-18.0033,-17.9805,-17.8742,-17.6768,-17.3958,-16.9706,-16.4705,-16.0769,-16.0661,-16.152,-16.3015,-16.5034,-16.6455,-16.7222,-16.6659,-16.5926,-16.5283,-16.4908,-16.4385,-16.4665,-16.6265,-16.6686,-16.7321,-16.8962,-16.9104,-16.9104,-16.9104,-16.9104,-16.9104,-16.9104,-16.9104,-16.9104,-16.9104,-16.8248,-16.7392,-16.6821,-16.4895,-16.3841,-16.3983,-16.298,-16.284,-16.363,-16.3142,-16.2913,-16.2913,-16.2394,-16.2073,-7.1355,-7.5057,-7.6326,-7.5688,-7.4315,-7.2294,-6.8345,-6.8058,-6.9181,-7.0576,-7.4634,-7.8868,-8.1965,-8.8776,-9.4038,-9.4395,-9.9921,-11.2789,-13.7152,-14.4678,-14.941,-15.4198,-15.8629,-16.2463,-16.5161,-16.6615,-16.7352,-16.7352,-16.6017,-16.5269,-16.5269,-16.512,-16.3625,-16.056,-16.0112,-15.9364,-15.808,-15.7781,-15.7856,-15.8304,-15.965,-16.3078,-16.8488,-17.0572,-17.4292,-17.9046,-17.9729,-18.0033,-18.0033,-18.0033,-18.0033,-17.9957,-17.9805,-17.7755,-17.4946,-17.4794,-17.3731,-17.2668,-17.4338,-17.6085,-17.7755,-17.9426,-18.0033,-18.0033,-18.0033,-18.0033,-18.0033,-18.0033,-17.7755,-17.4642,-17.1299,-16.7497,-16.3448,-15.9142,-16.0235,-16.2342,-16.2641,-16.5034,-16.679,-16.562,-16.5455,-16.5212,-16.4252,-16.4273,-16.492,-16.6513,-16.6892,-16.7463,-16.8962,-16.9104,-16.9104,-16.9104,-16.9104,-16.9104,-16.9104,-16.9104,-16.9104,-16.9104,-16.9104,-16.8462,-16.7035,-16.6431,-16.5605,-16.4159,-16.3583,-16.334,-16.334,-16.2073,-16.1483,-16.1483,-16.0361,-15.9757,-7.5977,-7.7889,-7.9222,-7.8954,-7.8825,-7.8102,-7.6462,-7.6726,-7.752,-7.6941,-8.0341,-8.3884,-8.5487,-9.3006,-10.031,-10.4607,-11.5006,-12.62,-13.6521,-14.5588,-15.244,-15.5912,-16.0089,-16.3441,-16.5252,-16.6653,-16.7352,-16.7352,-16.7053,-16.6904,-16.6904,-16.5718,-16.4746,-16.3999,-16.1383,-16.0411,-16.1445,-15.8903,-15.9576,-16.3452,-16.2765,-16.5085,-17.0012,-17.2514,-17.5047,-17.7527,-17.9274,-18.0033,-18.0033,-18.0033,-18.0033,-17.9881,-17.8514,-17.6768,-17.4794,-17.3427,-17.2744,-17.2668,-17.4338,-17.6085,-17.7755,-17.9426,-18.0033,-18.0033,-18.0033,-18.0033,-18.0033,-18.0033,-17.9501,-17.8057,-17.442,-17.1534,-16.8355,-16.3211,-16.1186,-16.1221,-16.3913,-16.5034,-16.5521,-16.5397,-16.5668,-16.5513,-16.4248,-16.528,-16.6285,-16.681,-16.782,-16.8748,-16.9104,-16.9104,-16.9104,-16.9104,-16.9104,-16.9104,-16.9104,-16.9104,-16.9104,-16.9104,-16.9104,-16.8962,-16.8676,-16.6214,-16.4696,-16.4338,-16.1918,-16.0653,-16.0653,-16.0361,-16.0115,-16.0187,-15.9884,-15.9757,-8.0653,-8.3291,-8.5349,-8.4324,-8.412,-8.3353,-8.0928,-8.0561,-8.1147,-8.1652,-8.4356,-8.7944,-9.2154,-9.8794,-10.6526,-11.5158,-12.4728,-13.391,-14.2194,-14.9667,-15.5638,-15.9356,-16.2433,-16.4807,-16.6224,-16.7014,-16.7352,-16.7352,-16.7352,-16.7352,-16.7352,-16.6605,-16.5793,-16.5045,-16.3326,-16.2429,-16.2492,-16.0847,-16.1221,-16.3826,-16.3975,-16.6001,-16.9732,-17.275,-17.5189,-17.7299,-17.9198,-18.0033,-18.0033,-18.0033,-18.0033,-17.9881,-17.9046,-17.7679,-17.5933,-17.4262,-17.4186,-17.487,-17.4946,-17.6616,-17.8818,-17.9729,-18.0033,-18.0033,-18.0033,-18.0033,-18.0033,-18.0033,-18.0033,-17.9118,-17.5356,-17.2777,-17.0053,-16.5382,-16.2648,-16.1894,-16.4511,-16.5633,-16.6057,-16.578,-16.5845,-16.5863,-16.5377,-16.6256,-16.7035,-16.782,-16.8605,-16.9104,-16.9104,-16.9104,-16.9104,-16.9104,-16.9104,-16.9104,-16.9104,-16.9104,-16.9104,-16.9104,-16.9104,-16.8819,-16.8034,-16.5751,-16.411,-16.3325,-16.097,-15.9757,-15.9757,-15.9757,-15.9757,-15.9757,-15.9757,-15.9757,-8.6217,-9.0067,-9.266,-9.1136,-9.0737,-8.9857,-8.5818,-8.4776,-8.5093,-8.6872,-8.877,-9.2102,-9.8852,-10.5477,-11.3216,-12.3437,-13.085,-13.8914,-14.8731,-15.3935,-15.833,-16.2565,-16.4655,-16.6225,-16.7288,-16.7352,-16.7352,-16.7352,-16.7352,-16.7352,-16.7352,-16.7352,-16.6754,-16.5483,-16.5483,-16.481,-16.3326,-16.2791,-16.2791,-16.3377,-16.4668,-16.6424,-16.8813,-17.2105,-17.4855,-17.7148,-17.8818,-17.9729,-18.0033,-18.0033,-18.0033,-17.9957,-17.9653,-17.8666,-17.7224,-17.5553,-17.6009,-17.7299,-17.5857,-17.7451,-18.0033,-18.0033,-18.0033,-18.0033,-18.0033,-18.0033,-18.0033,-18.0033,-18.0033,-17.9191,-17.5614,-17.3182,-17.0699,-16.6824,-16.4392,-16.324,-16.4361,-16.5857,-16.6663,-16.5791,-16.6027,-16.6385,-16.6399,-16.6821,-16.7606,-16.8962,-16.9104,-16.9104,-16.9104,-16.9104,-16.9104,-16.9104,-16.9104,-16.9104,-16.9104,-16.9104,-16.9033,-16.8748,-16.8748,-16.8034,-16.6464,-16.4895,-16.3468,-16.2183,-16.0613,-15.9757,-15.9757,-15.9757,-15.9757,-15.9757,-15.9757,-15.9757,-9.4689,-9.8127,-9.9567,-10.0458,-10.1237,-10.0741,-9.6637,-9.6487,-9.6638,-9.4752,-9.6352,-9.8852,-10.132,-11.1272,-12.0371,-12.4215,-13.4087,-14.3705,-15.0267,-15.4968,-15.9118,-16.2633,-16.5474,-16.7147,-16.7352,-16.7352,-16.7352,-16.7352,-16.7352,-16.7352,-16.7352,-16.7352,-16.7278,-16.7053,-16.7053,-16.6979,-16.6754,-16.3913,-16.3913,-16.6679,-16.6256,-16.696,-16.8801,-17.1424,-17.3575,-17.5401,-17.7072,-17.8666,-18.0033,-18.0033,-18.0033,-17.9881,-17.8363,-17.7679,-17.7224,-17.5553,-17.6009,-17.7451,-17.7224,-17.8363,-18.0033,-18.0033,-18.0033,-18.0033,-18.0033,-18.0033,-18.0033,-18.0033,-18.0033,-17.9334,-17.6617,-17.4647,-17.2365,-16.8125,-16.5846,-16.4361,-16.309,-16.4137,-16.5098,-16.4099,-16.6197,-16.7333,-16.5054,-16.7035,-16.889,-16.9104,-16.9104,-16.9104,-16.9104,-16.9104,-16.9104,-16.9104,-16.9104,-16.9104,-16.9104,-16.9104,-16.8534,-16.7178,-16.7106,-16.6393,-16.4823,-16.3253,-16.2326,-16.2112,-16.0613,-15.9757,-15.9757,-15.9757,-15.9757,-15.9757,-15.9757,-15.9757,-9.4677,-9.8877,-10.1799,-10.3904,-10.4537,-10.4577,-10.2717,-10.2222,-10.1642,-9.9676,-10.0675,-10.3225,-10.7048,-11.6509,-12.5392,-13.1153,-14.0908,-14.9438,-15.4689,-15.8376,-16.1745,-16.503,-16.6868,-16.7692,-16.7416,-16.7634,-16.7692,-16.7352,-16.7634,-16.7787,-16.7787,-16.7529,-16.7352,-16.7352,-16.7352,-16.7352,-16.7352,-16.5932,-16.6106,-16.7787,-16.7492,-16.7902,-16.9087,-17.1197,-17.2648,-17.3655,-17.5325,-17.6464,-17.7148,-17.7148,-17.7148,-17.7072,-17.6312,-17.6085,-17.5857,-17.4186,-17.5173,-17.7299,-17.6388,-17.7148,-17.859,-17.859,-17.9198,-18.0033,-18.0033,-18.0033,-18.0033,-18.0033,-18.0033,-17.941,-17.6792,-17.4918,-17.2932,-16.9583,-16.7577,-16.6156,-16.5408,-16.5782,-16.6193,-16.5852,-16.6466,-16.6823,-16.5841,-16.6892,-16.8105,-16.8962,-16.9104,-16.8462,-16.675,-16.6464,-16.6464,-16.6464,-16.6464,-16.6464,-16.6464,-16.6464,-16.6179,-16.5537,-16.5465,-16.4752,-16.3253,-16.254,-16.1755,-16.0827,-16.0114,-15.9757,-15.9757,-15.9757,-15.9757,-15.9757,-15.9757,-15.9757,-9.5143,-10.0517,-10.4649,-10.8394,-10.967,-10.9673,-10.901,-10.8013,-10.7233,-10.5956,-10.6678,-10.9188,-11.4689,-12.2257,-13.0229,-13.7679,-14.5772,-15.2778,-15.8012,-16.0576,-16.3297,-16.7154,-16.795,-16.8031,-16.7712,-16.8055,-16.8152,-16.7712,-16.8055,-16.826,-16.826,-16.798,-16.7675,-16.7589,-16.7589,-16.7467,-16.7352,-16.7352,-16.7634,-16.8104,-16.8347,-16.879,-16.9317,-17.0741,-17.1723,-17.2516,-17.3731,-17.4566,-17.4946,-17.4946,-17.4946,-17.4946,-17.4946,-17.4946,-17.4794,-17.3503,-17.4642,-17.6616,-17.487,-17.5401,-17.692,-17.7299,-17.8363,-17.9426,-17.9881,-18.0033,-17.9881,-17.9501,-17.9272,-17.8548,-17.5628,-17.3909,-17.2321,-16.9823,-16.825,-16.7352,-16.7352,-16.7352,-16.7352,-16.7352,-16.6336,-16.5644,-16.6386,-16.6271,-16.6607,-16.7749,-16.7963,-16.7106,-16.4752,-16.4466,-16.4466,-16.4466,-16.4466,-16.4466,-16.4466,-16.4466,-16.4252,-16.3896,-16.3824,-16.3182,-16.1612,-16.1541,-16.097,-15.9757,-15.9757,-15.9757,-15.9757,-15.9757,-15.9757,-15.9757,-15.9757,-15.9757,-10.0611,-10.625,-11.0192,-11.7754,-12.0666,-12.09,-11.789,-11.7176,-11.6696,-11.5318,-11.6157,-11.876,-12.3952,-12.9641,-13.5513,-14.1275,-14.6225,-15.1752,-15.8874,-15.9983,-16.2101,-16.7424,-16.8179,-16.826,-16.8658,-16.8725,-16.8725,-16.8692,-16.8725,-16.8725,-16.8725,-16.8692,-16.8475,-16.813,-16.813,-16.7897,-16.7352,-16.7352,-16.7634,-16.8104,-16.8937,-16.9301,-16.9317,-16.9914,-17.0997,-17.244,-17.2516,-17.3503,-17.4946,-17.4946,-17.4946,-17.4946,-17.4946,-17.4946,-17.4946,-17.487,-17.4946,-17.4794,-17.3123,-17.3655,-17.5325,-17.692,-17.7527,-17.7907,-17.9501,-18.0033,-17.9653,-17.8059,-17.7341,-17.6203,-17.2438,-17.1078,-17.0112,-16.7991,-16.7427,-16.7352,-16.7352,-16.7352,-16.7352,-16.7352,-16.5374,-16.429,-16.5855,-16.5156,-16.4609,-16.4681,-16.4681,-16.4609,-16.4466,-16.4466,-16.4466,-16.4466,-16.4466,-16.4466,-16.4466,-16.4466,-16.3824,-16.2326,-16.2255,-16.1541,-15.9971,-15.99,-15.9829,-15.9757,-15.9757,-15.9757,-15.9757,-15.9757,-15.9757,-15.9757,-15.9757,-15.9757,-9.9049,-10.4911,-10.9522,-11.8256,-12.0729,-12.1103,-12.0844,-12.0839,-12.0664,-12.0704,-12.1637,-12.3952,-12.8909,-13.4567,-14.0289,-14.5778,-15.0398,-15.4905,-15.9388,-15.9981,-16.1581,-16.6,-16.6729,-16.7378,-16.8607,-16.8241,-16.8413,-16.9551,-16.9283,-16.9109,-16.9109,-16.8833,-16.8692,-16.8513,-16.8513,-16.8396,-16.8228,-16.8228,-16.8314,-16.8513,-16.9064,-16.9464,-16.9838,-17.0008,-17.039,-17.0921,-17.0921,-17.1301,-17.1832,-17.1832,-17.1832,-17.1832,-17.1832,-17.1832,-17.1832,-17.1832,-17.244,-17.3123,-17.1453,-17.1984,-17.3427,-17.4034,-17.4946,-17.5933,-17.654,-17.6768,-17.6616,-17.6009,-17.5595,-17.4668,-17.1984,-17.0852,-16.9911,-16.7841,-16.7352,-16.7352,-16.7352,-16.7352,-16.7352,-16.7352,-16.5381,-16.385,-16.4437,-16.361,-16.3325,-16.4324,-16.2754,-16.147,-16.147,-16.147,-16.147,-16.147,-16.147,-16.147,-16.147,-16.147,-16.1184,-16.0685,-16.0613,-16.0328,-15.9757,-15.9757,-15.9757,-15.9757,-15.9757,-15.9757,-15.9757,-15.9757,-15.9757,-15.9757,-15.9757,-15.9757,-9.6222,-10.2601,-10.8605,-11.7996,-12.2188,-12.41,-12.5069,-12.565,-12.6156,-12.6557,-12.7177,-12.9278,-13.4098,-13.8553,-14.326,-14.893,-15.3151,-15.6712,-15.9526,-16.0564,-16.1985,-16.4641,-16.5852,-16.6894,-16.8199,-16.7836,-16.8036,-16.9175,-16.9453,-16.9562,-16.9562,-16.9359,-16.9064,-16.8888,-16.8964,-16.8909,-16.8758,-16.8758,-16.8745,-16.8888,-16.917,-16.9562,-17.0086,-17.0086,-17.0086,-17.0086,-17.0086,-17.0086,-17.0086,-17.0086,-17.0086,-17.0086,-17.0086,-17.0086,-17.0086,-17.0086,-17.0769,-17.1453,-17.0466,-17.0769,-17.1756,-17.2212,-17.3199,-17.4186,-17.4794,-17.4946,-17.4793,-17.41,-17.3625,-17.2853,-17.0774,-16.9798,-16.9063,-16.7704,-16.7352,-16.7352,-16.7352,-16.7014,-16.6659,-16.6659,-16.4722,-16.2942,-16.2942,-16.2079,-16.1684,-16.2754,-16.1113,-15.9757,-15.9757,-15.9757,-15.9757,-15.9757,-15.9757,-15.9757,-15.9757,-15.9757,-15.9757,-15.9757,-15.9757,-15.9757,-15.9757,-15.9757,-15.9757,-15.9757,-15.9757,-15.9757,-15.9757,-15.9757,-15.9757,-15.9757,-15.9757,-15.9757,-9.2752,-10.0428,-10.787,-11.787,-12.5334,-13.0351,-13.0554,-13.1721,-13.2888,-13.3092,-13.3161,-13.4868,-13.9698,-14.1681,-14.4485,-15.0747,-15.3942,-15.6638,-15.9526,-16.1684,-16.3176,-16.3626,-16.5449,-16.6808,-16.7352,-16.7428,-16.7504,-16.7504,-16.9023,-17.001,-17.001,-17.0086,-16.9844,-16.9333,-16.9333,-16.913,-16.879,-16.879,-16.899,-16.9333,-16.9333,-16.9562,-17.0086,-17.0086,-17.0086,-17.0086,-17.0086,-17.0086,-17.0086,-17.0086,-17.0086,-17.0086,-17.0086,-17.0086,-17.0086,-17.0086,-17.0086,-17.0086,-17.0086,-17.0086,-17.0314,-17.1832,-17.2364,-17.2668,-17.4338,-17.4794,-17.441,-17.2335,-17.1489,-17.0699,-16.8667,-16.7731,-16.7352,-16.7352,-16.7352,-16.7352,-16.7352,-16.6298,-16.5461,-16.5461,-16.3364,-16.1707,-16.1707,-16.0653,-15.9757,-15.9757,-15.9757,-15.9757,-15.9757,-15.9757,-15.9757,-15.9757,-15.9757,-15.9757,-15.9757,-15.9757,-15.9757,-15.9757,-15.9757,-15.9757,-15.9757,-15.9757,-15.9757,-15.9757,-15.9757,-15.9757,-15.9757,-15.9757,-15.9757,-15.9757,-15.9757,-15.9757,-9.5795,-10.0966,-10.5139,-11.3542,-11.7894,-12.0601,-12.3103,-12.4732,-12.7026,-13.2352,-13.5205,-13.8003,-14.1776,-14.5089,-14.8607,-15.2612,-15.4415,-15.6039,-15.7944,-15.9056,-16.0613,-16.3431,-16.3478,-16.3468,-16.3859,-16.4999,-16.5758,-16.5758,-16.7277,-16.8264,-16.8264,-16.9403,-17.0008,-16.9848,-16.9848,-16.9838,-16.9733,-16.9733,-16.975,-16.9848,-16.9848,-16.9928,-17.0086,-17.0086,-17.0086,-17.0086,-17.0086,-17.0086,-17.0086,-17.0086,-17.0086,-17.0086,-17.0086,-17.0086,-17.0086,-17.0086,-17.0086,-17.0086,-17.0086,-17.0086,-17.0162,-17.0618,-17.0693,-17.0845,-17.1301,-17.1453,-17.1221,-17.0286,-16.9722,-16.9263,-16.8321,-16.7731,-16.7352,-16.7352,-16.7352,-16.7352,-16.7352,-16.6298,-16.5461,-16.5461,-16.3364,-16.1707,-16.1707,-16.0653,-15.9757,-15.9757,-15.9757,-15.9757,-15.9757,-15.9757,-15.9757,-15.9757,-15.9757,-15.9757,-15.9757,-15.9757,-15.9757,-15.9757,-15.9757,-15.9757,-15.9757,-15.9757,-15.9757,-15.9757,-15.9757,-15.9757,-15.9757,-15.9757,-15.9757,-15.9757,-15.9757,-15.9757,-8.8977,-9.4754,-10.073,-10.8284,-11.166,-11.4917,-12.1103,-12.286,-12.5238,-13.2214,-13.5644,-13.8186,-14.0879,-14.5032,-14.8828,-15.0575,-15.3894,-15.6329,-15.6817,-15.8393,-16.0164,-16.1769,-16.2126,-16.2544,-16.348,-16.5075,-16.5758,-16.5075,-16.6593,-16.7277,-16.6517,-16.7428,-16.8264,-16.9023,-16.9023,-16.9403,-17.0086,-17.0086,-17.0086,-17.0086,-17.0086,-17.0086,-17.0086,-17.0086,-17.0086,-17.0086,-17.0086,-17.0086,-17.0086,-17.0086,-17.0086,-17.0086,-17.0086,-17.0086,-17.0086,-17.0086,-17.0086,-17.0086,-17.0086,-17.0086,-17.0086,-17.0086,-17.0086,-17.0086,-17.0086,-16.9928,-16.9657,-16.9151,-16.8821,-16.8389,-16.7928,-16.7649,-16.7352,-16.7352,-16.7352,-16.7352,-16.7352,-16.6,-16.4635,-16.4722,-16.2635,-16.0937,-16.0937,-16.0239,-15.9757,-15.9757,-15.9757,-15.9757,-15.9757,-15.9757,-15.9757,-15.9757,-15.9757,-15.9757,-15.9757,-15.9757,-15.9757,-15.9757,-15.9757,-15.9757,-15.9757,-15.9757,-15.9757,-15.9757,-15.9757,-15.9757,-15.9757,-15.9757,-15.9757,-15.9757,-15.9757,-15.9044,-7.7532,-8.4755,-9.4424,-10.1119,-10.5421,-11.0373,0.0,-12.1519,-12.3334,-12.9921,-13.3065,-13.5236,-13.7347,-14.2252,-14.648,-14.7383,-15.2774,-15.6633,-15.6043,-15.8769,-16.0431,-15.9319,-16.0955,-16.2873,-16.4619,-16.6289,-16.6669,-16.515,-16.6441,-16.6593,-16.5075,-16.4999,-16.5682,-16.7201,-16.7277,-16.8112,-16.9782,-16.9782,-16.9858,-17.0086,-17.0086,-17.0086,-17.0086,-17.0086,-17.0086,-17.0086,-17.0086,-17.0086,-17.0086,-17.0086,-17.0086,-17.0086,-17.0086,-17.0086,-17.0086,-17.0086,-17.0086,-17.0086,-17.0086,-17.0086,-17.0086,-17.0086,-17.0086,-17.0086,-17.0008,-16.9657,-16.9189,-16.8821,-16.8431,-16.8031,-16.7467,-16.7352,-16.7352,-16.7352,-16.7352,-16.7352,-16.7352,-16.5455,-16.3704,-16.363,-16.1483,-15.9757,-15.9757,-15.9757,-15.9757,-15.9757,-15.9757,-15.9757,-15.9757,-15.9757,-15.9757,-15.9757,-15.9757,-15.9757,-15.9757,-15.9757,-15.9757,-15.9757,-15.9757,-15.9757,-15.9757,-15.9757,-15.9757,-15.9757,-15.9615,-15.9543,-15.9543,-15.9186,-15.9044,-15.9258,-15.9044,-15.7189,0.0,0.0,0.0,0.0,0.0,0.0,0.0,-10.4008,-10.7758,-11.3363,-11.985,-12.6028,-13.1107,-13.7002,-14.3457,-15.0846,-15.2129,-15.3514,-15.7263,-15.7744,-15.7801,-15.7848,-15.9378,-16.1126,-16.2873,-16.4543,-16.5378,-16.5075,-16.5378,-16.5378,-16.5075,-16.4999,-16.515,-16.553,-16.553,-16.6365,-16.8036,-16.8036,-16.8719,-17.0086,-17.0086,-17.0086,-17.0086,-17.0086,-17.0086,-17.0086,-17.0086,-17.0086,-17.0086,-17.0086,-17.0086,-17.0086,-17.0086,-17.0086,-17.0086,-17.0086,-17.0086,-17.0086,-17.0086,-17.0086,-17.0086,-17.0086,-17.0086,-17.0008,-16.9562,-16.9348,-16.9151,-16.8436,-16.8199,-16.8031,-16.7467,-16.7352,-16.7352,-16.7352,-16.7352,-16.7352,-16.7352,-16.5455,-16.363,-16.363,-16.1483,-15.9757,-15.9757,-15.9757,-15.9757,-15.9757,-15.9757,-15.9757,-15.9757,-15.9757,-15.9757,-15.9757,-15.9757,-15.9757,-15.9757,-15.9757,-15.9757,-15.9757,-15.9757,-15.9757,-15.9757,-15.9757,-15.9757,-15.9757,-15.8544,-15.7902,-15.7902,-15.5405,-15.4763,-15.5976,-15.4691,-15.1766,0.0,0.0,0.0,0.0,0.0,0.0,0.0,0.0,0.0,0.0,0.0,-11.9577,-12.3301,0.0,-14.0125,-14.4855,-14.9929,-15.3711,-15.493,-15.6105,-15.6714,-15.6265,-15.7709,-15.9076,-15.9911,-16.3024,-16.4695,-16.386,-16.5378,-16.553,-16.386,-16.3784,-16.3784,-16.3784,-16.3784,-16.4619,-16.6289,-16.6289,-16.6745,-16.758,-16.8416,-16.8795,-16.8871,-16.9706,-16.9928,-16.9666,-16.9666,-16.9551,-16.9393,-16.9393,-16.9527,-16.975,-17.0006,-17.0086,-17.0086,-17.0086,-17.0086,-17.0086,-17.0086,-17.0086,-17.001,-16.9756,-16.9666,-16.9648,-16.913,-16.8909,-16.8658,-16.8291,-16.7928,-16.7692,-16.748,-16.7352,-16.7352,-16.7352,-16.7352,-16.7352,-16.7352,-16.5455,-16.363,-16.363,-16.1483,-15.9757,-15.9757,-15.9757,-15.9757,-15.9757,-15.9757,-15.9757,-15.9757,-15.9757,-15.9757,-15.9757,-15.9757,-15.9757,-15.9757,-15.884,-15.8521,-15.93,-15.8265,-15.7913,-15.8238,-15.746,-15.7503,-15.8616,-15.7046,-15.5476,-15.3906,-15.2337,-15.1124,-15.0267,-14.7128,-14.3881,0.0,0.0,0.0,0.0,0.0,0.0,0.0,0.0,0.0,0.0,0.0,0.0,0.0,0.0,0.0,-13.777,-14.7105,-15.3625,-15.2581,-15.4553,-15.5682,-15.4596,-15.5659,-15.6722,-15.7405,-16.1126,-16.3252,-16.2569,-16.4999,-16.553,-16.31,-16.3024,-16.2873,-16.2493,-16.2493,-16.3176,-16.4543,-16.4543,-16.4695,-16.5075,-16.6441,0.0,-16.6966,-16.8409,-16.8747,-16.8279,-16.8279,-16.8206,-16.8228,-16.8228,-16.8687,-16.9257,-16.8879,-16.8845,-16.9019,-16.9478,-16.963,-16.963,-16.9934,-17.0008,-16.9844,-16.9451,-16.9283,-16.913,-16.8682,-16.8431,0.0,-16.8031,-16.7692,-16.7352,-16.7352,-16.7352,-16.7352,-16.7352,-16.7352,-16.7352,-16.7352,-16.5677,-16.4144,-16.4144,-16.1989,-16.0257,-16.0257,-16.0257,-16.0257,-16.0257,-15.9971,-15.9757,-15.9757,-15.9757,-15.9757,-15.9757,-15.9757,-15.963,-15.9173,-15.7625,-15.7067,-15.7753,-15.617,-15.5324,-15.5656,-15.4398,-15.44,-15.5901,-15.4407,-15.2113,-14.9411,-14.8769,-14.7011,-14.4023,-13.8746,-13.5616,0.0,0.0,0.0,0.0,0.0,0.0,0.0,0.0,0.0,0.0,0.0,0.0,0.0,0.0,0.0,0.0,-14.4287,-14.938,-15.3524,-15.3496,-15.3,-15.285,-15.3001,-15.4292,-15.7178,-15.8013,-15.9456,-16.2265,-16.2873,-16.3556,-16.4695,-16.4771,0.0,0.0,0.0,-16.2569,-16.2797,-16.2797,-16.3556,-16.4999,-16.5226,-16.5136,-16.4809,-16.4961,-16.4848,-16.449,-16.449,-16.5264,-16.6489,-16.6489,-16.7627,-16.8904,-16.5297,-16.4356,-16.5278,-16.7194,-16.7884,-16.8036,-16.9554,0.0,0.0,-16.9333,-16.9087,-16.8758,-16.8304,-16.8152,-16.8031,-16.7515,-16.7416,-16.7352,-16.7352,-16.7352,-16.7352,-16.7352,-16.7352,-16.7352,-16.7352,-16.6566,-16.566,-16.566,-16.3652,-16.1898,-16.1898,-16.1898,-16.1898,-16.1898,-16.0685,-15.9757,-15.9757,-15.9757,-15.9757,-15.9757,-15.9757,0.0,-15.714,-15.6859,-15.6001,-15.4272,-15.3962,-15.3273,-15.1994,-15.1718,-15.1296,-15.0534,-14.8918,-14.7513,-14.6129,-14.3346,-14.1018,-13.8992,-13.1343,-12.8576,0.0,0.0,0.0,0.0,0.0,0.0,0.0,0.0,0.0,0.0,0.0,0.0,0.0,0.0,0.0,0.0,-13.771,-14.39,-14.6103,-14.8319,-15.004,-15.1027,-15.0268,-15.0192,-15.1559,-15.3457,-15.5203,-15.6646,-16.0291,-16.2417,-16.2113,-16.3024,-16.2797,-16.105,-16.2037,-16.2037,-16.105,-16.2037,-16.2341,-16.2113,-16.2848,-16.3176,-16.3021,-16.3803,-16.3827,-16.3375,-16.3375,-16.3661,-16.4044,-16.4044,-16.4717,-16.5524,0.0,0.0,0.0,0.0,-16.5415,-16.5491,-16.625,-16.6325,-16.6112,-16.5808,-16.5604,-16.5363,-16.5042,-16.4899,-16.4785,-16.4636,-16.4511,-16.4511,-16.4511,-16.4511,-16.481,-16.5782,-16.6006,-16.6231,-16.7203,-16.5974,-16.4951,-16.5807,-16.3942,0.0,-16.0899,-16.1541,-16.1826,-16.0899,-16.097,-16.0827,-15.99,-15.9757,-15.9658,-15.9306,-15.924,-15.8476,-15.6296,-15.4996,0.0,0.0,0.0,-14.8673,-14.8874,-14.8533,0.0,0.0,0.0,-14.0729,-13.8507,-13.6266,0.0,0.0,-12.1777,-11.9854,0.0,0.0,0.0,0.0,0.0,0.0,0.0,0.0,0.0,0.0,0.0,0.0,0.0,0.0,0.0,0.0,-13.0982,-13.8134,-13.7317,-14.2337,-14.6307,-14.6899,-14.7757,-14.799,-14.745,-14.9659,-15.1407,-15.1862,-15.6342,-15.8924,-15.862,-16.0215,-16.0595,-15.9304,-16.0519,-16.0291,-15.862,-16.0133,-16.0129,-15.8459,-16.0229,-16.0771,-16.0227,-16.1648,-16.2052,-16.1613,-16.1613,-16.1673,-16.1819,-16.1819,-16.2292,-16.2909,-16.096,-16.0754,-16.1594,-16.114,-16.1584,-16.2435,-16.2464,-16.2373,-16.2204,-16.1885,-16.1686,-16.1511,-16.1254,-16.1146,-16.1146,-16.1146,-16.1146,-16.1221,-16.1669,-16.1819,-16.2193,-16.3913,-16.4361,-16.4597,-16.5446,-16.4173,-16.3241,-16.402,-16.1689,-15.9472,-15.9186,-16.0114,-16.0613,-15.99,-16.0399,-16.0414,-15.9113,-15.884,-15.8669,-15.7956,-15.8018,-15.7046,-15.5,-15.3003,-15.1465,-15.0605,-14.696,-14.5129,-14.5392,-14.4352,-14.2853,-14.0219,-13.7398,-13.4262,0.0,0.0,0.0,0.0,0.0,0.0,0.0,0.0,0.0,0.0,0.0,0.0,0.0,0.0,0.0,0.0,0.0,0.0,0.0,0.0,0.0,0.0,0.0,0.0,-12.8769,-13.6384,-14.1539,-13.9556,-14.5644,-14.9196,-14.7205,-14.7365,-14.837,-15.004,-15.0344,-15.1787,-15.49,-15.6722,-15.7557,-15.7557,-15.7557,-15.6798,-15.5128,-15.6355,-15.6194,-15.4539,-15.7528,-15.7822,-15.5996,-15.7609,-15.8206,-15.7841,-15.7841,-15.8678,-16.0024,-16.0024,-16.1242,-16.2458,-15.5583,-15.4171,-15.5727,-15.407,-15.5791,-15.8954,-15.8984,-15.8694,-15.8407,-15.8362,-15.8155,-15.7841,-15.7781,-15.7781,-15.7781,-15.7781,-15.7781,-15.8155,-15.965,-16.0024,-16.0473,-16.2193,-16.2567,-16.2301,-16.117,-16.1155,-16.09,-15.9788,-15.6098,-15.4049,-15.7046,-15.7545,-15.8116,-15.9543,-15.8544,0.0,-15.6789,-15.6648,-15.6343,-15.5822,-15.5802,-15.5,-15.2964,-15.1205,-14.8824,-14.5377,-14.5063,-14.3814,-14.1052,-13.9539,-13.7542,-13.4579,-13.2035,-12.8772,-12.4673,0.0,0.0,0.0,0.0,0.0,0.0,0.0,0.0,0.0,0.0,0.0,0.0,0.0,0.0,0.0,0.0,0.0,0.0,0.0,0.0,0.0,0.0,0.0,0.0,-12.9928,-13.6746,-13.5899,-13.9112,-14.1175,-14.044,-14.1296,-14.3118,-14.6099,-15.0171,-15.2528,-15.2604,-15.4196,-15.4139,-15.1864,-15.2868,-15.3153,-15.2622,-15.4113,-15.4674,-15.4144,-15.5934,-15.6424,-15.5758,-15.6076,-15.6071,-15.5911,-15.479,-15.4565,-15.5089,-15.5089,-15.4216,-15.279,-15.154,-15.0773,-15.0465,-15.1065,-15.1371,-15.1466,-15.1466,-15.1396,-15.1215,-15.1215,-15.1203,-15.1051,-15.1051,-15.0303,-14.9406,-14.9406,-14.9406,-14.9555,-15.0079,-15.1051,-15.2546,-15.5313,-15.5911,-15.6251,-15.7308,-15.6951,-15.6364,-15.6159,-15.0131,-14.5915,-14.9054,-15.2265,-15.4035,-15.3296,-15.4444,-15.4959,-15.331,-15.3012,-15.3136,-15.3643,-15.3578,-15.2792,-15.0753,-14.9177,-14.7358,-14.5129,-14.2367,-14.0328,-13.9342,-13.6054,-13.3292,-13.1451,-12.854,-12.4604,-11.9327,0.0,0.0,0.0,0.0,0.0,0.0,0.0,0.0,0.0,0.0,0.0,0.0,0.0,0.0,0.0,0.0,0.0,0.0,0.0,0.0,0.0,0.0,0.0,0.0,0.0,0.0,-13.1486,-13.4319,0.0,-13.618,-13.5905,-13.7272,-14.0787,-14.4255,-14.6709,-14.7985,-14.9651,-15.0057,-14.8919,-15.0509,-15.1114,-15.0557,-15.2102,-15.2232,-15.1023,-15.2897,-15.3398,-15.2872,-15.3824,-15.3892,-15.3369,-15.2846,-15.1948,-15.0827,-15.0228,-14.8826,-14.7167,-14.8216,-14.8144,-14.7313,-14.7593,-14.7467,-14.6965,-14.6227,-14.6041,-14.6041,-14.6041,-14.5218,-14.4321,-14.4919,-14.3498,-14.2003,-14.3124,-14.305,-14.277,-14.3662,-14.4199,-14.5332,-14.821,-14.9232,-14.9773,-15.0989,-15.0407,-14.9175,-14.7495,-14.2907,-14.0064,-14.2704,-14.5588,-14.7606,-14.7302,-14.8944,-14.9977,-14.9386,-14.9277,-14.9905,-15.1299,-15.0987,-15.007,-14.8801,-14.7233,-14.5589,-14.3616,-14.046,-13.7895,-13.6317,-13.3029,-12.961,-12.6125,-12.3165,-11.9088,0.0,0.0,0.0,0.0,0.0,0.0,0.0,0.0,0.0,0.0,0.0,0.0,0.0,0.0,0.0,0.0,0.0,0.0,0.0,0.0,0.0,0.0,0.0,0.0,0.0,0.0,0.0,-12.609,-13.0598,0.0,0.0,0.0,0.0,-13.394,-13.3105,-13.4974,-14.0751,-14.2783,-14.5021,-14.7928,-14.9411,-14.9638,-14.8503,-14.964,-14.8638,-14.5628,-14.8614,-14.9181,-14.7686,-15.0827,-15.1425,-15.0079,-15.15,-15.0378,-14.7462,-14.5573,-14.4893,-14.5176,-14.5294,-14.5493,-14.5525,-14.3534,-14.3788,-14.4789,-14.2942,-14.2227,-14.2302,-14.2377,-14.0133,-13.7591,-13.9236,-13.7441,0.0,0.0,-13.8413,-13.7728,-13.9993,-13.9426,-13.8929,-14.1229,-14.2572,-14.309,-14.2313,-14.1876,-13.9994,-13.438,-13.4641,-13.614,-13.7528,0.0,-13.9095,-14.1717,-14.227,-14.31,-14.5173,-14.5516,-14.6311,-14.8801,-14.7825,-14.6904,-14.6904,-14.5589,-14.3551,-14.0789,-13.9079,-13.6317,-13.2174,-13.0267,-12.6125,-11.9286,-11.5998,0.0,0.0,0.0,0.0,0.0,0.0,0.0,0.0,0.0,0.0,0.0,0.0,0.0,0.0,0.0,0.0,0.0,0.0,0.0,0.0,0.0,0.0,0.0,0.0,0.0,0.0,-10.8096,-11.3809,-11.6424,-11.8473,-11.9563,0.0,0.0,0.0,0.0,0.0,0.0,-12.9821,-13.2718,-13.4641,-13.5175,-13.5883,-13.8217,-14.2488,-14.1619,-14.1968,-14.3616,-14.5628,-14.6265,-14.5891,-14.6714,-14.6863,-14.6489,-14.5667,-14.5592,-14.5498,-14.0414,-13.7602,-13.6711,-13.8246,-13.8134,-13.7086,-13.6517,-13.5688,-13.4715,-13.421,-13.3822,-13.3777,-13.5123,-13.3254,-13.0637,-13.1085,0.0,0.0,0.0,0.0,-12.8989,-13.005,-13.0979,-13.2195,-13.4457,-13.5266,-13.5481,-13.5587,-13.6513,-13.486,-12.6663,-12.6436,-12.7271,-12.6421,-13.0997,0.0,-13.2268,-13.5703,-13.8632,-13.883,-13.9748,-14.1559,-14.4208,-14.4208,-14.3945,-14.3945,-14.1709,-13.9934,-13.9211,-13.4739,-13.2109,-13.1977,-12.5467,-12.1061,-11.922,0.0,0.0,0.0,0.0,0.0,0.0,0.0,0.0,0.0,0.0,0.0,0.0,0.0,0.0,0.0,0.0,0.0,0.0,0.0,0.0,0.0,0.0,0.0,0.0,0.0,0.0,0.0,-10.1229,-10.7139,-11.0145,-11.0243,-11.0239,0.0,0.0,0.0,0.0,0.0,0.0,0.0,0.0,0.0,-12.8293,-12.935,-13.1955,-13.6268,-13.5996,-13.6821,-13.8695,-14.0913,-14.2003,-14.2003,-14.3498,-14.3797,-14.305,-14.2975,-14.133,-13.8466,-13.5068,-13.2345,-13.0473,0.0,0.0,0.0,0.0,-12.9094,-12.8084,-12.8027,-12.764,-12.7419,-12.7674,0.0,0.0,0.0,0.0,0.0,0.0,0.0,-12.2027,-12.3493,-12.4739,-12.5858,-12.6752,-12.7854,-12.8883,-12.9245,-12.7474,-12.4102,-11.8989,-11.8277,-11.8779,-11.905,-12.2091,0.0,0.0,0.0,-13.2916,-13.5238,-13.6777,-13.9013,-14.2498,-14.2301,-14.1644,-14.1052,-13.8522,-13.6159,-13.4272,-13.0911,-12.7712,-12.4577,-11.9702,-11.4596,0.0,0.0,0.0,0.0,0.0,0.0,0.0,0.0,0.0,0.0,0.0,0.0,0.0,0.0,0.0,0.0,0.0,0.0,0.0,0.0,0.0,0.0,0.0,0.0,0.0,0.0,0.0,0.0,0.0,-10.358,-10.5579,0.0,0.0,0.0,0.0,0.0,0.0,0.0,0.0,0.0,0.0,0.0,0.0,0.0,-12.7189,-12.9932,-13.091,-13.1737,-13.2373,-13.4974,-13.6372,-13.6619,-13.9834,-14.0582,-13.9386,-14.0208,0.0,-12.9212,-12.925,0.0,0.0,0.0,0.0,0.0,0.0,0.0,0.0,0.0,0.0,0.0,0.0,0.0,0.0,0.0,0.0,0.0,0.0,0.0,0.0,0.0,0.0,-11.9912,-11.8816,-12.0651,-12.2621,-12.2228,-11.6425,-11.1203,-11.0989,-11.0164,-11.0237,0.0,0.0,0.0,0.0,0.0,0.0,-13.224,-13.4607,-13.7435,-14.1578,-14.048,-13.9055,-13.783,-13.5012,-13.1802,-12.8221,-12.6956,-12.3,-11.4969,-11.3671,0.0,0.0,0.0,0.0,0.0,0.0,0.0,0.0,0.0,0.0,0.0,0.0,0.0,0.0,0.0,0.0,0.0,0.0,0.0,0.0,0.0,0.0,0.0,0.0,0.0,0.0,0.0,0.0,0.0,0.0,0.0,0.0,0.0,0.0,0.0,0.0,0.0,0.0,0.0,0.0,0.0,0.0,0.0,0.0,0.0,0.0,0.0,0.0,0.0,0.0,-12.7698,-12.8663,-12.9814,-13.1758,-13.3179,-13.4002,-13.0263,-12.6385,-12.2637,-12.1463,0.0,0.0,0.0,0.0,0.0,0.0,0.0,0.0,0.0,0.0,0.0,0.0,0.0,0.0,0.0,0.0,0.0,0.0,0.0,0.0,0.0,0.0,-11.4012,-11.2389,-11.4415,-11.5219,-11.0183,0.0,0.0,0.0,0.0,0.0,0.0,0.0,0.0,0.0,0.0,0.0,-12.5204,-12.9676,-13.4016,-13.7238,-13.4421,-13.2586,-13.3552,-12.8277,-12.4965,-12.5341,-12.0077,-11.6205,0.0,0.0,0.0,0.0,0.0,0.0,0.0,0.0,0.0,0.0,0.0,0.0,0.0,0.0,0.0,0.0,0.0,0.0,0.0,0.0,0.0,0.0,0.0,0.0,0.0,0.0,0.0,0.0,0.0,0.0,0.0,0.0,0.0,0.0,0.0,0.0,0.0,0.0,0.0,0.0,0.0,0.0,0.0,0.0,0.0,0.0,0.0,0.0,0.0,0.0,0.0,0.0,0.0,0.0,0.0,0.0,0.0,0.0,-12.2518,-11.6398,0.0,0.0,0.0,0.0,0.0,0.0,0.0,0.0,0.0,0.0,0.0,0.0,0.0,0.0,0.0,0.0,0.0,0.0,0.0,0.0,0.0,0.0,0.0,0.0,0.0,0.0,0.0,0.0,0.0,0.0,0.0,0.0,0.0,0.0,0.0,0.0,0.0,0.0,0.0,0.0,-12.2113,-12.7966,-13.2524,-13.4113,-13.1942,-12.9894,-12.8539,-12.3773,-11.9843,-11.7635,-11.4446,0.0,0.0,0.0,0.0,0.0,0.0,0.0,0.0,0.0,0.0,0.0,0.0,0.0,0.0,0.0,0.0,0.0,0.0,0.0,0.0,0.0,0.0,0.0,0.0,0.0,0.0,0.0,0.0,0.0,0.0,0.0,0.0,0.0,0.0,0.0,0.0,0.0,0.0,0.0,0.0,0.0,0.0,0.0,0.0,0.0,0.0,0.0,0.0,0.0,0.0,0.0,0.0,0.0,0.0,0.0,0.0,0.0,0.0,0.0,-11.4781,-10.7608,0.0,0.0,0.0,0.0,0.0,0.0,0.0,0.0,0.0,0.0,0.0,0.0,0.0,0.0,0.0,0.0,0.0,0.0,0.0,0.0,0.0,0.0,0.0,0.0,0.0,0.0,0.0,0.0,0.0,0.0,0.0,0.0,0.0,0.0,0.0,0.0,0.0,0.0,0.0,0.0,-11.8131,-12.4704,-12.9549,-13.0668,-12.8842,-12.634,-12.3707,-11.972,-11.5258,-11.0523,-10.8845,0.0,0.0,0.0,0.0,0.0,0.0,0.0,0.0,0.0,0.0,0.0,0.0,0.0,0.0,0.0,0.0,0.0,0.0,0.0,0.0,0.0,0.0,0.0,0.0,0.0,0.0,0.0,0.0,0.0,0.0,0.0,0.0,0.0,0.0,0.0,0.0,0.0,0.0,0.0,0.0,0.0,0.0,0.0,0.0,0.0,0.0,0.0,0.0,0.0,0.0,0.0,0.0,0.0,0.0,0.0,0.0,0.0,0.0,0.0,0.0,0.0,0.0,0.0,0.0,0.0,0.0,0.0,0.0,0.0,0.0,0.0,0.0,0.0,0.0,0.0,0.0,0.0,0.0,0.0,0.0,0.0,0.0,0.0,0.0,0.0,0.0,0.0,0.0,0.0,0.0,0.0,0.0,0.0,0.0,0.0,0.0,0.0,0.0,0.0,0.0,0.0,-10.9398,-11.5502,-12.133,-12.4966,-12.1016,-11.8433,-11.9388,-11.4645,-11.057,-10.7826,0.0,0.0,0.0,0.0,0.0,0.0,0.0,0.0,0.0,0.0,0.0,0.0,0.0,0.0,0.0,0.0,0.0,0.0,0.0,0.0,0.0,0.0,0.0,0.0,0.0,0.0,0.0,0.0,0.0,0.0,0.0,0.0,0.0,0.0,0.0,0.0,0.0,0.0,0.0,0.0,0.0,0.0,0.0,0.0,0.0,0.0,0.0,0.0,0.0,0.0,0.0,0.0,0.0,0.0,0.0,0.0,0.0,0.0,0.0,0.0,0.0,0.0,0.0,0.0,0.0,0.0,0.0,0.0,0.0,0.0,0.0,0.0,0.0,0.0,0.0,0.0,0.0,0.0,0.0,0.0,0.0,0.0,0.0,0.0,0.0,0.0,0.0,0.0,0.0,0.0,0.0,0.0,0.0,0.0,0.0,0.0,0.0,0.0,0.0,0.0,0.0,0.0,-10.6772,-11.3749,-11.9491,-12.1906,-11.8311,-11.5498,-11.5331,-11.1238,-10.7027,-10.2897,0.0,0.0,0.0,0.0,0.0,0.0,0.0,0.0,0.0,0.0,0.0,0.0,0.0,0.0,0.0,0.0,0.0,0.0,0.0,0.0,0.0,0.0,0.0,0.0,0.0,0.0,0.0,0.0,0.0,0.0,0.0,0.0,0.0,0.0,0.0,0.0,0.0,0.0,0.0,0.0,0.0,0.0,0.0,0.0,0.0,0.0,0.0,0.0,0.0,0.0,0.0,0.0,0.0,0.0,0.0,0.0,0.0,0.0,0.0,0.0,0.0,0.0,0.0,0.0,0.0,0.0,0.0,0.0,0.0,0.0,0.0,0.0,0.0,0.0,0.0,0.0,0.0,0.0,0.0,0.0,0.0,0.0,0.0,0.0,0.0,0.0,0.0,0.0,0.0,0.0,0.0,0.0,0.0,0.0,0.0,0.0,0.0,0.0,0.0,0.0,0.0,0.0,-10.387,-11.0657,-11.6137,-11.8629,-11.5384,-11.3066,-11.2467,-10.9237,-10.4933,-9.9349,0.0,0.0,0.0,0.0,0.0,0.0,0.0,0.0,0.0,0.0,0.0,0.0,0.0,0.0,0.0,0.0,0.0,0.0,0.0,0.0,0.0,0.0,0.0,0.0,0.0,0.0,0.0,0.0,0.0,0.0,0.0,0.0,0.0,0.0,0.0,0.0,0.0,0.0,0.0,0.0,0.0,0.0,0.0,0.0,0.0,0.0,0.0,0.0,0.0,0.0,0.0,0.0,0.0,0.0,0.0,0.0,0.0,0.0,0.0,0.0,0.0,0.0,0.0,0.0,0.0,0.0,0.0,0.0,0.0,0.0,0.0,0.0,0.0,0.0,0.0,0.0,0.0,0.0,0.0,0.0,0.0,0.0,0.0,0.0,0.0,0.0,0.0,0.0,0.0,0.0,0.0,0.0,0.0,0.0,0.0,0.0,0.0,0.0,0.0,0.0,0.0,0.0,-9.9245,-10.4118,-10.9295,-11.4356,-11.1506,-10.9702,-11.0924,-10.8714,-10.4526,0.0,0.0,0.0,0.0,0.0,0.0,0.0,0.0,0.0,0.0,0.0,0.0,0.0,0.0,0.0,0.0,0.0,0.0,0.0,0.0,0.0,0.0,0.0,0.0,0.0,0.0,0.0,0.0,0.0,0.0,0.0,0.0,0.0,0.0,0.0,0.0,0.0,0.0,0.0,0.0,0.0,0.0,0.0,0.0,0.0,0.0,0.0,0.0,0.0,0.0,0.0,0.0,0.0,0.0,0.0,0.0,0.0,0.0,0.0,0.0,0.0,0.0,0.0,0.0,0.0,0.0,0.0,0.0,0.0,0.0,0.0,0.0,0.0,0.0,0.0,0.0,0.0,0.0,0.0,0.0,0.0,0.0,0.0,0.0,0.0,0.0,0.0,0.0,0.0,0.0,0.0,0.0,0.0,0.0,0.0,0.0,0.0,0.0,0.0,0.0,0.0,0.0,0.0,-9.7371,-10.1966,-10.691,-11.296,-11.0168,-10.8423,-10.9644,-10.662,-10.1908,-9.5452,0.0,0.0,0.0,0.0,0.0,0.0,0.0,0.0,0.0,0.0,0.0,0.0,0.0,0.0,0.0,0.0,0.0,0.0,0.0,0.0,0.0,0.0,0.0,0.0,0.0,0.0,0.0,0.0,0.0,0.0,0.0,0.0,0.0,0.0,0.0,0.0,0.0,0.0,0.0,0.0,0.0,0.0,0.0,0.0,0.0,0.0,0.0,0.0,0.0,0.0,0.0,0.0,0.0,0.0,0.0,0.0,0.0,0.0,0.0,0.0,0.0,0.0,0.0,0.0,0.0,0.0,0.0,0.0,0.0,0.0,0.0,0.0,0.0,0.0,0.0,0.0,0.0,0.0,0.0,0.0,0.0,0.0,0.0,0.0,0.0,0.0,0.0,0.0,0.0,0.0,0.0,0.0,0.0,0.0,0.0,0.0,0.0,0.0,0.0,0.0,0.0,0.0,0.0,-10.0396,-10.5456,-11.0982,-10.9004,-10.7783,-10.9063,-10.5165,-9.9921,-9.3072,0.0,0.0,0.0,0.0,0.0,0.0,0.0,0.0,0.0,0.0,0.0,0.0,0.0,0.0,0.0,0.0,0.0,0.0,0.0,0.0,0.0,0.0,0.0,0.0,0.0,0.0,0.0,0.0,0.0,0.0,0.0,0.0,0.0,0.0,0.0,0.0,0.0,0.0,0.0,0.0,0.0,0.0,0.0,0.0,0.0,0.0,0.0,0.0,0.0,0.0,0.0,0.0,0.0,0.0,0.0,0.0,0.0,0.0,0.0,0.0,0.0,0.0,0.0,0.0,0.0,0.0,0.0,0.0,0.0,0.0,0.0,0.0,0.0,0.0,0.0,0.0,0.0,0.0,0.0,0.0,0.0,0.0,0.0,0.0,0.0,0.0,0.0,0.0,0.0,0.0,0.0,0.0,0.0,0.0,0.0,0.0,0.0,0.0,0.0,0.0,0.0,0.0,0.0,-9.9291,-10.4642,-10.8655,-10.7899,-10.7608,-10.8714,-10.4235,-9.8271,-9.0736,-8.3518,0.0,0.0,0.0,0.0,0.0,0.0,0.0,0.0,0.0,0.0,0.0,0.0,0.0,0.0,0.0,0.0,0.0,0.0,0.0,0.0,0.0,0.0,0.0,0.0,0.0,0.0,0.0,0.0,0.0,0.0,0.0,0.0,0.0,0.0,0.0,0.0,0.0,0.0,0.0,0.0,0.0,0.0,0.0,0.0,0.0,0.0,0.0,0.0,0.0,0.0,0.0,0.0,0.0,0.0,0.0,0.0,0.0,0.0,0.0,0.0,0.0,0.0,0.0,0.0,0.0,0.0,0.0,0.0,0.0,0.0,0.0,0.0,0.0,0.0,0.0,0.0,0.0,0.0,0.0,0.0,0.0,0.0,0.0,0.0,0.0,0.0,0.0,0.0,0.0,0.0,0.0,0.0,0.0,0.0,0.0,0.0,0.0,0.0,0.0,0.0,0.0,0.0,-9.772,-10.2315,-10.7201,-10.662,-10.5514,-10.4816,-10.185,-9.6013,-8.6955,-8.0691,0.0,0.0,0.0,0.0,0.0,0.0,0.0,0.0,0.0,0.0,0.0,0.0,0.0,0.0,0.0,0.0,0.0,0.0,0.0,0.0,0.0,0.0,0.0,0.0,0.0,0.0,0.0,0.0,0.0,0.0,0.0,0.0,0.0,0.0,0.0,0.0,0.0,0.0,0.0,0.0,0.0,0.0,0.0,0.0,0.0,0.0,0.0,0.0,0.0,0.0,0.0,0.0,0.0,0.0,0.0,0.0,0.0,0.0,0.0,0.0,0.0,0.0,0.0,0.0,0.0,0.0,0.0,0.0,0.0,0.0,0.0,0.0,0.0,0.0,0.0,0.0,0.0,0.0,0.0,0.0,0.0,0.0,0.0,0.0,0.0,0.0,0.0,0.0,0.0,0.0,0.0,0.0,0.0,0.0,0.0,0.0,0.0,0.0,0.0,0.0,0.0,0.0,-8.9957,-9.6324,-10.3828,-10.4526,-10.4177,-10.342,-9.9471,-9.2915,-8.341,-7.7013,0.0,0.0,0.0,0.0,0.0,0.0,0.0,0.0,0.0,0.0,0.0,0.0,0.0,0.0,0.0,0.0,0.0,0.0,0.0,0.0,0.0,0.0,0.0,0.0,0.0,0.0,0.0,0.0,0.0,0.0,0.0,0.0,0.0,0.0,0.0,0.0,0.0,0.0,0.0,0.0,0.0,0.0,0.0,0.0,0.0,0.0,0.0,0.0,0.0,0.0,0.0,0.0,0.0,0.0,0.0,0.0,0.0,0.0,0.0,0.0,0.0,0.0,0.0,0.0,0.0,0.0,0.0,0.0,0.0,0.0,0.0,0.0,0.0,0.0,0.0,0.0,0.0,0.0,0.0,0.0,0.0,0.0,0.0,0.0,0.0,0.0,0.0,0.0,0.0,0.0,0.0,0.0,0.0,0.0,0.0,0.0,0.0,0.0,0.0,0.0,0.0,0.0,0.0,-8.9422,-9.9291,-10.1418,-10.204,-10.1824,-9.6247,-8.8822,-7.9558,0.0,0.0,0.0,0.0,0.0,0.0,0.0,0.0,0.0,0.0,0.0,0.0,0.0,0.0,0.0,0.0,0.0,0.0,0.0,0.0,0.0,0.0,0.0,0.0,0.0,0.0,0.0,0.0,0.0,0.0,0.0,0.0,0.0,0.0,0.0,0.0,0.0,0.0,0.0,0.0,0.0,0.0,0.0,0.0,0.0,0.0,0.0,0.0,0.0,0.0,0.0,0.0,0.0,0.0,0.0,0.0,0.0,0.0,0.0,0.0,0.0,0.0,0.0,0.0,0.0,0.0,0.0,0.0,0.0,0.0,0.0,0.0,0.0,0.0,0.0,0.0,0.0,0.0,0.0,0.0,0.0,0.0,0.0,0.0,0.0,0.0,0.0,0.0,0.0,0.0,0.0,0.0,0.0,0.0,0.0,0.0,0.0,0.0,0.0,0.0,0.0,0.0,0.0,0.0,-8.666,-9.4232,-9.6136,-9.6285,-9.4193,-9.0053,-8.3383,-7.3163,0.0,0.0,0.0,0.0,0.0,0.0,0.0,0.0,0.0,0.0,0.0,0.0,0.0,0.0]}],[{"header":{"parameterUnit":"kt","parameterCategory":2,"dx":1,"dy":1,"la1":29.285339999999998,"la2":30.599998999999997,"lo1":-89.70041500000002,"lo2":-87.6738589999976,"nx":112,"ny":82,"refTime":"2022-10-25T18:00:00:Z","depth":0,"parameterNumber":2,"parameterNumberName":"V-component_of_WINDS"},"data":[-12.6449,-12.5627,-12.4954,-12.2336,-12.1962,-12.1289,-11.7625,-11.4186,-11.1194,-10.9101,-10.424,-10.0726,-10.2036,-9.9343,-9.6987,-9.7173,-9.6051,-9.4968,0.0,-9.7659,0.0,0.0,0.0,0.0,0.0,0.0,-13.5819,-13.0975,-13.3459,-13.1629,-12.3255,-11.9876,-11.6309,-11.2584,-10.1431,-9.4493,-9.1983,-8.1855,-7.4224,-6.9118,-6.6881,-6.3802,-5.9192,-4.9086,-4.5144,-4.5431,-3.5772,-3.1262,-3.1262,-3.1262,-3.1434,-3.1737,-3.2014,-3.2291,-3.2555,-3.2555,-3.1447,-2.8739,-1.9771,-1.2746,-0.7378,-0.1643,0.0,0.0,0.0,0.0,0.0,0.0,0.0,0.0,0.0,0.0,0.0,0.0,0.0,0.0,0.0,0.0,0.0,0.0,0.0,0.0,0.0,0.0,0.0,0.0,0.0,0.0,0.0,0.0,0.0,0.0,0.0,0.0,0.0,0.0,0.0,0.0,0.0,0.0,0.0,0.0,0.0,0.0,0.0,0.0,0.0,0.308,0.7221,1.2108,1.7109,2.2131,-12.1589,-12.0168,-11.8971,-11.5681,-11.5232,-11.441,-11.0073,-10.7007,-10.4165,-10.1473,-9.8333,-9.6015,-9.6015,-9.6015,-9.5491,-9.3771,-9.4968,-9.5827,0.0,-9.9771,-10.6297,0.0,0.0,0.0,0.0,-13.6843,-13.7103,-13.0214,-13.348,-13.1827,-12.2906,-11.7615,-11.3352,-10.958,-9.8966,-9.2014,-8.9881,-7.9948,-7.2978,-6.9469,-6.5606,-6.2448,-5.9476,-4.9171,-4.5222,-4.6041,-3.5817,-3.1262,-3.1262,-3.1262,-3.1381,-3.1579,-3.1869,-3.2146,-3.2423,-3.2515,-3.146,-2.8739,-1.97,-1.144,-0.488,-0.1226,0.0,0.0,0.0,0.0,0.0,0.0,0.0,0.0,0.0,0.0,0.0,0.0,0.0,0.0,0.0,0.0,0.0,0.0,0.0,0.0,0.0,0.0,0.0,0.0,0.0,0.0,0.0,0.0,0.0,0.0,0.0,0.0,0.0,0.0,0.0,0.0,0.0,0.0,0.0,0.0,0.0,0.0,0.0,0.0,0.0,0.4976,0.9841,1.4976,2.1493,2.656,-11.6653,-11.1793,-10.8129,-10.7979,-10.439,-10.08,-10.0651,-9.9454,-9.7809,-9.6164,-9.594,-9.6015,-9.6089,-9.6164,-9.5715,-9.4145,-9.5638,0.0,0.0,-10.2828,0.0,0.0,-12.5796,-13.0584,-13.2213,-13.955,-14.0787,-13.2411,-13.6696,-13.5303,-12.5236,-11.9216,-11.2898,-10.5503,-9.7462,-9.111,-8.7022,-7.9257,-7.3724,-7.0172,-6.6571,-6.2838,-5.9476,-4.9171,-4.5222,-4.6041,-3.5817,-3.1262,-3.1262,-3.1262,-3.1262,-3.1289,-3.1592,-3.1869,-3.1735,-3.2021,-2.8877,-2.3187,-1.7896,-0.9319,-0.0404,0.0,0.0,0.0,0.0,0.0,0.0,0.0,0.0,0.0,0.0,0.0,0.0,0.0,0.0,0.0,0.0,0.0,0.0,0.0,0.0,0.0,0.0,0.0,0.0,0.0,0.0,0.0,0.0,0.0,0.0,0.0,0.0,0.0,0.0,0.0,0.0,0.0,0.0,0.0,0.0,0.0,0.0,0.0,0.0,0.0,0.0,0.4972,1.0214,1.497,2.4817,2.9509,-10.8727,-10.6708,-10.5736,-10.2072,-10.0202,-9.8557,-9.6089,-9.4295,-9.3023,-9.2575,-9.3397,0.0,0.0,0.0,-10.1698,-10.2634,0.0,-10.8469,-10.7957,-11.3641,-11.944,-12.3733,-12.8794,-13.2176,-13.256,-13.7828,-13.7611,-12.8855,-13.537,-13.3231,-11.8002,-11.671,-11.1545,-10.0877,-9.4857,-9.0136,-8.7022,-7.6328,-7.0774,-7.0172,-6.3232,-6.0124,-5.9476,-4.9171,-4.5222,-4.6041,-3.5817,-3.1262,-3.1262,-3.1262,-3.1262,-3.1289,-3.1592,-2.9354,-2.6237,-2.6302,-2.2924,-1.7889,-1.2531,-0.8503,-0.5278,-0.1207,0.0,0.0,0.0,0.0,0.0,0.0,0.0,0.0,0.0,0.0,0.0,0.0,0.0,0.0,0.0,0.0,0.0,0.0,0.0,0.0,0.0,0.0,0.0,0.0,0.0,0.0,0.0,0.0,0.0,0.0,0.0,0.0,0.0,0.0,0.0,0.0,0.0,0.0,0.0,0.0,0.0,0.0,0.0,0.0,0.0,0.8702,1.347,1.5194,2.5107,2.9403,-10.252,-10.0501,-9.9903,-9.6314,-9.4893,-9.422,-9.3622,-9.2799,-9.2799,-9.504,0.0,0.0,0.0,0.0,0.0,0.0,-11.2005,-11.4426,-11.357,-11.912,-12.4905,-12.9211,-13.1741,-13.3286,-13.3536,-13.7223,-13.6541,-12.9551,-13.3106,-12.9934,-11.673,-11.4383,-10.8252,-9.6622,-9.3478,-8.8931,-8.2319,-7.3958,-6.8928,-6.7981,-6.1343,-5.864,-5.9141,-4.9086,-4.5125,-4.5392,-3.5757,-3.1262,-3.1262,-3.1262,-3.1262,-3.1276,-3.1447,-2.8353,-2.3618,-2.3717,-1.9136,-1.2475,-0.9213,-0.6845,-0.4048,-0.1194,0.0,0.0,0.0,0.0,0.0,0.0,0.0,0.0,0.0,0.0,0.0,0.0,0.0,0.0,0.0,0.0,0.0,0.0,0.0,0.0,0.0,0.0,0.0,0.0,0.0,0.0,0.0,0.0,0.0,0.0,0.0,0.0,0.0,0.0,0.0,0.0,0.0,0.0,0.0,0.0,0.0,0.0,0.0,0.1148,0.3031,1.0898,1.6018,1.8075,2.5816,2.9364,-9.7061,-9.3921,-9.2575,-9.1004,-8.9883,-8.9992,-9.3347,0.0,-9.622,-10.1929,0.0,-10.6338,-11.0348,0.0,0.0,-11.3514,-11.634,-11.8232,-11.718,-12.2443,-12.8539,-13.4295,-13.4493,-13.423,-13.4699,-13.6849,-13.6442,-13.2078,-13.0277,-12.5879,-11.815,-11.2221,-10.4084,-9.33,-9.2231,-8.6709,-7.5942,-7.2112,-6.8557,-6.4886,-6.0179,-5.8459,-5.8676,-4.8957,-4.4988,-4.5044,-3.5298,-3.1262,-3.1262,-3.1262,-3.1262,-3.1262,-3.1262,-2.8116,-2.344,-2.3246,-1.6619,-0.7539,-0.7533,-0.3992,0.0,0.0,0.0,0.0,0.0,0.0,0.0,0.0,0.0,0.0,0.0,0.0,0.0,0.0,0.0,0.0,0.0,0.0,0.0,0.0,0.0,0.0,0.0,0.0,0.0,0.0,0.0,0.0,0.0,0.0,0.0,0.0,0.0,0.0,0.0,0.0,0.0,0.0,0.0,0.0,0.0,0.0,0.0,0.0,0.0381,0.3032,0.7502,1.3096,1.8229,2.3241,2.7669,2.9364,-8.9883,-8.8761,-8.921,-8.749,-8.9808,-9.3446,0.0,0.0,0.0,-11.1309,-11.42,-11.678,-12.1561,-12.475,-12.6114,-12.428,-12.7591,-12.98,-12.793,-13.2096,-13.5406,-13.5566,-13.6479,-13.6491,-13.4848,-13.4179,-13.249,-12.9317,-12.739,-12.3131,-11.5724,-10.8795,-10.0888,-9.2007,-8.9266,-8.4033,-7.5942,-7.2112,-6.8557,-6.4886,-6.0179,-5.8459,-5.8676,-4.8957,-4.4988,-4.5044,-3.5298,-3.1262,-3.1262,-3.1262,-3.1262,-3.1262,-3.1262,-2.8116,-2.3032,-1.8779,-1.2994,-0.7137,-0.3154,-0.0792,0.0,0.0,0.0,0.0,0.0,0.0,0.0,0.0,0.0,0.0,0.0,0.0,0.0,0.0,0.0,0.0,0.0,0.0,0.0,0.0,0.0,0.0,0.0,0.0,0.0,0.0,0.0,0.0,0.0,0.0,0.0,0.0,0.0,0.0,0.0,0.0,0.0,0.0,0.0,0.0,0.0,0.0,0.0,0.0,0.3782,0.6391,0.7502,1.6346,2.3283,2.8035,2.9144,2.9364,-8.6293,-8.6144,-8.7565,-8.8462,-9.1752,0.0,0.0,-10.5652,-11.0461,-11.7224,-12.1106,-12.4503,-12.8187,-13.1437,-13.3006,-13.1444,-13.3723,-13.5562,-13.5518,-13.7569,-13.8706,-13.7882,-13.6315,-13.5633,-13.5841,-13.2574,-13.0303,-12.9431,-12.3561,-11.7813,-11.2455,-10.4663,-9.7902,-9.2157,-8.901,-8.2857,-7.3246,-7.1685,-6.789,-6.1536,-5.9165,-5.6877,-5.4636,-4.7761,-4.3396,-4.1035,-3.4091,-3.1262,-3.1262,-3.1262,-3.1262,-3.1262,-3.1262,-2.8116,-2.3032,-2.0692,-1.4498,-0.7483,-0.4709,-0.2361,0.0,0.0,0.0,0.0,0.0,0.0,0.0,0.0,0.0,0.0,0.0,0.0,0.0,0.0,0.0,0.0,0.0,0.0,0.0,0.0,0.0,0.0,0.0,0.0,0.0,0.0,0.0,0.0,0.0,0.0,0.0,0.0,0.0,0.0,0.0,0.0,0.0,0.0,0.0,0.0,0.0,0.0,0.0,0.0,0.4868,0.8561,1.1159,2.1068,2.7291,2.9509,2.9509,2.9364,-8.3975,-8.4648,-8.6817,-8.9883,-9.407,0.0,-10.6139,-11.1765,-11.7367,-12.3802,-12.8246,-13.1756,-13.4375,-13.7374,-13.8965,-13.711,-13.8221,-13.9694,-14.0526,-14.0917,-14.0673,-13.9507,-13.6329,-13.4751,-13.5721,-13.1317,-12.8715,-12.9103,-12.0699,-11.3307,-10.8438,-10.0412,-9.4737,-9.1693,-8.7715,-8.0787,-7.0469,-7.008,-6.6102,-5.8147,-5.8147,-5.5651,-5.0656,-4.6547,-4.2195,-3.7444,-3.3269,-3.1262,-3.1262,-3.1262,-3.1262,-3.1262,-3.1262,-2.8902,-2.4594,-2.2634,-1.6404,-0.8996,-0.7044,-0.3527,0.0,0.0,0.0,0.0,0.0,0.0,0.0,0.0,0.0,0.0,0.0,0.0,0.0,0.0,0.0,0.0,0.0,0.0,0.0,0.0,0.0,0.0,0.0,0.0,0.0,0.0,0.0,0.0,0.0,0.0,0.0,0.0,0.0,0.0,0.0,0.0,0.0,0.0,0.0,0.0,0.0,0.0,0.0,0.0,0.4089,0.887,1.4764,2.2865,2.7657,2.9509,2.9509,2.939,-8.1657,-8.3751,-8.6518,-8.8462,-9.579,0.0,-11.0995,-11.7461,-12.5114,-13.5981,-13.8978,-14.0555,-14.381,-14.7367,-14.8068,-14.259,-14.4255,-14.5236,-14.234,-14.3009,-14.2362,-13.8166,-13.8505,-13.7086,-13.1874,-12.9718,-12.7268,-12.4514,-12.0954,-11.4322,-10.341,-9.6057,-9.0704,-8.7576,-8.0368,-7.4287,-7.0469,-6.6641,-6.2664,-5.8147,-5.8147,-5.5651,-5.0656,-4.6547,-4.2195,-3.7444,-3.3269,-3.1262,-3.1262,-3.1262,-3.1262,-3.1262,-3.1262,-3.0863,-2.9289,-1.9914,-1.5625,-1.3291,-0.3919,-0.0393,0.0,0.0,0.0,0.0,0.0,0.0,0.0,0.0,0.0,0.0,0.0,0.0,0.0,0.0,0.0,0.0,0.0,0.0,0.0,0.0,0.0,0.0,0.0,0.0,0.0,0.0,0.0,0.0,0.0,0.0,0.0,0.0,0.0,0.0,0.0,0.0,0.0,0.0,0.0,0.0,0.0,0.0,0.0,0.0,0.0371,0.555,1.4764,1.5869,2.1021,2.9509,2.9509,2.9496,-8.0984,-8.4349,-8.8686,-9.3508,0.0,0.0,-11.6705,-12.4084,-13.1019,-13.5701,-14.0206,-14.3309,-14.3878,-14.8201,-14.9758,-14.3589,-14.5801,-14.7272,-14.4665,-14.2516,-14.0194,-13.7411,-13.4621,-13.2111,-12.9609,-12.673,-12.4046,-12.1541,-11.7674,-11.2633,-10.5717,-9.6564,-8.9838,-8.6981,-7.9064,-7.3377,-6.986,-6.6035,-6.1758,-5.7653,-5.5127,-5.1339,-4.6736,-4.2559,-3.7783,-3.3396,-3.1765,-3.1262,-3.1262,-3.1262,-3.1262,-3.1262,-3.1262,-3.1262,-3.0863,-2.6167,-2.2643,-1.9136,-1.173,-0.7047,-0.3919,-0.1177,0.0,0.0,0.0,0.0,0.0,0.0,0.0,0.0,0.0,0.0,0.0,0.0,0.0,0.0,0.0,0.0,0.0,0.0,0.0,0.0,0.0,0.0,0.0,0.0,0.0,0.0,0.0,0.0,0.0,0.0,0.0,0.0,0.0,0.0,0.0,0.0,0.0,0.0,0.0,0.0,0.0,0.0,0.0,0.4812,1.4764,1.4764,1.9911,2.9509,2.9509,2.9509,-8.2031,0.0,0.0,0.0,0.0,0.0,-12.2057,-12.9085,-13.453,-13.6045,-14.0872,-14.4597,-14.378,-14.8261,-15.0005,-14.3999,-14.5823,-14.6847,-14.3698,-14.0591,-13.7457,-13.4735,-13.0968,-12.8217,-12.7051,-12.4363,-12.126,-11.7951,-11.4708,-11.0411,-10.5086,-9.6334,-8.9549,-8.5527,-7.7301,-7.1734,-6.9411,-6.4404,-6.0462,-5.7316,-5.2884,-4.8489,-4.3527,-3.9278,-3.4833,-3.0432,-3.1012,-3.1262,-3.1262,-3.1262,-3.1262,-3.1262,-3.1262,-3.0476,-2.8902,-2.7341,-2.3818,-1.835,-1.2901,-0.8609,-0.5092,-0.1177,0.0,0.0,0.0,0.0,0.0,0.0,0.0,0.0,0.0,0.0,0.0,0.0,0.0,0.0,0.0,0.0,0.0,0.0,0.0,0.0,0.0,0.0,0.0,0.0,0.0,0.0,0.0,0.0,0.0,0.0,0.0,0.0,0.0,0.0,0.0,0.0,0.0,0.0,0.0,0.0,0.0,0.0,0.0,0.4812,1.4764,1.4764,1.9911,2.9509,2.9509,2.9509,0.0,0.0,0.0,-10.3763,-11.0859,-11.8224,-12.6735,-13.1302,-13.5226,-14.057,-14.3371,-14.5193,-14.6245,-14.9491,-15.013,-14.4469,-14.4971,-14.3936,-13.7544,-13.6786,-13.4735,-12.9348,-12.8707,-12.7208,-12.318,-12.2615,-11.9883,-11.3542,-11.2752,-10.8339,-9.7896,-9.3726,-8.8429,-8.1515,-7.2493,-6.8381,-6.9411,-6.1029,-5.6744,-5.7316,-5.2884,-4.8489,-4.3527,-3.9278,-3.4833,-3.0432,-3.1012,-3.1262,-3.1262,-3.1262,-3.1262,-3.1262,-3.1262,-2.8116,-2.3032,-1.7961,-1.2896,-0.7435,-0.2354,-0.0393,-0.0393,0.0,0.0,0.0,0.0,0.0,0.0,0.0,0.0,0.0,0.0,0.0,0.0,0.0,0.0,0.0,0.0,0.0,0.0,0.0,0.0,0.0,0.0,0.0,0.0,0.0,0.0,0.0,0.0,0.0,0.0,0.0,0.0,0.0,0.0,0.0,0.0,0.0,0.0,0.0,0.0,0.0,0.0,0.0,0.0,0.4812,1.4764,1.4764,1.9911,2.9509,2.9509,2.9509,-9.0639,-9.6406,-10.2712,-11.3333,-12.0303,-12.593,-13.1152,-13.4465,-13.7193,-13.9781,-14.2704,-14.4844,-14.5041,-14.7418,-14.7962,-14.3857,-14.2258,-14.0296,-13.7054,-13.3524,-13.0552,-12.8707,-12.6871,-12.4172,-11.9653,-11.9308,-11.6618,-10.9962,-10.9457,-10.5818,-9.7668,-9.3444,-8.9294,-8.4427,-7.8744,-7.3289,-6.8063,-5.9884,-5.6173,-5.6744,-4.9166,-4.4967,-4.3527,-3.5994,-3.1881,-3.0432,-3.1012,-3.1262,-3.1262,-3.1262,-3.1262,-3.1262,-3.1262,-3.0076,-2.8116,-2.2643,-1.9906,-1.6786,-0.8217,-0.5092,-0.4701,-0.1177,0.0,0.0,0.0,0.0,0.0,0.0,0.0,0.0,0.0,0.0,0.0,0.0,0.0,0.0,0.0,0.0,0.0,0.0,0.0,0.0,0.0,0.0,0.0,0.0,0.0,0.0,0.0,0.0,0.0,0.0,0.0,0.0,0.0,0.0,0.0,0.0,0.0,0.1515,0.4836,0.4819,0.6287,0.9608,0.6657,0.9608,1.9553,1.6237,1.9911,2.9509,2.9509,2.9509,-9.5274,-10.1923,-10.8869,-12.0149,-12.6473,-13.0786,-13.4548,-13.7002,-13.8674,-13.9624,-14.2407,-14.4489,-14.41,-14.525,-14.526,-14.2051,-13.9207,-13.6676,-13.4119,-13.0441,-12.7581,-12.7251,-12.5245,-12.2177,-11.791,-11.7563,-11.4835,-10.8239,-10.7727,-10.3987,-9.5685,-9.2835,-8.8878,-8.3731,-8.1461,-7.5924,-6.7672,-5.9464,-5.4856,-5.3669,-4.6469,-4.2332,-4.1001,-3.3789,-3.0405,-3.0432,-3.1012,-3.1262,-3.1262,-3.1262,-3.1262,-3.1262,-2.9289,-2.7341,-2.4992,-1.9906,-1.6793,-1.4066,-0.7435,-0.5092,-0.4309,-0.1177,0.0,0.0,0.0,0.0,0.0,0.0,0.0,0.0,0.0,0.0,0.0,0.0,0.0,0.0,0.0,0.0,0.0,0.0,0.0,0.0,0.0,0.0,0.0,0.0,0.0,0.0,0.0,0.0,0.0,0.0,0.1569,0.2745,0.2745,0.4311,0.544,0.5338,0.5331,0.6791,0.9982,0.9973,1.1448,1.4764,0.9973,1.3285,2.4718,1.992,2.1755,2.9509,2.9509,2.9509,-9.9152,-10.6467,-11.4042,-12.4329,-12.9291,-13.2736,-13.6839,-13.8746,-13.9695,-14.0246,-14.2409,-14.4016,-14.3498,-14.3149,-14.2104,-13.9157,-13.6412,-13.2984,-12.8949,-12.698,-12.5543,-12.4128,-12.2803,-12.0858,-11.7328,-11.7092,-11.4352,-10.7983,-10.747,-10.2881,-9.1985,-9.1416,-8.8009,-8.0334,-7.9729,-7.5888,-6.7672,-5.9763,-5.3773,-4.9137,-4.5035,-4.0896,-3.6682,-3.232,-3.0405,-3.0432,-3.1012,-3.1262,-3.1262,-3.1262,-3.1262,-3.0863,-2.537,-2.0303,-1.5242,-0.9777,-0.4701,-0.0393,0.0,0.0,0.0,0.0,0.0,0.0,0.0,0.0,0.0,0.0,0.0,0.0,0.0,0.0,0.0,0.0,0.0,0.0,0.0,0.0,0.0,0.0,0.0,0.0,0.0,0.0,0.0,0.0,0.0,0.0,0.0404,0.0,0.0397,0.0786,0.5092,0.7826,0.8217,1.2896,1.5506,1.5208,1.5188,1.5056,1.5139,1.5133,1.5133,1.5494,1.0711,1.5126,2.9509,2.4718,2.4718,2.9509,2.9509,2.9509,-10.5234,-11.3577,-11.9807,-13.0941,-13.3202,-13.3523,-13.6665,-13.7921,-13.894,-14.0669,-14.2526,-14.3205,-14.1616,-14.2245,-14.1161,-13.5264,-13.2818,-13.0216,-12.6057,-12.2344,-11.9712,-11.9473,-11.6841,-11.3921,-11.0464,-11.0213,-10.8494,-10.4334,-10.4119,-10.0444,-9.1701,-9.1416,-8.8009,-8.0334,-7.6842,-7.2736,-6.7357,-6.2161,-5.6045,-4.8931,-4.4561,-4.0119,-3.632,-3.2221,-3.0405,-3.0432,-3.1012,-3.1262,-3.1262,-3.1262,-3.1262,-3.0863,-2.537,-2.2634,-2.0303,-1.1335,-0.7044,-0.5092,-0.1177,0.0,0.0,0.0,0.0,0.0,0.0,0.0,0.0,0.0,0.0,0.0,0.0,0.0,0.0,0.0,0.0,0.0,0.0,0.0,0.0,0.0,0.0,0.0,0.0,0.0,0.0,0.0,0.0,0.1601,0.523,0.2385,0.3146,1.0954,0.9386,0.9386,1.3286,1.4845,1.5506,1.5208,1.5188,1.6564,2.0305,2.0287,2.2131,2.5816,2.1021,2.2131,2.9509,2.4718,2.4718,2.9509,2.9509,2.9509,-10.4689,-11.6044,-12.545,-13.3794,-13.4949,-13.4657,-13.7026,-13.8065,-13.8988,-14.1016,-14.1826,-14.2219,-14.1922,-14.0046,-13.6977,-13.2465,-12.944,-12.6352,-12.1949,-11.924,-11.7092,-11.561,-11.3975,-11.1516,-10.7983,-10.7727,-10.628,-10.3154,-10.1177,-9.7714,-9.1701,-8.97,-8.6302,-8.0334,-7.5888,-7.1771,-6.7357,-6.3264,-5.7958,-5.1459,-4.513,-3.8779,-3.3022,-3.0959,-3.0274,-3.0432,-3.1012,-3.1262,-3.1262,-3.1262,-3.0076,-2.7329,-2.2255,-1.8739,-1.5618,-0.7435,-0.4311,-0.3919,-0.1177,0.0,0.0,0.0,0.0,0.0,0.0,0.0,0.0,0.0,0.0,0.0,0.0,0.0,0.0,0.0,0.0,0.0,0.0,0.0,0.0,0.0,0.0,0.0785,0.3137,0.1587,0.1602,0.6002,0.48,0.5198,1.0387,0.8689,0.8999,1.4852,1.4845,1.6014,1.8739,2.108,2.2461,2.1662,2.2011,2.2951,2.5473,2.545,2.656,2.9509,2.6926,2.6926,2.9509,2.6926,2.6926,2.9509,2.9509,2.9443,-10.277,-11.6328,-12.9087,-13.3669,-13.4728,-13.5183,-13.7401,-13.8501,-13.9638,-14.1558,-14.1317,-14.1267,-14.1882,-13.6801,-13.2107,-13.0283,-12.6871,-12.2983,-11.8724,-11.7563,-11.5904,-11.2998,-11.2012,-11.0266,-10.7264,-10.7006,-10.5759,-10.3154,-9.9405,-9.5406,-9.1701,-8.7719,-8.4028,-8.0334,-7.5274,-7.1149,-6.7357,-6.2624,-5.8524,-5.4693,-4.5698,-3.7105,-2.906,-2.9641,-3.0063,-3.0379,-3.0986,-3.1262,-3.1262,-3.0476,-2.7717,-2.3032,-1.6793,-1.173,-0.7044,-0.1961,0.0,0.0,0.0,0.0,0.0,0.0,0.0,0.0,0.0,0.0,0.0,0.0,0.0,0.0,0.0,0.0,0.0,0.0,0.0,0.0,0.0,0.0,0.0393,0.0785,0.1177,0.2745,0.7826,0.5168,0.5215,1.4304,1.1584,1.0804,1.5863,1.6109,1.6021,1.7579,2.108,2.3808,2.4584,2.8515,3.1012,3.0432,3.0405,3.0128,2.9535,2.9509,2.9509,2.9509,2.9509,2.9509,2.9509,2.9509,2.9496,2.9456,2.9456,2.9324,-11.0982,-11.8903,-12.4837,-12.9996,-13.1568,-13.2801,-13.6201,-13.8181,-14.0188,-14.3652,-14.3521,-14.1276,-13.6832,-13.4039,-13.1501,-12.7663,-12.5462,-12.3726,-12.1997,-11.7148,-11.3434,-11.2752,-10.7829,-10.4384,-10.3588,-10.3588,-10.3372,-10.2887,-9.9405,-9.5406,-9.1701,-8.7719,-8.4028,-8.0334,-7.2426,-6.8301,-6.7357,-5.979,-5.5675,-5.4693,-4.5686,-3.6709,-2.8744,-2.9324,-2.9746,-3.0076,-3.0906,-3.1262,-3.0863,-2.6554,-2.4196,-2.2634,-1.2896,-0.8605,-0.7044,-0.1961,0.0,0.0,0.0,0.0,0.0,0.0,0.0,0.0,0.0,0.0,0.0,0.0,0.0,0.0,0.0,0.0,0.0,0.0,0.0,0.0,0.0,0.0,0.1177,0.5482,0.6265,0.8217,1.3286,1.3409,1.3533,1.5609,1.5147,1.6272,2.1375,1.8459,1.8747,2.7729,2.538,2.537,2.9689,3.0863,3.1012,3.0432,3.0405,3.0128,2.9535,2.9509,2.9509,2.9509,2.9509,2.9509,2.9509,2.9509,2.939,2.9179,2.9179,2.914,-11.1334,-11.8856,-12.4976,-12.9192,-13.0598,-13.2046,-13.6038,-13.7988,-13.9692,-14.2498,-14.0616,-13.7513,-13.4059,-13.1127,-12.8355,-12.5753,-12.2754,-11.9989,-11.7731,-11.3189,-10.9509,-10.7829,-10.4861,-10.2887,-10.2887,-10.1129,-9.9997,-9.9997,-9.4568,-9.0274,-8.8589,-8.4874,-8.2022,-8.0032,-7.1805,-6.7357,-6.7357,-5.9144,-5.4693,-5.4693,-4.7972,-4.1467,-3.5055,-3.0734,-2.9245,-3.001,-3.088,-3.1262,-3.0863,-2.5768,-2.1857,-1.8739,-1.0944,-0.6265,-0.3527,-0.0785,0.0,0.0,0.0,0.0,0.0,0.0,0.0,0.0,0.0,0.0,0.0,0.0,0.0,0.0,0.0,0.0,0.0,0.0,0.0,0.0785,0.3527,0.3919,0.5484,1.0949,1.1725,1.2505,1.5242,1.8106,2.1016,2.3895,2.1832,2.1732,2.6745,2.5445,2.5768,3.0863,2.8902,2.8503,3.1262,3.1262,3.1012,3.0432,3.0405,3.0128,2.9535,2.9509,2.9509,2.9509,2.9509,2.9443,2.9298,2.9298,2.9153,2.8876,2.9034,2.9021,-11.0799,-11.8816,-12.5629,-12.8307,-12.9245,-13.0829,-13.5565,-13.6972,-13.782,-13.9891,-13.7499,-13.4463,-13.246,-12.8826,-12.5642,-12.3965,-11.9805,-11.561,-11.3243,-10.971,-10.6747,-10.407,-10.3568,-10.2814,-10.1764,-9.9047,-9.7071,-9.6008,-8.97,-8.5716,-8.5716,-8.2022,-7.9729,-7.8744,-7.146,-6.7041,-6.6094,-5.8524,-5.4693,-5.4693,-4.9321,-4.462,-4.0915,-3.3109,-2.981,-2.9917,-3.0854,-3.1262,-3.0863,-2.4594,-1.9525,-1.4852,-0.8609,-0.3527,0.0,0.0,0.0,0.0,0.0,0.0,0.0,0.0,0.0,0.0,0.0,0.0,0.0,0.0,0.0,0.0,0.0,0.0,0.0,0.0,0.0785,0.3137,0.8217,0.9386,1.0944,1.6404,1.7183,1.7579,1.8747,2.2854,2.697,3.0836,2.8033,2.6768,3.0889,3.1262,3.1262,3.1262,3.1262,3.1262,3.1262,3.1262,3.1012,3.0432,3.0405,3.0128,2.9535,2.9509,2.9509,2.9509,2.9456,2.9311,2.91,2.9034,2.8849,2.8559,2.8863,2.8876,-11.4377,-12.0563,-12.396,-12.4694,-12.5431,-12.7496,-13.3619,-13.3912,-13.3789,-13.6434,-13.686,-13.5299,-13.1125,-12.7793,-12.4947,-12.211,-11.6964,-11.2998,-11.2752,-10.971,-10.747,-10.7264,-10.5393,-10.2458,-9.8083,-9.8273,-9.6687,-9.2357,-8.8009,-8.5716,-8.5716,-8.2022,-7.844,-7.4316,-6.9901,-6.546,-6.1663,-5.7253,-5.4693,-5.4693,-4.5955,-4.1586,-4.0915,-3.6243,-3.2258,-2.9614,-3.0761,-3.1262,-3.0476,-2.0303,-1.6021,-1.4456,-0.4703,-0.0393,0.0,0.0,0.0,0.0,0.0,0.0,0.0,0.0,0.0,0.0,0.0,0.0,0.0,0.0,0.0,0.0,0.0,0.0,0.0,0.0,0.3521,0.8605,1.3676,1.4852,1.6404,2.1857,2.2643,2.4206,2.8902,3.052,3.1501,3.1381,3.0902,3.0889,3.1262,3.1262,3.1262,3.1262,3.1262,3.1262,3.1262,3.1262,3.1012,3.0432,3.0405,3.0128,2.9535,2.9509,2.9509,2.9509,2.9271,2.9126,2.91,2.8823,2.8533,2.8256,2.8559,2.8678,-10.7468,-11.4235,-11.9511,-12.2346,-12.4239,-12.6344,-12.9569,-13.1375,-13.2682,-13.4239,-13.2388,-13.044,-13.0411,-12.5291,-12.1369,-12.2578,-11.5522,-10.971,-10.971,-10.6798,-10.4218,-10.2247,-10.0888,-9.8689,-9.4857,-9.24,-9.0341,-8.8764,-8.4604,-8.2517,-8.3025,-7.8589,-7.5581,-7.3663,-6.7041,-6.2624,-6.1021,-5.6927,-5.3354,-5.0668,-4.6975,-4.2592,-3.7206,-3.2518,-3.0156,-2.9535,-3.001,-3.0603,-3.0476,-1.9914,-1.3676,-1.0168,-0.2745,0.0,0.0,0.0,0.0,0.0,0.0,0.0,0.0,0.0,0.0,0.0,0.0,0.0,0.0,0.0,0.0,0.0,0.0,0.0,0.0785,0.3912,0.6259,1.0164,1.835,2.0303,2.1857,2.7329,2.8116,2.8902,3.0863,3.1592,3.1724,3.1315,3.1407,3.146,3.1289,3.1262,3.1262,3.1262,3.1262,3.1262,3.1262,3.1262,3.1012,3.0432,3.0405,3.0128,2.9535,2.9509,2.943,2.9271,2.9153,2.8929,2.8559,2.8441,2.8322,2.8217,2.8507,2.8744,-10.2113,-10.9619,-11.6265,-11.9851,-12.2982,-12.519,-12.5807,-12.8874,-13.1169,-13.0154,-12.8792,-12.8196,-13.0216,-12.3997,-11.9598,-12.1891,-11.3052,-10.5926,-10.6229,-10.3224,-10.0377,-9.8503,-9.6877,-9.4723,-9.1359,-8.8219,-8.5951,-8.4867,-8.1771,-7.9652,-7.8915,-7.5561,-7.2391,-6.9867,-6.419,-6.0406,-5.9144,-5.6302,-5.2696,-4.7995,-4.6643,-4.1251,-3.2503,-2.9142,-2.8375,-2.939,-2.9482,-2.937,-2.8407,-2.1062,-1.4066,-0.7435,-0.1961,0.0,0.0,0.0,0.0,0.0,0.0,0.0,0.0,0.0,0.0,0.0,0.0,0.0,0.0,0.0,0.0,0.0,0.0,0.0,0.157,0.8609,1.0168,1.2896,2.342,2.5768,2.6942,3.0476,3.1262,3.1262,3.1262,3.1579,3.1698,3.1315,3.1579,3.1684,3.1302,3.1262,3.1262,3.1262,3.1262,3.1262,3.1262,3.1262,3.1012,3.0432,3.0405,3.0128,2.9535,2.943,2.9298,2.91,2.8929,2.8625,2.8203,2.8124,2.8124,2.8217,2.8507,2.881,-10.0915,-10.8555,-11.5194,-11.7265,-12.0928,-12.364,-12.3037,-12.6347,-12.8231,-12.3165,-12.6762,-13.076,-13.0433,-12.5364,-12.0609,-11.8998,-10.8988,-10.1666,-10.274,-9.9725,-9.7486,-9.8177,-9.5198,-9.1445,-8.732,-8.7022,-8.5246,-8.0372,-8.0032,-7.8136,-7.4007,-7.3663,-6.9867,-6.1342,-6.1021,-5.9144,-5.5021,-5.4719,-5.2696,-4.7995,-4.3262,-3.6547,-2.7795,-2.7795,-2.8269,-2.9126,-2.939,-2.6999,-2.3122,-2.3331,-1.7183,-0.7435,-0.1961,0.0,0.0,0.0,0.0,0.0,0.0,0.0,0.0,0.0,0.0,0.0,0.0,0.0,0.0,0.0,0.0,0.0,0.0,0.0,0.2746,1.2901,1.5625,1.8358,2.8902,3.1262,3.1262,3.1262,3.1262,3.1262,3.1262,3.1737,3.1922,3.1342,3.175,3.1908,3.1328,3.1262,3.1262,3.1262,3.1262,3.1262,3.1262,3.1262,3.1012,3.0432,3.0405,3.0128,2.9535,2.9245,2.91,2.91,2.852,2.8217,2.8203,2.794,2.794,2.8217,2.8507,2.881,-9.7038,-10.399,-11.0337,-11.2989,-11.7426,-12.1244,-12.1343,-12.4834,-12.7208,-12.3715,-12.5544,-12.7097,-12.5805,-11.6186,-10.9846,-11.3643,-10.6954,-10.0532,-9.8001,-9.7523,-9.5761,-9.1922,-8.9519,-8.691,-8.4009,-8.281,-8.2003,-8.0829,-7.7784,-7.5489,-7.44,-6.8561,-6.3871,-6.1021,-5.82,-5.6302,-5.4719,-5.1683,-4.7972,-4.3262,-3.8895,-3.3525,-2.7795,-2.7795,-2.8269,-2.9113,-2.939,-2.6999,-2.2739,-1.9451,-1.4066,-0.7435,-0.1961,0.0,0.0,0.0,0.0,0.0,0.0,0.0,0.0,0.0,0.0,0.0,0.0,0.0,0.0,0.0,0.0,0.0,0.0,0.2745,0.7044,1.4072,1.835,2.3032,2.9689,3.1262,3.1262,3.1262,3.1262,3.1262,3.1262,3.1407,3.1473,3.1289,3.1407,3.146,3.1289,3.1262,3.1262,3.1262,3.1262,3.1262,3.1262,3.1262,3.1012,3.0432,3.0208,2.9838,2.9258,2.914,2.8902,2.8493,2.8309,2.8111,2.7927,2.8032,2.823,2.852,2.8823,2.9113,-9.5385,-10.1954,-10.8261,-11.189,-11.5759,-11.8754,-11.888,-12.2987,-12.5877,-12.2858,-12.3826,-12.4324,-12.1446,-11.2487,-10.7095,-11.1917,-10.5507,-9.8749,-9.5724,-9.3577,-9.1435,-8.8466,-8.5406,-8.3248,-8.262,-8.0981,-7.9614,-7.8497,-7.5525,-7.2598,-6.9869,-6.4084,-6.0406,-5.882,-5.6302,-5.4693,-5.4693,-5.0338,-4.5621,-4.1251,-3.4869,-3.0498,-2.7795,-2.79,-2.8309,-2.8955,-2.9469,-2.5906,-1.956,-1.6708,-1.134,-0.4701,-0.1177,0.0,0.0,0.0,0.0,0.0,0.0,0.0,0.0,0.0,0.0,0.0,0.0,0.0,0.0,0.0,0.0,0.0,0.0,0.3909,0.8958,1.4449,1.9467,2.4876,3.0063,3.1262,3.1262,3.1262,3.1262,3.1262,3.1262,3.1355,3.1394,3.1276,3.1355,3.1381,3.1276,3.1262,3.1262,3.1262,3.1262,3.1262,3.1262,3.1157,3.0893,3.0432,3.001,2.9575,2.9126,2.8889,2.8586,2.8217,2.8111,2.7966,2.7795,2.8072,2.8362,2.8652,2.8955,2.9245,-9.5286,-10.1841,-10.8376,-11.2558,-11.5038,-11.6333,-11.6226,-12.0846,-12.426,-12.1097,-12.2502,-12.2677,-11.7464,-11.3046,-11.0494,-11.1398,-10.4295,-9.7689,-9.5716,-8.9742,-8.6639,-8.8466,-8.3719,-8.0715,-8.1998,-8.033,-7.749,-7.3663,-7.3045,-6.9242,-6.1342,-6.0728,-5.882,-5.5021,-5.4693,-5.4693,-5.4693,-5.0007,-4.5288,-4.0578,-3.1851,-2.7795,-2.7808,-2.8085,-2.8011,-2.7981,-2.8843,-2.371,-1.4462,-1.4738,-0.8999,0.0,0.0,0.0,0.0,0.0,0.0,0.0,0.0,0.0,0.0,0.0,0.0,0.0,0.0,0.0,0.0,0.0,0.0,0.0,0.0,0.3891,0.9279,1.44,1.9746,2.5069,2.9974,3.1196,3.1196,3.1196,3.121,3.1236,3.1236,3.1473,3.1579,3.1328,3.1513,3.1579,3.1328,3.1276,3.1262,3.1262,3.1262,3.1262,3.1262,3.1012,3.0695,3.0366,2.9799,2.9351,2.9047,2.8507,2.8203,2.8177,2.7927,2.7808,2.7834,2.8111,2.8388,2.8691,2.8995,2.9271,-9.3864,-9.969,-10.5021,-10.6337,-11.0531,-11.4999,-11.7467,-11.9377,-12.1204,-12.2967,-12.3595,-12.2727,-11.835,-11.3942,-10.7824,-9.7688,-10.3449,-10.596,-9.6634,-9.7516,-9.7621,-9.3962,-8.5847,-8.0023,-7.7774,-7.3288,-6.9901,-6.8928,-6.5777,-6.3233,-6.1021,-5.7875,-5.5975,-5.4693,-5.4693,-5.4693,-5.4693,-4.6953,-4.0578,-3.6209,-3.0498,-2.7795,-2.7808,-2.8085,-2.6229,-2.2942,-2.364,-1.9197,-1.1437,-1.0095,-0.5876,0.0,0.0,0.0,0.0,0.0,0.0,0.0,0.0,0.0,0.0,0.0,0.0,0.0,0.0,0.0,0.0,0.0,0.0,0.0,0.0,0.6574,1.3851,1.4925,2.2126,2.8987,3.0198,3.0603,3.0603,3.0603,3.0775,3.092,3.092,3.117,3.1421,3.1579,3.146,3.1421,3.1579,3.1394,3.1262,3.1262,3.1262,3.1262,3.1262,3.1196,3.0748,2.9786,2.939,2.8968,2.8441,2.8283,2.8111,2.79,2.7834,2.79,2.8111,2.8401,2.8704,2.9008,2.9285,2.9456,-9.4407,-9.9664,-10.4474,-10.5322,-11.0053,-11.4884,-11.6182,-11.8383,-12.0666,-12.1867,-12.3306,-12.2557,-11.6974,-11.6359,-11.3035,-10.2359,-10.3385,-10.2597,-9.4722,-9.2902,-9.1322,-8.9079,-8.2433,-7.7737,-7.619,-7.0733,-6.6726,-6.4508,-6.2304,-6.0084,-5.8172,-5.5975,-5.4693,-5.4693,-5.4693,-5.3708,-5.1683,-4.462,-3.8895,-3.4529,-2.9813,-2.7795,-2.7808,-2.823,-2.5633,-2.115,-2.1144,-1.5485,-0.5717,-0.4657,-0.2351,0.0,0.0,0.0,0.0,0.0,0.0,0.0,0.0,0.0,0.0,0.0,0.0,0.0,0.0,0.0,0.0,0.0,0.0,0.0,0.0,0.7287,1.4829,1.5188,2.2696,3.0234,3.0366,3.0405,3.0405,3.0405,3.0524,3.0669,3.0801,3.0946,3.1157,3.146,3.1368,3.1315,3.1473,3.1355,3.1262,3.1262,3.1262,3.1262,3.1262,3.1131,3.0735,2.997,2.9522,2.8968,2.8243,2.8085,2.7953,2.7795,2.7927,2.8058,2.8203,2.8652,2.8942,2.9113,2.939,2.9509,-9.5903,-10.0687,-10.5154,-10.6729,-11.0817,-11.4471,-11.4299,-11.746,-12.0238,-11.9775,-12.1817,-12.1752,-11.6113,-11.8212,-11.916,-11.3886,-10.4156,-9.6062,-9.3312,-8.5608,-8.0843,-8.2089,-7.7462,-7.3943,-7.4415,-6.899,-6.4054,-6.055,-6.0141,-5.8496,-5.5021,-5.4693,-5.4693,-5.4693,-5.4693,-5.2342,-4.6975,-4.3262,-3.8557,-3.3525,-2.9484,-2.7795,-2.7821,-2.8388,-2.5776,-2.0794,-1.8261,-1.0615,0.0,0.0,0.0,0.0,0.0,0.0,0.0,0.0,0.0,0.0,0.0,0.0,0.0,0.0,0.0,0.0,0.0,0.0,0.0,0.0,0.0,0.0,0.0773,0.7984,1.5003,1.5855,2.3284,2.9957,3.0208,3.026,3.026,3.026,3.03,3.0419,3.0709,3.0788,3.0933,3.1276,3.1289,3.1276,3.1315,3.1289,3.1262,3.1262,3.1262,3.1262,3.1262,3.0986,3.0695,3.0419,2.9799,2.91,2.8309,2.8006,2.7861,2.7861,2.8085,2.8256,2.8348,2.8849,2.9126,2.9166,2.9403,2.9509,-9.7136,-10.1454,-10.512,-10.7476,-10.9137,-11.1269,-11.5148,-11.6059,-11.6661,-11.9252,-11.9221,-11.9004,-12.0346,-11.6609,-11.4592,-11.8193,-10.8108,-9.9475,-9.8799,-9.2908,-8.8167,-8.7276,-7.6921,-6.8926,-6.6005,-6.0691,-5.7078,-5.6442,-5.5966,-5.5348,-5.4693,-5.4693,-5.4693,-5.4693,-5.4693,-5.0668,-4.2257,-4.1586,-3.6886,-2.8812,-2.8138,-2.7795,-2.7821,-2.8388,-2.5042,-1.8627,-0.7821,-0.1898,0.0,0.0,0.0,0.0,0.0,0.0,0.0,0.0,0.0,0.0,0.0,0.0,0.0,0.0,0.0,0.0,0.0,0.0,0.0,0.0,0.0,0.1159,0.5356,1.0583,1.5702,2.0045,2.553,2.9588,2.9641,2.9654,2.9654,2.9654,2.9852,3.0115,3.0405,3.0656,3.0999,3.1552,3.1421,3.1355,3.1605,3.1421,3.1262,3.1262,3.1262,3.1262,3.1262,3.0986,3.0695,3.0419,2.9614,2.8995,2.8599,2.8296,2.8151,2.8151,2.819,2.8454,2.8968,2.906,2.9219,2.9456,2.9496,2.9509,-9.7435,-10.2349,-10.7998,-11.1755,-11.2537,-11.3022,-11.5182,-11.5384,-11.5456,-11.6855,-11.7405,-11.7873,-11.906,-11.7505,-11.6306,-11.7541,-11.2798,-10.6821,-10.0984,-9.0602,-8.1933,-7.8011,-7.0603,-6.5342,-6.4205,-5.9185,-5.5939,-5.5628,-5.5342,-5.5056,-5.4719,-5.4693,-5.4693,-5.4693,-5.4693,-4.9298,-3.7882,-3.7544,-3.4189,-2.7795,-2.7795,-2.7795,-2.7821,-2.8037,-2.4054,-1.663,-1.6103,-0.9918,0.0,0.0,0.0,0.0,0.0,0.0,0.0,0.0,0.0,0.0,0.0,0.0,0.0,0.0,0.0,0.0,0.0,0.0,0.0,0.0,0.0,0.1149,0.606,1.1238,1.5954,2.1049,2.5828,2.9509,2.9509,2.9509,2.9509,2.9509,2.9627,2.9812,3.0115,3.026,3.0498,3.0933,3.1012,3.1065,3.121,3.1249,3.2395,3.5049,3.5433,3.5433,3.5433,3.7209,3.8677,3.8509,3.7471,3.6783,3.6616,3.6046,3.4807,3.2243,2.9999,2.8823,2.91,2.9258,2.939,2.9509,2.9509,2.9509,-9.9747,0.0,-11.1229,-11.5101,-11.5613,-11.5111,0.0,-11.5049,-11.4888,-11.4174,-11.5085,-11.5981,-11.618,-11.7298,-11.7556,-11.5215,-11.5638,-11.2522,-10.1638,-9.0627,-8.0024,-7.0759,-6.63,-6.3854,-6.272,-5.8942,-5.6459,-5.6017,-5.5758,-5.5394,-5.4953,-5.3759,-5.3354,-5.3354,-5.2746,-4.6288,-3.309,-3.309,-3.1108,-2.7795,-2.7795,-2.7795,-2.7821,-2.8115,-2.4557,-1.8582,-2.1502,-1.3821,0.0,0.0,0.0,0.0,0.0,0.0,0.0,0.0,0.0,0.0,0.0,0.0,0.0,0.0,0.0,0.0,0.0,0.0,0.0,0.0,0.0,0.1513,0.7492,1.1859,1.6178,2.2427,2.6877,2.9509,2.9509,2.9509,2.9509,2.9509,2.9509,2.9601,2.9904,2.9891,2.997,3.0339,3.1697,3.2607,3.2691,3.4106,3.6186,4.0345,4.0726,4.0726,4.0726,4.4498,4.6203,4.5102,4.4002,4.3294,4.3196,4.2894,4.0241,3.5947,3.2471,3.0166,2.91,2.9377,2.9509,2.9509,2.9509,2.9509,0.0,-11.0897,-11.3821,-11.4909,-11.5122,-11.5101,-11.5039,-11.5148,0.0,-11.1488,-11.1035,-11.1437,-11.2737,-11.4013,-11.4487,-11.2628,-11.4605,-11.2706,-10.234,-10.1001,-9.422,-7.5976,-6.9683,-6.4701,-5.914,-5.7446,-5.6843,-5.6817,-5.6199,-5.5576,-5.555,-5.0957,-4.8659,-4.8659,-4.7176,-4.0636,-2.8498,-2.8158,-2.8266,-2.7795,-2.7795,-2.7795,-2.7821,-2.7651,-2.807,-2.7422,-0.9849,-0.1157,0.0,0.0,0.0,0.0,0.0,0.0,0.0,0.0,0.0,0.0,0.0,0.0,0.0,0.0,0.0,0.0,0.0,0.0,0.0,0.0,0.0,0.2228,1.1464,1.4299,1.7099,2.6564,2.8961,2.9509,2.9509,2.9509,2.9509,2.9509,2.9509,2.9601,2.9904,2.9733,2.9733,3.0313,3.4474,3.7558,3.7899,4.2394,4.5663,4.6041,4.6022,4.6022,4.6022,4.9706,5.0265,4.5469,4.4277,4.3609,4.3196,4.3137,4.0821,3.5964,3.5621,3.3334,2.91,2.9377,2.9509,2.9509,2.9509,2.9509,-11.0524,-11.2641,-11.3699,-11.5973,-11.5831,-11.5122,-11.5125,-11.4266,-11.3017,-11.1018,-10.981,-10.9578,-11.0926,-11.2355,-11.2748,-11.097,-11.3059,-11.2114,-10.3613,-9.9016,-9.3186,-8.4393,-7.6156,-6.7903,-5.9112,-5.7798,-5.7218,-5.6474,-5.2451,-4.9839,-4.9526,-4.7623,-4.2968,-3.5631,-3.4852,-3.2192,-2.7676,-2.7676,-2.7716,-2.7795,-2.7795,-2.7887,-2.7724,-2.7753,-2.1609,-1.0735,-0.3429,0.0,0.0,0.0,0.0,0.0,0.0,0.0,0.0,0.0,0.0,0.0,0.0,0.0,0.0,0.0,0.0,0.0,0.0,0.0,0.0,0.0,0.0,0.2217,1.1994,1.4447,1.6951,2.6864,2.9179,2.9298,2.9469,2.9509,2.9509,2.9509,2.9509,2.9548,2.9654,3.2104,3.4334,3.4793,3.9081,4.2693,4.3101,4.5016,4.7552,5.096,5.1335,5.2459,5.5492,5.7089,5.6649,5.4778,5.3833,5.3172,5.3336,5.2345,4.8536,4.0877,4.0413,3.6611,2.9364,2.9456,2.9509,2.9509,2.9509,3.1304,-11.3265,-11.3882,-11.4329,-11.7374,-11.6984,-11.5719,-11.5191,-11.4269,-11.2736,-11.0431,-10.971,-10.9705,-11.0356,-11.1732,-11.2233,-11.0784,-11.1592,-11.0687,-10.6098,-9.7834,-9.0976,-8.8053,-7.618,-6.5636,-5.8765,-5.8263,-5.7937,-5.7141,-4.9703,-4.4884,-4.4261,-4.1506,-3.6157,-2.7912,-2.7716,-2.7795,-2.7795,-2.7795,-2.7795,-2.7795,-2.7795,-2.7646,-2.766,-2.8315,-1.8091,0.0,0.0,0.0,0.0,0.0,0.0,0.0,0.0,0.0,0.0,0.0,0.0,0.0,0.0,0.0,0.0,0.0,0.0,0.0,0.0,0.0,0.0,0.0,0.0,0.2203,1.1831,1.4255,1.6772,2.6608,2.8968,2.9153,2.9337,2.9456,2.9509,2.9509,2.9509,2.9874,3.1668,3.4451,3.7387,3.9314,4.3981,4.7688,4.8291,5.0263,5.2459,5.5889,5.6261,5.7772,6.118,6.103,6.0692,6.0692,5.9809,5.9212,5.903,5.6827,5.188,4.3845,4.1755,3.7135,2.9509,3.0954,3.1668,3.2032,3.3471,3.5976,-11.4422,-11.5247,-11.5976,-11.8846,-11.843,-11.7016,-11.5398,-11.5133,-11.3766,-10.9286,-11.0564,-11.2004,-11.0708,-11.2028,-11.3002,-11.2132,-10.9807,-10.8293,-10.9447,-9.9384,-8.9979,-8.5372,-6.8111,-5.6848,-5.8025,-5.8039,-5.7942,-5.7942,-4.7595,-4.1084,-4.1084,-3.2626,-2.7912,-2.7795,-2.7795,-2.7795,-2.7795,-2.7795,-2.7795,-2.7795,-2.7795,-2.775,-2.7955,-2.9039,-1.8682,0.0,0.0,0.0,0.0,0.0,0.0,0.0,0.0,0.0,0.0,0.0,0.0,0.0,0.0,0.0,0.0,0.0,0.0,0.0,0.0,0.0,0.0,0.0,0.0,0.2182,1.1361,1.4116,1.6578,2.6095,2.8665,2.91,2.91,2.9324,2.9509,2.9509,2.9509,3.1304,3.596,3.6386,3.8191,4.4014,4.9206,5.2825,5.3477,5.8193,6.1549,6.1549,6.1549,6.1549,6.1549,6.103,6.0718,6.0718,6.0173,5.9627,5.9056,5.4644,4.9346,4.3864,3.9187,3.4528,2.9874,3.4528,3.6682,3.7043,4.1699,4.3845,-11.3218,-11.4818,-11.664,-11.749,-11.6619,-11.534,-11.488,-11.4839,-11.4199,-11.1825,-11.0737,-11.0437,-11.0829,-11.0261,-10.8993,-10.6988,-10.2908,-9.8905,-9.5508,-8.4769,-7.7062,-7.5994,-6.4176,-5.4114,-4.8668,-4.2035,-3.8122,-3.8071,-3.4328,-3.2249,-3.1775,-3.0196,-2.8725,-2.7724,-2.79,-2.7795,-2.7795,-2.7795,-2.7887,-2.7737,-2.7737,-2.7775,-2.7784,-2.9825,-1.9632,0.0,0.0,0.0,0.0,0.0,0.0,0.0,0.0,0.0,0.0,0.0,0.0,0.0,0.0,0.0,0.0,0.0,0.0,0.0,0.0,0.0,0.0,0.0,0.0,0.0749,0.3278,0.8879,1.6454,2.629,2.8652,2.8902,2.9298,2.9456,2.9509,2.9509,3.2381,3.489,3.6321,4.2548,4.7914,4.9981,5.4763,5.8592,5.9323,6.0708,6.1549,6.1549,6.1549,6.1549,6.1549,6.1393,6.1315,6.1315,6.077,6.038,6.0199,5.7967,5.4571,4.9704,4.7574,4.4202,3.9546,4.0982,4.1699,4.1699,4.313,4.3845,-11.2465,-11.2996,-11.3764,-11.5913,-11.5288,-11.4206,-11.4655,-11.5222,-11.4814,-11.1718,-11.1445,-11.1738,-11.1538,-11.0528,-10.799,-10.293,-9.815,-9.1999,-8.301,-7.4286,-6.7775,-6.5428,-5.7713,-4.8774,-3.9103,-3.3067,-2.9473,-2.9433,-2.9087,-2.8942,-2.8586,-2.9293,-2.9185,-2.8217,-2.8045,-2.7913,-2.7795,-2.7795,-2.7874,-2.7698,-2.8151,-2.7955,-2.7706,-2.9997,-1.9761,0.0,0.0,0.0,0.0,0.0,0.0,0.0,0.0,0.0,0.0,0.0,0.0,0.0,0.0,0.0,0.0,0.0,0.0,0.0,0.0,0.0,0.0,0.0,0.0,0.0,0.0,0.6831,1.6189,2.5806,2.848,2.8744,2.91,2.9351,3.0239,3.2018,3.489,3.8159,4.2264,4.7914,5.271,5.5632,5.8617,6.09,6.1497,6.1549,6.1549,6.1549,6.1549,6.1549,6.1549,6.1549,6.1549,6.1549,6.1237,6.0926,6.0718,5.7988,5.5218,5.2097,4.9439,4.6694,4.3845,4.5627,4.6715,4.6715,4.8489,4.9551,-11.2006,-11.0754,-10.9513,-11.4352,-11.4435,-11.3478,-11.431,-11.554,-11.5137,-11.0251,-11.2227,-11.4219,-11.2299,-11.1109,-10.7702,-9.9472,-9.3587,-8.5379,-7.2159,-6.6315,-6.1125,-5.4983,-4.9635,-4.2016,-3.1357,-2.9754,-2.9509,-2.9509,-2.9647,-2.9513,-2.9513,-2.9487,-2.922,-2.8672,-2.8592,-2.8459,-2.7874,-2.7821,-2.7834,-2.7913,-2.8151,-2.8388,-2.7818,-2.7779,-1.755,0.0,0.0,0.0,0.0,0.0,0.0,0.0,0.0,0.0,0.0,0.0,0.0,0.0,0.0,0.0,0.0,0.0,0.0,0.0,0.0,0.0,0.0,0.0,0.0,0.0,0.0747,0.7313,1.6098,2.5206,2.7893,2.8625,2.8678,2.91,3.0913,3.596,3.7059,4.0427,5.0217,5.2189,5.4382,5.9784,6.0744,6.0952,6.1497,6.1549,6.1549,6.1549,6.1549,6.1549,6.1549,6.1549,6.1549,6.1549,6.1549,6.1315,6.0796,5.6091,5.3011,5.2548,4.768,4.4915,4.4915,4.9551,5.1691,5.1691,5.6001,5.8147,-11.0032,-11.1756,-11.314,-11.4344,-11.4156,-11.364,-11.2828,-11.375,-11.3854,-11.195,-11.1601,-11.1824,-11.2421,-10.3748,-9.5607,-9.2956,-8.0528,-6.9594,-6.5117,-5.6982,-5.1006,-5.0659,-4.327,-3.7358,-3.5502,-3.164,-2.9509,-2.9509,-2.9456,-2.943,-2.943,-2.9593,-2.942,-2.9286,-2.8819,-2.8646,-2.8467,-2.8019,-2.8137,-2.8453,-2.7968,-2.8367,-2.8832,-1.3577,-0.4202,0.0,0.0,0.0,0.0,0.0,0.0,0.0,0.0,0.0,0.0,0.0,0.0,0.0,0.0,0.0,0.0,0.0,0.0,0.0,0.0,0.0,0.0,0.0,0.0,0.0777,0.4948,1.0116,1.584,2.1487,2.589,2.8428,2.8902,2.91,3.0677,3.5911,4.0156,4.4736,5.1,5.5703,5.9293,6.0302,6.1081,6.1419,6.1549,6.1549,6.1549,6.1549,6.1549,6.1549,6.1549,6.1549,6.1549,6.1549,6.1549,6.1497,6.1393,5.9268,5.8322,5.8195,5.6148,5.4925,5.4925,5.6001,5.67,5.6725,5.7798,5.8147,-10.9495,-11.1034,-11.224,-11.3958,-11.4203,-11.42,-11.3982,-11.452,-11.4291,-11.187,-11.1944,-11.2058,-11.0804,-10.2304,-9.3421,-8.6778,-7.3104,-6.1379,-5.5654,-4.8991,-4.4261,-4.3072,-3.8997,-3.5407,-3.3441,-3.0954,-2.9509,-2.9509,-2.9509,-2.9509,-2.9509,-2.9377,-2.9607,-2.9473,-2.9166,-2.9006,-2.8652,-2.8362,-2.8428,-2.8519,-2.8545,-2.7035,-2.4232,-1.2459,-0.4587,0.0,0.0,0.0,0.0,0.0,0.0,0.0,0.0,0.0,0.0,0.0,0.0,0.0,0.0,0.0,0.0,0.0,0.0,0.0,0.0,0.0,0.0,0.0,0.0,0.1172,0.6507,1.0946,1.5626,2.0673,2.5397,2.8546,2.9008,2.9205,3.1527,3.9036,4.289,4.7169,5.4934,5.8466,6.0796,6.1081,6.1367,6.1549,6.1549,6.1549,6.1549,6.1549,6.1549,6.1549,6.1549,6.1549,6.1549,6.1549,6.1549,6.1445,6.1159,6.0328,5.9731,5.9445,5.8588,5.8147,5.8147,5.8147,5.8147,5.8147,5.8147,5.8147,-10.7905,-10.8293,-10.8491,-11.1545,-11.2553,-11.2966,-11.3885,-11.4568,-11.3954,-11.0196,-11.1599,-11.2226,-10.7878,-10.0532,-9.209,-8.2868,-6.9941,-5.7895,-4.9404,-4.5232,-4.1316,-3.6412,-3.575,-3.3819,-2.9874,-2.9509,-2.9509,-2.9509,-2.9509,-2.9509,-2.9509,-2.9509,-2.9403,-2.9179,-2.9179,-2.906,-2.9166,-2.8704,-2.8704,-2.844,-2.7187,-2.376,-1.8115,-1.3923,-0.7634,0.0,0.0,0.0,0.0,0.0,0.0,0.0,0.0,0.0,0.0,0.0,0.0,0.0,0.0,0.0,0.0,0.0,0.0,0.0,0.0,0.0,0.0,0.0,0.0,0.1564,0.7667,1.173,1.6061,2.1963,2.6037,2.8784,2.8981,2.9245,3.2396,4.2491,4.4875,4.8103,5.8517,6.0718,6.1004,6.1497,6.1549,6.1549,6.1549,6.1549,6.1549,6.1549,6.1549,6.1549,6.1549,6.1549,6.1523,6.1419,6.1419,6.1159,6.0588,6.0017,5.9497,5.903,5.8459,5.8147,5.8147,5.8147,5.8147,5.8147,5.8147,5.8147,-10.0657,-10.073,-10.1764,-10.3123,-10.4377,-10.5697,-10.7326,-10.858,-10.8751,-10.616,-10.748,-10.7878,-10.3555,-9.0509,-8.1574,-8.5371,-7.1295,-5.8425,-5.4693,-5.1101,-4.5626,-3.68,-3.254,-3.0225,-2.9509,-2.9509,-2.9509,-2.9509,-2.9509,-2.9509,-2.9509,-2.9509,-2.9496,-2.9456,-2.9456,-2.9443,-2.9403,-2.8902,-2.8902,-2.939,-2.0414,-1.6076,-1.5139,-0.5986,-0.1136,0.0,0.0,0.0,0.0,0.0,0.0,0.0,0.0,0.0,0.0,0.0,0.0,0.0,0.0,0.0,0.0,0.0,0.0,0.0,0.0,0.0,0.0,0.0,0.0,0.2348,1.1576,1.4512,1.6976,2.6252,2.887,2.8981,2.8757,2.8942,3.2092,4.2057,4.4532,4.8377,5.8449,6.0796,6.1471,6.1549,6.1549,6.1549,6.1549,6.1549,6.1549,6.1549,6.1549,6.1549,6.1549,6.1549,6.1341,6.0848,6.0822,6.0562,5.9991,5.9419,5.9082,5.9004,5.8459,5.8147,5.8147,5.8147,5.8147,5.8147,5.8147,5.8147,-10.1085,-10.1058,-10.1799,-10.3452,-10.4537,-10.5034,-10.5904,-10.5854,-10.5253,-10.3669,-10.4709,-10.413,-9.8522,-8.7001,-7.7595,-7.4581,-5.9812,-4.7476,-4.3991,-4.0222,-3.6599,-3.2827,-2.8299,-2.656,-2.9144,-2.6926,-2.656,-2.9509,-2.6926,-2.545,-2.545,-2.8035,-2.9509,-2.9509,-2.9509,-2.9509,-2.9509,-2.9258,-2.7797,-2.545,-2.0936,-1.5797,-1.0342,-0.5978,-0.2637,0.0,0.0,0.0,0.0,0.0,0.0,0.0,0.0,0.0,0.0,0.0,0.0,0.0,0.0,0.0,0.0,0.0,0.0,0.0,0.0,0.0,0.0,0.0,0.0,0.2349,1.2362,1.4919,1.7413,2.7239,2.9548,2.9298,2.9166,2.9232,3.0802,3.4875,4.0734,4.823,5.8728,6.0744,6.1185,6.1497,6.1549,6.1315,6.0692,6.0588,6.0588,6.0588,6.0588,6.0588,6.0588,6.0588,6.0484,6.025,6.0224,5.9965,5.9419,5.916,5.8874,5.8536,5.8277,5.8147,5.8147,5.8147,5.8147,5.8147,5.8147,5.8147,-9.9388,-9.8778,-9.9308,-10.0198,-10.0494,-10.0938,-10.1654,-10.1165,-9.9997,-9.8806,-9.9479,-9.8313,-9.1228,-8.2852,-7.4055,-6.6039,-5.3057,-4.2369,-3.7571,-3.4131,-3.1003,-2.7972,-2.4352,-2.3241,-2.5439,-2.2498,-2.1765,-2.5439,-2.2498,-2.0287,-2.0287,-2.3608,-2.6182,-2.7669,-2.7669,-2.84,-2.9509,-2.9509,-2.6926,-2.2131,-1.9553,-1.4396,-0.7393,-0.5962,-0.3372,0.0,0.0,0.0,0.0,0.0,0.0,0.0,0.0,0.0,0.0,0.0,0.0,0.0,0.0,0.0,0.0,0.0,0.0,0.0,0.0,0.0,0.0,0.0,0.0782,0.3896,1.2666,1.598,1.8872,2.7657,2.9667,2.9509,2.9509,2.9509,2.9509,2.9509,3.7638,4.7107,5.5269,5.888,6.064,6.1056,6.1133,6.0822,5.9965,5.9861,5.9861,5.9861,5.9861,5.9861,5.9861,5.9861,5.9783,5.9653,5.9627,5.9393,5.8822,5.8796,5.8588,5.8147,5.8147,5.8147,5.8147,5.8147,5.8147,5.8147,5.8147,5.8147,-9.0591,-8.955,-9.0031,-8.6341,-8.6071,-8.7437,-9.046,-9.1137,-9.0764,-8.9692,-9.0344,-8.8682,-8.1267,-7.4472,-6.9048,-6.6253,-5.9079,-5.1144,-4.3687,-4.2493,-3.7424,-2.4275,-2.2141,-2.0287,-1.5869,-1.5133,-1.5133,-1.5501,-1.5133,-1.5133,-1.5133,-1.5501,-1.7707,-2.2508,-2.2508,-2.4718,-2.9509,-2.9509,-2.6926,-2.2131,-1.2554,-0.7762,-0.7393,-0.2595,-0.0373,0.0,0.0,0.0,0.0,0.0,0.0,0.0,0.0,0.0,0.0,0.0,0.0,0.0,0.0,0.0,0.0,0.0,0.0,0.0,0.0,0.0,0.0,0.0,0.3483,0.8078,1.3571,1.8358,2.3151,2.8489,2.9522,2.9509,2.9509,2.9509,2.9509,2.9509,3.742,4.4021,4.5217,5.3662,5.9913,5.9939,5.9939,5.9913,5.9861,5.9861,5.9861,5.9861,5.9861,5.9861,5.9861,5.9861,5.9627,5.9082,5.9056,5.8796,5.8225,5.8199,5.8173,5.8147,5.8147,5.8147,5.8147,5.8147,5.8147,5.8147,5.8147,5.8147,-9.1961,-8.9602,-8.8689,-8.5132,-8.4535,-8.5192,-8.6995,-8.7392,-8.6466,-8.257,-8.2819,-8.1267,-7.3305,-6.6361,-5.9911,-5.4142,-4.67,-3.9701,-3.4242,-3.364,-3.0677,-2.2961,-1.8996,-1.6485,-1.4751,-0.9185,-0.5145,-0.518,-0.8131,-0.9973,-0.9973,-1.2917,-1.5501,-1.734,-1.734,-1.8442,-1.9911,-1.9911,-1.9177,-1.734,-1.0711,-0.5548,-0.2594,-0.0742,0.0,0.0,0.0,0.0,0.0,0.0,0.0,0.0,0.0,0.0,0.0,0.0,0.0,0.0,0.0,0.0,0.0,0.0,0.0,0.0,0.0,0.0,0.0,0.0,0.3448,0.839,1.3535,1.8334,2.3502,2.8464,2.9509,2.9509,2.9509,2.9509,2.9509,2.9509,3.7043,4.3904,4.4061,5.2766,5.9445,5.9809,5.9238,5.877,5.877,5.877,5.877,5.877,5.877,5.877,5.877,5.877,5.8666,5.8484,5.8459,5.8355,5.8147,5.8147,5.8147,5.8147,5.8147,5.8147,5.8147,5.8147,5.8147,5.8147,5.8147,5.8147,-9.1312,-8.763,-8.4471,-8.0341,-7.7842,-7.6796,-7.7395,-7.7755,-7.693,-7.3436,-7.3426,-7.2029,-6.5766,-5.9527,-5.2851,-4.5533,-3.8895,-3.2953,-2.8847,-2.6869,-2.4209,-1.9851,-1.4875,-1.1305,-0.9919,-0.4029,0.0,0.0,-0.2958,-0.481,-0.481,-0.8135,-1.0711,-1.218,-1.2186,-1.2923,-1.4764,-1.4764,-1.4022,-1.218,-0.8866,-0.481,0.0,0.0,0.0,0.0,0.0,0.0,0.0,0.0,0.0,0.0,0.0,0.0,0.0,0.0,0.0,0.0,0.0,0.0,0.0,0.0,0.0,0.0,0.0,0.0,0.0381,0.1899,0.6063,1.0951,1.6068,2.0849,2.5644,2.8817,2.9509,2.9509,2.9509,3.0954,3.2018,3.2018,3.9546,4.6338,4.6338,5.3054,5.8848,5.9238,5.864,5.8147,5.8147,5.8147,5.8147,5.8147,5.8147,5.8147,5.8147,5.8147,5.8147,5.8147,5.8147,5.8147,5.8147,5.8147,5.8147,5.8147,5.8147,5.8147,5.8147,5.8147,5.8147,5.8147,5.8147,5.8147,-8.8019,-8.2419,-7.6943,-7.0824,-6.5593,-6.1825,-6.1573,-6.2124,-6.232,-6.2062,-6.2094,-6.1108,-5.858,-5.4032,-4.8695,-4.1452,-3.6958,-3.2937,-2.8847,-2.4164,-1.9313,-1.5035,-1.0119,-0.5461,-0.0365,0.0,0.0,0.0,0.0,0.0,0.0,0.0,-0.2223,-0.7023,-0.7023,-0.9604,-1.4396,-1.4396,-1.1817,-0.7023,-0.7023,-0.481,0.0,0.0,0.0,0.0,0.0,0.0,0.0,0.0,0.0,0.0,0.0,0.0,0.0,0.0,0.0,0.0,0.0,0.0,0.0,0.0,0.0,0.0,0.0,0.0,0.1142,0.6018,1.0864,1.6061,2.071,2.5816,2.9509,2.9509,2.9509,2.9509,2.9509,3.3456,3.6682,3.6682,4.4538,5.0986,5.0986,5.4925,5.8147,5.8147,5.8147,5.8147,5.8147,5.8147,5.8147,5.8147,5.8147,5.8147,5.8147,5.8147,5.8147,5.8147,5.8147,5.8147,5.8147,5.8147,5.8147,5.8147,5.8147,5.8147,5.8147,5.8147,5.8147,5.8147,5.8147,5.8147,-8.6633,-8.1397,-7.7091,-7.2335,-7.0488,-6.9629,-6.7188,-6.7372,-6.6125,-5.8927,-5.8088,-5.7516,-5.4423,-4.7843,-4.2612,-4.1249,-3.4587,-2.892,-2.8205,-2.3771,-1.901,-1.4658,-0.9999,-0.5351,-0.0357,0.0,0.0,0.0,0.0,0.0,0.0,0.0,-0.0742,-0.1853,-0.1853,-0.2594,-0.4074,-0.4074,-0.3333,-0.1853,-0.1853,-0.1483,0.0,0.0,0.0,0.0,0.0,0.0,0.0,0.0,0.0,0.0,0.0,0.0,0.0,0.0,0.0,0.0,0.0,0.0,0.0,0.0,0.0,0.0,0.0,0.0,0.1121,0.5947,1.1124,1.5926,2.104,2.5816,2.9509,2.9509,2.9509,2.9509,2.9509,3.3456,3.6682,3.6682,4.4538,5.0986,5.0986,5.4925,5.8147,5.8147,5.8147,5.8147,5.8147,5.8147,5.8147,5.8147,5.8147,5.8147,5.8147,5.8147,5.8147,5.8147,5.8147,5.8147,5.8147,5.8147,5.8147,5.8147,5.8147,5.8147,5.8147,5.8147,5.8147,5.8147,5.8147,5.8147,-8.5924,-7.9508,-7.3859,-6.9985,-6.8761,-6.7018,-6.2372,-6.2938,-6.2101,-5.4427,-5.3431,-5.3391,-5.1624,-4.5034,-3.9531,-4.0346,-3.3062,-2.6862,-2.4837,-2.0853,-1.6128,-1.1667,-0.6724,-0.2837,-0.0357,0.0,0.0,0.0,0.0,0.0,0.0,0.0,0.0,0.0,0.0,0.0,0.0,0.0,0.0,0.0,0.0,0.0,0.0,0.0,0.0,0.0,0.0,0.0,0.0,0.0,0.0,0.0,0.0,0.0,0.0,0.0,0.0,0.0,0.0,0.0,0.0,0.0,0.0,0.0,0.0,0.1483,0.4072,0.9235,1.4028,1.9186,2.3974,2.7303,2.9509,2.9509,2.9509,2.9509,2.9509,3.4906,3.9906,3.9546,4.7404,5.3849,5.3849,5.635,5.8147,5.8147,5.8147,5.8147,5.8147,5.8147,5.8147,5.8147,5.8147,5.8147,5.8147,5.8147,5.8147,5.8147,5.8147,5.8147,5.8147,5.8147,5.8147,5.8147,5.8147,5.8147,5.8147,5.8147,5.8147,5.8147,5.8147,5.7887,-8.4983,-7.8005,-7.051,-6.6929,-6.3971,-6.024,0.0,-5.506,-5.6206,-5.1177,-5.0414,-5.0899,-5.067,-4.4511,-3.8907,-3.8459,-3.2125,-2.5509,-2.1237,-1.6337,-1.1218,-0.6608,-0.2458,0.0,0.0,0.0,0.0,0.0,0.0,0.0,0.0,0.0,0.0,0.0,0.0,0.0,0.0,0.0,0.0,0.0,0.0,0.0,0.0,0.0,0.0,0.0,0.0,0.0,0.0,0.0,0.0,0.0,0.0,0.0,0.0,0.0,0.0,0.0,0.0,0.0,0.0,0.0,0.0,0.0,0.0742,0.4072,0.8497,1.4028,1.8818,2.3241,2.84,2.9509,2.9509,2.9509,2.9509,2.9509,2.9509,3.7059,4.3864,4.3845,5.1691,5.8147,5.8147,5.8147,5.8147,5.8147,5.8147,5.8147,5.8147,5.8147,5.8147,5.8147,5.8147,5.8147,5.8147,5.8147,5.8147,5.8147,5.8147,5.8147,5.8147,5.8147,5.8147,5.8147,5.8095,5.8069,5.8069,5.7939,5.7887,5.7965,5.7887,5.7212,0.0,0.0,0.0,0.0,0.0,0.0,0.0,-6.4676,-6.5389,-5.9643,-5.8779,-5.7434,-5.2306,-4.6173,-4.0459,-3.5867,-2.7509,-2.1234,-2.0704,-1.3454,-0.6545,-0.2066,-0.0695,0.0,0.0,0.0,0.0,0.0,0.0,0.0,0.0,0.0,0.0,0.0,0.0,0.0,0.0,0.0,0.0,0.0,0.0,0.0,0.0,0.0,0.0,0.0,0.0,0.0,0.0,0.0,0.0,0.0,0.0,0.0,0.0,0.0,0.0,0.0,0.0,0.0,0.0,0.0,0.0,0.0742,0.481,0.6654,0.9235,1.8075,2.1398,2.3241,2.84,2.9509,2.9509,2.9509,2.9509,2.9509,2.9509,3.7059,4.3845,4.3845,5.1691,5.8147,5.8147,5.8147,5.8147,5.8147,5.8147,5.8147,5.8147,5.8147,5.8147,5.8147,5.8147,5.8147,5.8147,5.8147,5.8147,5.8147,5.8147,5.8147,5.8147,5.8147,5.8147,5.8147,5.7705,5.7472,5.7472,5.6563,5.6329,5.677,5.6303,5.5238,0.0,0.0,0.0,0.0,0.0,0.0,0.0,0.0,0.0,0.0,0.0,-5.8645,-5.5543,0.0,-4.0511,-3.5446,-2.6437,-1.8533,-1.4236,-0.989,-0.513,-0.0682,0.0,0.0,0.0,0.0,0.0,0.0,0.0,0.0,0.0,0.0,0.0,0.0,0.0,0.0,0.0,0.0,0.0,0.0,0.0,0.0,0.0,0.0,0.1483,0.3702,0.3702,0.518,0.7396,0.7396,0.592,0.3333,0.1113,0.0,0.0,0.0,0.0,0.0,0.0,0.0,0.0371,0.2963,0.3702,0.4442,0.9604,1.2923,1.5869,2.0663,2.3974,2.656,2.8778,2.9509,2.9509,2.9509,2.9509,2.9509,2.9509,3.7059,4.3845,4.3845,5.1691,5.8147,5.8147,5.8147,5.8147,5.8147,5.8147,5.8147,5.8147,5.8147,5.8147,5.8147,5.8147,5.8147,5.8147,6.0179,6.1646,6.1948,6.4345,6.4202,6.1536,6.1233,6.0066,5.7731,5.716,5.6589,5.6017,5.5446,5.5005,5.4693,5.355,5.4871,0.0,0.0,0.0,0.0,0.0,0.0,0.0,0.0,0.0,0.0,0.0,0.0,0.0,0.0,0.0,-3.4989,-2.4947,-1.5131,-0.7663,-0.6072,-0.4077,-0.0337,0.0,0.0,0.0,0.0,0.0,0.0,0.0,0.0,0.0,0.0,0.0,0.0,0.0,0.0,0.0,0.0,0.0,0.0,0.0,0.0,0.1457,0.147,0.405,0.8451,0.8451,1.1025,1.4718,1.4718,1.1796,0.702,0.4791,0.2947,0.1106,0.037,0.0,0.0,0.0,0.0742,0.2223,0.5917,0.8131,0.9604,1.4758,1.8818,0.0,2.3241,2.656,2.9509,2.9509,2.9509,2.9509,2.9509,2.9509,2.9509,2.9509,3.7109,4.3982,4.3982,5.1853,5.8329,5.8329,5.8329,5.8329,5.8329,5.8225,5.8147,5.8147,5.8147,5.8147,5.8147,5.8147,5.8495,5.9512,6.2886,6.5461,6.6962,7.076,7.0785,6.6072,6.5538,6.3167,5.8289,5.7731,5.6495,5.4381,5.4147,5.3871,5.3848,5.2566,5.5137,0.0,0.0,0.0,0.0,0.0,0.0,0.0,0.0,0.0,0.0,0.0,0.0,0.0,0.0,0.0,0.0,-1.7397,-0.7829,-0.7039,-0.3349,-0.0668,0.0,0.0,0.0,0.0,0.0,0.0,0.0,0.0,0.0,0.0,0.0,0.0,0.0,0.0,0.0,0.0,0.0,0.0,0.0,0.0,0.2162,0.6115,0.6121,0.8639,1.2946,1.2946,1.3732,1.4566,1.4566,1.1722,0.8113,1.5916,1.3657,0.5772,0.1459,0.0,0.0,0.0,0.0,0.0,0.7023,1.0342,1.4764,1.992,2.1765,2.3241,2.7657,2.9144,2.9509,2.9509,2.9509,2.9509,2.9509,2.9509,2.9509,2.9509,3.7308,4.4776,4.4776,5.2386,5.8926,5.8926,5.8926,5.8926,5.8926,5.8484,5.8147,5.8147,5.8147,5.8147,5.8147,5.8147,0.0,6.3888,6.4573,6.662,7.0713,7.1385,7.1066,6.9669,6.9542,6.6966,6.1585,6.0924,5.8107,5.3187,5.2174,5.3427,5.6509,5.7451,5.6575,0.0,0.0,0.0,0.0,0.0,0.0,0.0,0.0,0.0,0.0,0.0,0.0,0.0,0.0,0.0,0.0,-1.966,-1.1325,-0.9256,-0.3884,0.0,0.0,0.0,0.0,0.0,0.0,0.0,0.0,0.0,0.0,0.0,0.0,0.0,0.0,0.0,0.0,0.0,0.0,0.0,0.0,0.2843,0.4985,0.7118,0.966,1.3613,1.8253,1.8253,1.9733,2.269,2.269,1.986,1.5938,0.0,0.0,0.0,0.0,0.7945,0.7949,0.7986,0.9445,1.1616,1.4506,1.6675,1.9572,2.4298,2.5749,2.6468,2.829,2.9008,2.9008,2.9008,2.9008,2.906,2.9232,2.9271,2.9311,2.9482,3.7176,4.4198,4.4816,5.2478,0.0,5.8562,5.8796,5.89,5.8562,5.8588,5.8536,5.8199,5.8147,5.9297,6.2351,6.2726,6.4431,6.9179,7.1864,0.0,0.0,0.0,7.8635,7.8742,7.5273,0.0,0.0,0.0,6.1191,5.8081,5.7141,0.0,0.0,5.614,5.6847,0.0,0.0,0.0,0.0,0.0,0.0,0.0,0.0,0.0,0.0,0.0,0.0,0.0,0.0,0.0,0.0,-2.1919,-1.3605,-1.1712,-0.5592,-0.1915,-0.2885,-0.1289,-0.0323,-0.1608,-0.0653,0.0,0.0,0.0,0.0,0.0,0.0,0.0,0.0,0.0,0.0,0.0,0.1397,0.1747,0.1729,0.6646,0.9481,1.0853,1.4142,1.8463,2.3073,2.3073,2.5245,2.8533,2.8533,2.5705,2.1447,2.2264,1.9738,1.556,1.5516,1.4848,1.3854,1.35,1.4563,1.6333,1.9877,2.2004,2.3778,2.7346,2.8414,2.8414,2.8414,2.8414,2.8428,2.8507,2.8533,2.8599,2.8902,2.8981,2.9393,3.0664,3.7902,4.4122,4.5872,5.2536,5.8043,5.7939,5.8277,5.8459,5.8199,5.8381,5.8783,5.9886,6.0179,6.2102,6.7455,6.789,6.9921,7.4347,7.7539,7.9689,8.05,8.2724,8.379,8.3942,7.9605,7.4365,6.9148,6.6273,6.3322,0.0,0.0,0.0,0.0,0.0,0.0,0.0,0.0,0.0,0.0,0.0,0.0,0.0,0.0,0.0,0.0,0.0,0.0,0.0,0.0,0.0,0.0,0.0,0.0,-1.4102,-0.8939,-0.6489,-1.0371,-0.445,-0.1628,-0.5462,-0.2251,0.0,0.0,0.0,0.0,0.0,0.0,0.0,0.0,0.0,0.0,0.0,0.4436,0.682,0.641,1.1361,1.5892,1.9845,2.04,2.3291,2.7477,2.7477,2.7979,2.8217,2.8217,2.5538,2.1388,2.5338,2.4074,2.0156,1.9942,1.7062,1.3557,1.3211,1.6329,2.0152,2.0497,2.3636,2.7477,2.7821,2.7821,2.7821,2.7821,2.7821,2.7887,2.8151,2.8217,2.8296,2.8599,2.8665,2.9715,3.4258,3.9434,4.4622,4.9233,5.2988,5.6069,5.716,5.7342,5.755,5.8069,5.7705,0.0,6.4144,6.4886,6.717,7.2248,7.2652,7.4347,7.8782,7.8712,7.9966,8.3511,8.3752,8.3031,8.1436,8.0563,7.901,7.7308,7.0945,6.4203,5.7475,0.0,0.0,0.0,0.0,0.0,0.0,0.0,0.0,0.0,0.0,0.0,0.0,0.0,0.0,0.0,0.0,0.0,0.0,0.0,0.0,0.0,0.0,0.0,0.0,-1.1653,-0.6568,-1.0397,-0.6378,-0.4005,-0.5518,-0.185,0.1874,0.4464,0.7213,0.8661,0.8665,0.8756,0.8415,0.8291,0.8011,0.8361,0.8333,1.0101,1.0816,1.0779,1.5702,1.886,2.0506,2.3674,2.6117,2.7491,2.7294,2.7254,2.7346,2.7346,2.6153,2.4541,2.6039,2.5569,2.4168,2.4264,2.3298,2.1624,2.1624,2.2626,2.4288,2.4288,2.5303,2.6634,2.6634,2.6502,2.6344,2.6344,2.6344,2.6371,2.6463,2.6634,2.6898,2.7386,2.7491,2.8607,3.3437,3.8406,4.3363,4.8116,5.0962,5.3109,5.4251,5.542,5.7208,5.9999,6.1227,6.3001,6.7858,6.8526,7.1002,7.6603,7.741,7.9115,8.3564,8.3116,8.2947,8.379,8.2196,8.1019,8.0449,7.8551,7.6956,7.5893,7.2724,6.8714,6.4117,0.0,0.0,0.0,0.0,0.0,0.0,0.0,0.0,0.0,0.0,0.0,0.0,0.0,0.0,0.0,0.0,0.0,0.0,0.0,0.0,0.0,0.0,0.0,0.0,0.0,0.0,-1.0348,-0.6452,0.0,-0.5648,-0.1779,0.1797,0.4301,0.6929,0.9294,1.0673,1.0793,1.148,1.2374,1.2506,1.2557,1.2841,1.4311,1.5329,1.5207,2.0129,2.2583,2.2506,2.5741,2.7135,2.7043,2.6951,2.6793,2.6595,2.6489,2.5239,2.3638,2.3807,2.2802,2.1688,2.3376,2.3686,2.3935,2.5126,2.5751,2.5751,2.5751,2.5606,2.5448,2.5553,2.5303,2.5039,2.5237,2.5224,2.5496,2.695,2.7377,2.7921,2.9817,2.9346,3.0131,3.6249,3.8898,4.1721,4.7568,4.9556,5.0979,5.194,5.4433,5.7031,6.0263,6.284,6.6382,7.1654,7.2405,7.474,8.1296,8.1553,8.2758,8.5478,8.5005,8.4056,8.2917,8.1095,7.9614,7.8703,7.6804,7.483,7.2818,7.111,6.8756,0.0,0.0,0.0,0.0,0.0,0.0,0.0,0.0,0.0,0.0,0.0,0.0,0.0,0.0,0.0,0.0,0.0,0.0,0.0,0.0,0.0,0.0,0.0,0.0,0.0,0.0,0.0,-1.02,-0.4561,0.0,0.0,0.0,0.0,0.0877,0.0871,0.2945,0.7069,0.7483,0.9505,1.3267,1.3729,1.375,1.3646,1.8042,1.9899,1.9496,2.4203,2.6305,2.6041,2.6595,2.67,2.6463,2.6713,2.6516,2.6001,2.5341,2.2949,1.9435,1.9128,1.6898,1.3692,1.7306,1.893,2.0027,2.36,2.5078,2.5092,2.5105,2.4709,2.4261,2.4551,2.4235,0.0,0.0,2.4406,2.5216,2.9437,3.0272,3.1118,3.5868,3.39,3.3693,4.2493,4.1017,4.0143,4.7257,4.9005,4.9551,5.0396,0.0,5.726,5.9064,6.2971,6.8255,7.517,7.6155,7.9027,8.5478,8.5347,8.4815,8.4815,8.4056,8.2879,8.1284,8.0297,7.8703,7.6311,7.521,7.2818,6.887,6.6971,0.0,0.0,0.0,0.0,0.0,0.0,0.0,0.0,0.0,0.0,0.0,0.0,0.0,0.0,0.0,0.0,0.0,0.0,0.0,0.0,0.0,0.0,0.0,0.0,0.0,0.0,-0.8507,-0.4472,-0.3557,-0.362,-0.2609,0.0,0.0,0.0,0.0,0.0,0.0,1.7956,1.6296,1.683,2.0202,1.7889,1.8197,2.1613,2.2747,2.3439,2.3711,2.5023,2.579,2.5725,2.587,2.5896,2.583,2.5685,2.5672,2.5328,2.1612,1.9339,1.7998,1.5446,1.3605,1.2596,1.3747,1.576,1.8035,1.9459,2.1495,2.3589,2.3826,2.3496,2.3035,2.3114,0.0,0.0,0.0,0.0,2.3616,2.7643,2.8738,2.9913,3.446,3.4667,3.5353,4.113,4.1736,4.2198,4.5165,4.6019,4.7268,5.0117,5.3592,0.0,6.3799,6.7659,7.1783,7.7351,7.8664,8.009,8.3259,8.3259,8.3107,8.3107,8.1816,8.0791,8.0373,7.7792,7.6273,7.6197,7.2438,6.9895,6.8832,0.0,0.0,0.0,0.0,0.0,0.0,0.0,0.0,0.0,0.0,0.0,0.0,0.0,0.0,0.0,0.0,0.0,0.0,0.0,0.0,0.0,0.0,0.0,0.0,0.0,0.0,0.0,-0.5305,0.0,0.2644,0.1443,0.1684,0.0,0.0,0.0,0.0,0.0,0.0,0.0,0.0,0.0,2.2333,1.962,1.9133,2.1583,2.1844,2.1976,2.2277,2.4213,2.5039,2.5039,2.5303,2.5355,2.5224,2.521,2.492,2.4104,1.9885,1.6836,1.4577,0.0,0.0,0.0,0.0,1.0727,1.2615,1.4587,1.7655,2.0181,2.0507,0.0,0.0,0.0,0.0,0.0,0.0,0.0,2.4827,2.8794,3.139,3.3724,3.7546,3.7569,3.7566,4.2306,4.2343,4.2127,4.2721,4.4222,4.5893,4.8705,5.3404,0.0,0.0,0.0,7.3298,7.7687,7.8969,8.0259,8.2272,8.2158,8.1778,8.1436,8.2003,8.1813,8.0679,7.9048,7.7879,7.7467,7.2637,6.9197,0.0,0.0,0.0,0.0,0.0,0.0,0.0,0.0,0.0,0.0,0.0,0.0,0.0,0.0,0.0,0.0,0.0,0.0,0.0,0.0,0.0,0.0,0.0,0.0,0.0,0.0,0.0,0.0,0.0,0.5428,0.8541,0.0,0.0,0.0,0.0,0.0,0.0,0.0,0.0,0.0,0.0,0.0,0.0,0.0,1.7592,1.8261,1.8398,1.8514,1.8898,2.1982,2.3739,2.409,2.4657,2.4788,2.4577,2.4722,0.0,2.1913,1.874,0.0,0.0,0.0,0.0,0.0,0.0,0.0,0.0,0.0,0.0,0.0,0.0,0.0,0.0,0.0,0.0,0.0,0.0,0.0,0.0,0.0,0.0,3.8096,4.2075,4.0955,3.9842,4.3584,4.2663,4.1025,4.0946,4.3117,4.538,0.0,0.0,0.0,0.0,0.0,0.0,7.6349,7.7716,7.9348,8.174,8.1515,8.1095,8.0783,8.3548,8.4372,8.208,8.1661,8.0642,7.9386,7.3819,0.0,0.0,0.0,0.0,0.0,0.0,0.0,0.0,0.0,0.0,0.0,0.0,0.0,0.0,0.0,0.0,0.0,0.0,0.0,0.0,0.0,0.0,0.0,0.0,0.0,0.0,0.0,0.0,0.0,0.0,0.0,0.0,0.0,0.0,0.0,0.0,0.0,0.0,0.0,0.0,0.0,0.0,0.0,0.0,0.0,0.0,0.0,0.0,0.0,0.0,1.937,2.0091,2.289,2.3233,2.3483,2.3628,2.2969,2.0866,1.7782,1.3839,0.0,0.0,0.0,0.0,0.0,0.0,0.0,0.0,0.0,0.0,0.0,0.0,0.0,0.0,0.0,0.0,0.0,0.0,0.0,0.0,0.0,0.0,3.3502,3.9523,4.1079,4.1084,3.9831,0.0,0.0,0.0,0.0,0.0,0.0,0.0,0.0,0.0,0.0,0.0,7.2287,7.4868,7.7374,7.9234,8.1168,8.2849,8.3452,8.4503,8.5485,8.5743,8.2141,7.9866,0.0,0.0,0.0,0.0,0.0,0.0,0.0,0.0,0.0,0.0,0.0,0.0,0.0,0.0,0.0,0.0,0.0,0.0,0.0,0.0,0.0,0.0,0.0,0.0,0.0,0.0,0.0,0.0,0.0,0.0,0.0,0.0,0.0,0.0,0.0,0.0,0.0,0.0,0.0,0.0,0.0,0.0,0.0,0.0,0.0,0.0,0.0,0.0,0.0,0.0,0.0,0.0,0.0,0.0,0.0,0.0,0.0,0.0,1.8584,1.6359,0.0,0.0,0.0,0.0,0.0,0.0,0.0,0.0,0.0,0.0,0.0,0.0,0.0,0.0,0.0,0.0,0.0,0.0,0.0,0.0,0.0,0.0,0.0,0.0,0.0,0.0,0.0,0.0,0.0,0.0,0.0,0.0,0.0,0.0,0.0,0.0,0.0,0.0,0.0,0.0,7.0502,7.3881,7.7673,8.1382,8.2446,8.355,8.5482,8.707,8.7471,8.586,8.3532,0.0,0.0,0.0,0.0,0.0,0.0,0.0,0.0,0.0,0.0,0.0,0.0,0.0,0.0,0.0,0.0,0.0,0.0,0.0,0.0,0.0,0.0,0.0,0.0,0.0,0.0,0.0,0.0,0.0,0.0,0.0,0.0,0.0,0.0,0.0,0.0,0.0,0.0,0.0,0.0,0.0,0.0,0.0,0.0,0.0,0.0,0.0,0.0,0.0,0.0,0.0,0.0,0.0,0.0,0.0,0.0,0.0,0.0,0.0,1.4093,1.2023,0.0,0.0,0.0,0.0,0.0,0.0,0.0,0.0,0.0,0.0,0.0,0.0,0.0,0.0,0.0,0.0,0.0,0.0,0.0,0.0,0.0,0.0,0.0,0.0,0.0,0.0,0.0,0.0,0.0,0.0,0.0,0.0,0.0,0.0,0.0,0.0,0.0,0.0,0.0,0.0,7.098,7.493,7.9388,8.4452,8.4473,8.5218,8.7428,8.9807,8.9645,8.5962,8.4657,0.0,0.0,0.0,0.0,0.0,0.0,0.0,0.0,0.0,0.0,0.0,0.0,0.0,0.0,0.0,0.0,0.0,0.0,0.0,0.0,0.0,0.0,0.0,0.0,0.0,0.0,0.0,0.0,0.0,0.0,0.0,0.0,0.0,0.0,0.0,0.0,0.0,0.0,0.0,0.0,0.0,0.0,0.0,0.0,0.0,0.0,0.0,0.0,0.0,0.0,0.0,0.0,0.0,0.0,0.0,0.0,0.0,0.0,0.0,0.0,0.0,0.0,0.0,0.0,0.0,0.0,0.0,0.0,0.0,0.0,0.0,0.0,0.0,0.0,0.0,0.0,0.0,0.0,0.0,0.0,0.0,0.0,0.0,0.0,0.0,0.0,0.0,0.0,0.0,0.0,0.0,0.0,0.0,0.0,0.0,0.0,0.0,0.0,0.0,0.0,0.0,7.4486,7.9012,8.2999,8.6289,8.7924,8.9245,9.0374,9.2013,9.196,8.9678,0.0,0.0,0.0,0.0,0.0,0.0,0.0,0.0,0.0,0.0,0.0,0.0,0.0,0.0,0.0,0.0,0.0,0.0,0.0,0.0,0.0,0.0,0.0,0.0,0.0,0.0,0.0,0.0,0.0,0.0,0.0,0.0,0.0,0.0,0.0,0.0,0.0,0.0,0.0,0.0,0.0,0.0,0.0,0.0,0.0,0.0,0.0,0.0,0.0,0.0,0.0,0.0,0.0,0.0,0.0,0.0,0.0,0.0,0.0,0.0,0.0,0.0,0.0,0.0,0.0,0.0,0.0,0.0,0.0,0.0,0.0,0.0,0.0,0.0,0.0,0.0,0.0,0.0,0.0,0.0,0.0,0.0,0.0,0.0,0.0,0.0,0.0,0.0,0.0,0.0,0.0,0.0,0.0,0.0,0.0,0.0,0.0,0.0,0.0,0.0,0.0,0.0,7.4416,7.9279,8.4448,8.9795,8.9154,8.9832,9.2977,9.2106,8.9806,8.6341,0.0,0.0,0.0,0.0,0.0,0.0,0.0,0.0,0.0,0.0,0.0,0.0,0.0,0.0,0.0,0.0,0.0,0.0,0.0,0.0,0.0,0.0,0.0,0.0,0.0,0.0,0.0,0.0,0.0,0.0,0.0,0.0,0.0,0.0,0.0,0.0,0.0,0.0,0.0,0.0,0.0,0.0,0.0,0.0,0.0,0.0,0.0,0.0,0.0,0.0,0.0,0.0,0.0,0.0,0.0,0.0,0.0,0.0,0.0,0.0,0.0,0.0,0.0,0.0,0.0,0.0,0.0,0.0,0.0,0.0,0.0,0.0,0.0,0.0,0.0,0.0,0.0,0.0,0.0,0.0,0.0,0.0,0.0,0.0,0.0,0.0,0.0,0.0,0.0,0.0,0.0,0.0,0.0,0.0,0.0,0.0,0.0,0.0,0.0,0.0,0.0,0.0,7.651,8.1509,8.7119,9.31,9.0962,9.034,9.3954,9.1661,8.8049,8.3363,0.0,0.0,0.0,0.0,0.0,0.0,0.0,0.0,0.0,0.0,0.0,0.0,0.0,0.0,0.0,0.0,0.0,0.0,0.0,0.0,0.0,0.0,0.0,0.0,0.0,0.0,0.0,0.0,0.0,0.0,0.0,0.0,0.0,0.0,0.0,0.0,0.0,0.0,0.0,0.0,0.0,0.0,0.0,0.0,0.0,0.0,0.0,0.0,0.0,0.0,0.0,0.0,0.0,0.0,0.0,0.0,0.0,0.0,0.0,0.0,0.0,0.0,0.0,0.0,0.0,0.0,0.0,0.0,0.0,0.0,0.0,0.0,0.0,0.0,0.0,0.0,0.0,0.0,0.0,0.0,0.0,0.0,0.0,0.0,0.0,0.0,0.0,0.0,0.0,0.0,0.0,0.0,0.0,0.0,0.0,0.0,0.0,0.0,0.0,0.0,0.0,0.0,8.2541,8.7366,9.171,9.5956,9.3564,9.2051,9.3076,9.1222,8.7707,0.0,0.0,0.0,0.0,0.0,0.0,0.0,0.0,0.0,0.0,0.0,0.0,0.0,0.0,0.0,0.0,0.0,0.0,0.0,0.0,0.0,0.0,0.0,0.0,0.0,0.0,0.0,0.0,0.0,0.0,0.0,0.0,0.0,0.0,0.0,0.0,0.0,0.0,0.0,0.0,0.0,0.0,0.0,0.0,0.0,0.0,0.0,0.0,0.0,0.0,0.0,0.0,0.0,0.0,0.0,0.0,0.0,0.0,0.0,0.0,0.0,0.0,0.0,0.0,0.0,0.0,0.0,0.0,0.0,0.0,0.0,0.0,0.0,0.0,0.0,0.0,0.0,0.0,0.0,0.0,0.0,0.0,0.0,0.0,0.0,0.0,0.0,0.0,0.0,0.0,0.0,0.0,0.0,0.0,0.0,0.0,0.0,0.0,0.0,0.0,0.0,0.0,0.0,8.1704,8.556,8.9708,9.4784,9.2442,9.0977,9.2002,8.9464,8.5511,8.0093,0.0,0.0,0.0,0.0,0.0,0.0,0.0,0.0,0.0,0.0,0.0,0.0,0.0,0.0,0.0,0.0,0.0,0.0,0.0,0.0,0.0,0.0,0.0,0.0,0.0,0.0,0.0,0.0,0.0,0.0,0.0,0.0,0.0,0.0,0.0,0.0,0.0,0.0,0.0,0.0,0.0,0.0,0.0,0.0,0.0,0.0,0.0,0.0,0.0,0.0,0.0,0.0,0.0,0.0,0.0,0.0,0.0,0.0,0.0,0.0,0.0,0.0,0.0,0.0,0.0,0.0,0.0,0.0,0.0,0.0,0.0,0.0,0.0,0.0,0.0,0.0,0.0,0.0,0.0,0.0,0.0,0.0,0.0,0.0,0.0,0.0,0.0,0.0,0.0,0.0,0.0,0.0,0.0,0.0,0.0,0.0,0.0,0.0,0.0,0.0,0.0,0.0,0.0,8.4242,8.8488,9.3125,9.1466,9.0441,9.1514,8.8244,8.4216,8.0196,0.0,0.0,0.0,0.0,0.0,0.0,0.0,0.0,0.0,0.0,0.0,0.0,0.0,0.0,0.0,0.0,0.0,0.0,0.0,0.0,0.0,0.0,0.0,0.0,0.0,0.0,0.0,0.0,0.0,0.0,0.0,0.0,0.0,0.0,0.0,0.0,0.0,0.0,0.0,0.0,0.0,0.0,0.0,0.0,0.0,0.0,0.0,0.0,0.0,0.0,0.0,0.0,0.0,0.0,0.0,0.0,0.0,0.0,0.0,0.0,0.0,0.0,0.0,0.0,0.0,0.0,0.0,0.0,0.0,0.0,0.0,0.0,0.0,0.0,0.0,0.0,0.0,0.0,0.0,0.0,0.0,0.0,0.0,0.0,0.0,0.0,0.0,0.0,0.0,0.0,0.0,0.0,0.0,0.0,0.0,0.0,0.0,0.0,0.0,0.0,0.0,0.0,0.0,8.3315,8.7805,9.1173,9.0538,9.0294,9.1222,8.7463,8.3931,8.1699,7.5531,0.0,0.0,0.0,0.0,0.0,0.0,0.0,0.0,0.0,0.0,0.0,0.0,0.0,0.0,0.0,0.0,0.0,0.0,0.0,0.0,0.0,0.0,0.0,0.0,0.0,0.0,0.0,0.0,0.0,0.0,0.0,0.0,0.0,0.0,0.0,0.0,0.0,0.0,0.0,0.0,0.0,0.0,0.0,0.0,0.0,0.0,0.0,0.0,0.0,0.0,0.0,0.0,0.0,0.0,0.0,0.0,0.0,0.0,0.0,0.0,0.0,0.0,0.0,0.0,0.0,0.0,0.0,0.0,0.0,0.0,0.0,0.0,0.0,0.0,0.0,0.0,0.0,0.0,0.0,0.0,0.0,0.0,0.0,0.0,0.0,0.0,0.0,0.0,0.0,0.0,0.0,0.0,0.0,0.0,0.0,0.0,0.0,0.0,0.0,0.0,0.0,0.0,8.1997,8.5853,8.9953,8.9464,8.8537,8.7951,8.5462,8.2366,7.8295,7.5575,0.0,0.0,0.0,0.0,0.0,0.0,0.0,0.0,0.0,0.0,0.0,0.0,0.0,0.0,0.0,0.0,0.0,0.0,0.0,0.0,0.0,0.0,0.0,0.0,0.0,0.0,0.0,0.0,0.0,0.0,0.0,0.0,0.0,0.0,0.0,0.0,0.0,0.0,0.0,0.0,0.0,0.0,0.0,0.0,0.0,0.0,0.0,0.0,0.0,0.0,0.0,0.0,0.0,0.0,0.0,0.0,0.0,0.0,0.0,0.0,0.0,0.0,0.0,0.0,0.0,0.0,0.0,0.0,0.0,0.0,0.0,0.0,0.0,0.0,0.0,0.0,0.0,0.0,0.0,0.0,0.0,0.0,0.0,0.0,0.0,0.0,0.0,0.0,0.0,0.0,0.0,0.0,0.0,0.0,0.0,0.0,0.0,0.0,0.0,0.0,0.0,0.0,7.683,8.0826,8.7122,8.7707,8.7415,8.678,8.5332,8.2566,7.7781,7.568,0.0,0.0,0.0,0.0,0.0,0.0,0.0,0.0,0.0,0.0,0.0,0.0,0.0,0.0,0.0,0.0,0.0,0.0,0.0,0.0,0.0,0.0,0.0,0.0,0.0,0.0,0.0,0.0,0.0,0.0,0.0,0.0,0.0,0.0,0.0,0.0,0.0,0.0,0.0,0.0,0.0,0.0,0.0,0.0,0.0,0.0,0.0,0.0,0.0,0.0,0.0,0.0,0.0,0.0,0.0,0.0,0.0,0.0,0.0,0.0,0.0,0.0,0.0,0.0,0.0,0.0,0.0,0.0,0.0,0.0,0.0,0.0,0.0,0.0,0.0,0.0,0.0,0.0,0.0,0.0,0.0,0.0,0.0,0.0,0.0,0.0,0.0,0.0,0.0,0.0,0.0,0.0,0.0,0.0,0.0,0.0,0.0,0.0,0.0,0.0,0.0,0.0,0.0,7.5701,8.3315,8.5857,8.6766,8.62,8.5904,8.3555,7.8182,0.0,0.0,0.0,0.0,0.0,0.0,0.0,0.0,0.0,0.0,0.0,0.0,0.0,0.0,0.0,0.0,0.0,0.0,0.0,0.0,0.0,0.0,0.0,0.0,0.0,0.0,0.0,0.0,0.0,0.0,0.0,0.0,0.0,0.0,0.0,0.0,0.0,0.0,0.0,0.0,0.0,0.0,0.0,0.0,0.0,0.0,0.0,0.0,0.0,0.0,0.0,0.0,0.0,0.0,0.0,0.0,0.0,0.0,0.0,0.0,0.0,0.0,0.0,0.0,0.0,0.0,0.0,0.0,0.0,0.0,0.0,0.0,0.0,0.0,0.0,0.0,0.0,0.0,0.0,0.0,0.0,0.0,0.0,0.0,0.0,0.0,0.0,0.0,0.0,0.0,0.0,0.0,0.0,0.0,0.0,0.0,0.0,0.0,0.0,0.0,0.0,0.0,0.0,0.0,7.5999,7.9421,8.4309,8.6316,8.4441,8.5458,8.3383,7.7435,0.0,0.0,0.0,0.0,0.0,0.0,0.0,0.0,0.0,0.0,0.0,0.0,0.0,0.0]}]]]